[[{"header":{"parameterUnit":"m.s-1","parameterCategory":1,"la1":30.6,"la2":29.2853,"lo1":-89.7004,"lo2":-87.6739,"dy":0.0162,"dx":0.0183,"nx":112,"ny":82,"refTime":"2023-04-29T00:00:00:Z","depth":0,"parameterNumber":2,"parameterNumberName":"U-component_of_WINDS"},"data":[0.0,0.0,0.0,0.0,0.0,0.0,0.0,0.0,0.0,0.0,0.0,0.0,0.0,0.0,0.0,0.0,0.0,0.0,0.0,0.0,0.0,0.0,0.0,0.0,0.0,0.0,0.0,0.0,0.0,0.0,0.0,0.0,0.0,0.0,0.0,0.0,0.0,0.0,0.0,0.0,0.0,0.0,0.0,0.0,0.0,0.0,0.0,0.0,0.0,0.0,0.0,0.0,0.0,0.0,0.0,0.0,0.0,0.0,0.0,0.0,0.0,0.0,0.0,0.0,0.0,0.0,0.0,0.0,0.0,0.0,0.0,0.0,0.0,0.0,0.0,0.0,0.0,0.0,0.0,0.0,0.0,0.0,0.0,0.0,0.0,0.0,0.0,0.0,0.0,0.0,1.5133,1.5805,1.7127,1.8023,1.8145,1.8145,1.788,1.7297,0.0,0.0,0.0,0.0,0.0,0.0,0.0,0.0,0.0,0.0,0.0,0.0,0.0,0.0,0.0,0.0,0.0,0.0,0.0,0.0,0.0,0.0,0.0,0.0,0.0,0.0,0.0,0.0,0.0,0.0,0.0,0.0,0.0,0.0,0.0,0.0,0.0,0.0,0.0,0.0,0.0,0.0,0.0,0.0,0.0,0.0,0.0,0.0,0.0,0.0,0.0,0.0,0.0,0.0,0.0,0.0,0.0,0.0,0.0,0.0,0.0,0.0,0.0,0.0,0.0,0.0,0.0,0.0,0.0,0.0,0.0,0.0,0.0,0.0,0.0,0.0,0.0,0.0,0.0,0.0,0.0,0.0,0.0,0.0,0.0,0.0,0.0,0.0,0.0,0.0,0.0,0.0,0.0,0.0,0.0,0.0,0.0,0.0,0.0,0.0,0.0,0.0,0.0,0.0,1.5872,1.6849,1.7846,1.8443,1.8464,1.8355,1.8091,1.7609,0.0,0.0,0.0,0.0,0.0,0.0,0.0,0.0,0.0,0.0,0.0,0.0,0.0,0.0,0.0,0.0,0.0,0.0,0.0,0.0,0.0,0.0,0.0,0.0,0.0,0.0,0.0,0.0,0.0,0.0,0.0,0.0,0.0,0.0,0.0,0.0,0.0,0.0,0.0,0.0,0.0,0.0,0.0,0.0,0.0,0.0,0.0,0.0,0.0,0.0,0.0,0.0,0.0,0.0,0.0,0.0,0.0,0.0,0.0,0.0,0.0,0.0,0.0,0.0,0.0,0.0,0.0,0.0,0.0,0.0,0.0,0.0,0.0,0.0,0.0,0.0,0.0,0.0,0.0,0.0,0.0,0.0,0.0,0.0,0.0,0.0,0.0,0.0,0.0,0.0,0.0,0.0,0.0,0.0,0.0,0.0,0.0,0.0,0.0,0.0,0.0,0.0,0.0,1.5845,1.6341,1.7548,1.8267,1.8687,1.8776,1.8498,1.8158,1.7792,1.7127,0.0,0.0,0.0,0.0,0.0,0.0,0.0,0.0,0.0,0.0,0.0,0.0,0.0,0.0,0.0,0.0,0.0,0.0,0.0,0.0,0.0,0.0,0.0,0.0,0.0,0.0,0.0,0.0,0.0,0.0,0.0,0.0,0.0,0.0,0.0,0.0,0.0,0.0,0.0,0.0,0.0,0.0,0.0,0.0,0.0,0.0,0.0,0.0,0.0,0.0,0.0,0.0,0.0,0.0,0.0,0.0,0.0,0.0,0.0,0.0,0.0,0.0,0.0,0.0,0.0,0.0,0.0,0.0,0.0,0.0,0.0,0.0,0.0,0.0,0.0,0.0,0.0,0.0,0.0,0.0,0.0,0.0,0.0,0.0,0.0,0.0,0.0,0.0,0.0,0.0,0.0,0.0,0.0,0.0,0.0,0.0,0.0,0.0,0.0,0.0,0.0,0.0,1.6279,1.6686,1.8002,1.8552,1.8871,1.8972,1.8511,1.8111,1.788,1.7066,0.0,0.0,0.0,0.0,0.0,0.0,0.0,0.0,0.0,0.0,0.0,0.0,0.0,0.0,0.0,0.0,0.0,0.0,0.0,0.0,0.0,0.0,0.0,0.0,0.0,0.0,0.0,0.0,0.0,0.0,0.0,0.0,0.0,0.0,0.0,0.0,0.0,0.0,0.0,0.0,0.0,0.0,0.0,0.0,0.0,0.0,0.0,0.0,0.0,0.0,0.0,0.0,0.0,0.0,0.0,0.0,0.0,0.0,0.0,0.0,0.0,0.0,0.0,0.0,0.0,0.0,0.0,0.0,0.0,0.0,0.0,0.0,0.0,0.0,0.0,0.0,0.0,0.0,0.0,0.0,0.0,0.0,0.0,0.0,0.0,0.0,0.0,0.0,0.0,0.0,0.0,0.0,0.0,0.0,0.0,0.0,0.0,0.0,0.0,0.0,0.0,0.0,1.6585,1.6958,1.8179,1.8708,1.8972,1.8993,1.8321,1.788,1.786,1.6768,0.0,0.0,0.0,0.0,0.0,0.0,0.0,0.0,0.0,0.0,0.0,0.0,0.0,0.0,0.0,0.0,0.0,0.0,0.0,0.0,0.0,0.0,0.0,0.0,0.0,0.0,0.0,0.0,0.0,0.0,0.0,0.0,0.0,0.0,0.0,0.0,0.0,0.0,0.0,0.0,0.0,0.0,0.0,0.0,0.0,0.0,0.0,0.0,0.0,0.0,0.0,0.0,0.0,0.0,0.0,0.0,0.0,0.0,0.0,0.0,0.0,0.0,0.0,0.0,0.0,0.0,0.0,0.0,0.0,0.0,0.0,0.0,0.0,0.0,0.0,0.0,0.0,0.0,0.0,0.0,0.0,0.0,0.0,0.0,0.0,0.0,0.0,0.0,0.0,0.0,0.0,0.0,0.0,0.0,0.0,0.0,0.0,0.0,0.0,0.0,0.0,0.0,1.6863,1.7324,0.0,1.885,1.9169,1.9257,1.8654,1.8199,1.8023,0.0,0.0,0.0,0.0,0.0,0.0,0.0,0.0,0.0,0.0,0.0,0.0,0.0,0.0,0.0,0.0,0.0,0.0,0.0,0.0,0.0,0.0,0.0,0.0,0.0,0.0,0.0,0.0,0.0,0.0,0.0,0.0,0.0,0.0,0.0,0.0,0.0,0.0,0.0,0.0,0.0,0.0,0.0,0.0,0.0,0.0,0.0,0.0,0.0,0.0,0.0,0.0,0.0,0.0,0.0,0.0,0.0,0.0,0.0,0.0,0.0,0.0,0.0,0.0,0.0,0.0,0.0,0.0,0.0,0.0,0.0,0.0,0.0,0.0,0.0,0.0,0.0,0.0,0.0,0.0,0.0,0.0,0.0,0.0,0.0,0.0,0.0,0.0,0.0,0.0,0.0,0.0,0.0,0.0,0.0,0.0,0.0,0.0,0.0,0.0,0.0,0.0,1.6659,1.6971,1.7467,0.0,1.883,1.9128,1.9271,1.8599,1.8124,1.8023,0.0,0.0,0.0,0.0,0.0,0.0,0.0,0.0,0.0,0.0,0.0,0.0,0.0,0.0,0.0,0.0,0.0,0.0,0.0,0.0,0.0,0.0,0.0,0.0,0.0,0.0,0.0,0.0,0.0,0.0,0.0,0.0,0.0,0.0,0.0,0.0,0.0,0.0,0.0,0.0,0.0,0.0,0.0,0.0,0.0,0.0,0.0,0.0,0.0,0.0,0.0,0.0,0.0,0.0,0.0,0.0,0.0,0.0,0.0,0.0,0.0,0.0,0.0,0.0,0.0,0.0,0.0,0.0,0.0,0.0,0.0,0.0,0.0,0.0,0.0,0.0,0.0,0.0,0.0,0.0,0.0,0.0,0.0,0.0,0.0,0.0,0.0,0.0,0.0,0.0,0.0,0.0,0.0,0.0,0.0,0.0,0.0,0.0,0.0,0.0,0.0,0.0,1.6673,1.6883,1.7324,1.8213,1.8586,1.883,1.8972,1.8036,1.7555,0.0,0.0,0.0,0.0,0.0,0.0,0.0,0.0,0.0,0.0,0.0,0.0,0.0,0.0,0.0,0.0,0.0,0.0,0.0,0.0,0.0,0.0,0.0,0.0,0.0,0.0,0.0,0.0,0.0,0.0,0.0,0.0,0.0,0.0,0.0,0.0,0.0,0.0,0.0,0.0,0.0,0.0,0.0,0.0,0.0,0.0,0.0,0.0,0.0,0.0,0.0,0.0,0.0,0.0,0.0,0.0,0.0,0.0,0.0,0.0,0.0,0.0,0.0,0.0,0.0,0.0,0.0,0.0,0.0,0.0,0.0,0.0,0.0,0.0,0.0,0.0,0.0,0.0,0.0,0.0,0.0,0.0,0.0,0.0,0.0,0.0,0.0,0.0,0.0,0.0,0.0,0.0,0.0,0.0,0.0,0.0,0.0,0.0,0.0,0.0,0.0,0.0,0.0,1.6659,1.6788,1.7161,1.8057,1.8518,1.883,1.8972,1.8321,1.8807,2.0859,0.0,0.0,0.0,0.0,0.0,0.0,0.0,0.0,0.0,0.0,0.0,0.0,0.0,0.0,0.0,0.0,0.0,0.0,0.0,0.0,0.0,0.0,0.0,0.0,0.0,0.0,0.0,0.0,0.0,0.0,0.0,0.0,0.0,0.0,0.0,0.0,0.0,0.0,0.0,0.0,0.0,0.0,0.0,0.0,0.0,0.0,0.0,0.0,0.0,0.0,0.0,0.0,0.0,0.0,0.0,0.0,0.0,0.0,0.0,0.0,0.0,0.0,0.0,0.0,0.0,0.0,0.0,0.0,0.0,0.0,0.0,0.0,0.0,0.0,0.0,0.0,0.0,0.0,0.0,0.0,0.0,0.0,0.0,0.0,0.0,0.0,0.0,0.0,0.0,0.0,0.0,0.0,0.0,0.0,0.0,0.0,0.0,0.0,0.0,0.0,0.0,0.0,1.6653,1.67,1.7005,1.7901,1.8355,1.9136,2.0481,2.0132,2.0757,2.335,0.0,0.0,0.0,0.0,0.0,0.0,0.0,0.0,0.0,0.0,0.0,0.0,0.0,0.0,0.0,0.0,0.0,0.0,0.0,0.0,0.0,0.0,0.0,0.0,0.0,0.0,0.0,0.0,0.0,0.0,0.0,0.0,0.0,0.0,0.0,0.0,0.0,0.0,0.0,0.0,0.0,0.0,0.0,0.0,0.0,0.0,0.0,0.0,0.0,0.0,0.0,0.0,0.0,0.0,0.0,0.0,0.0,0.0,0.0,0.0,0.0,0.0,0.0,0.0,0.0,0.0,0.0,0.0,0.0,0.0,0.0,0.0,0.0,0.0,0.0,0.0,0.0,0.0,0.0,0.0,0.0,0.0,0.0,0.0,0.0,0.0,0.0,0.0,0.0,0.0,0.0,0.0,0.0,0.0,0.0,0.0,0.0,0.0,0.0,0.0,0.0,0.0,1.7064,1.7221,1.7474,1.8177,1.8783,2.0471,2.3513,2.2873,2.3296,2.5281,0.0,0.0,0.0,0.0,0.0,0.0,0.0,0.0,0.0,0.0,0.0,0.0,0.0,0.0,0.0,0.0,0.0,0.0,0.0,0.0,0.0,0.0,0.0,0.0,0.0,0.0,0.0,0.0,0.0,0.0,0.0,0.0,0.0,0.0,0.0,0.0,0.0,0.0,0.0,0.0,0.0,0.0,0.0,0.0,0.0,0.0,0.0,0.0,0.0,0.0,0.0,0.0,0.0,0.0,0.0,0.0,0.0,0.0,0.0,0.0,2.9833,0.0,0.0,0.0,0.0,0.0,0.0,0.0,0.0,0.0,0.0,0.0,0.0,0.0,0.0,0.0,0.0,0.0,0.0,0.0,0.0,0.0,0.0,0.0,0.0,0.0,0.0,0.0,0.0,0.0,0.0,0.0,0.0,0.0,0.0,0.0,0.0,0.0,0.0,0.0,0.0,0.0,2.011,2.1661,2.2337,2.145,2.3753,2.5815,2.6926,2.6309,2.6078,2.659,2.5603,0.0,0.0,0.0,0.0,0.0,0.0,0.0,0.0,0.0,0.0,0.0,0.0,0.0,0.0,0.0,0.0,0.0,0.0,0.0,0.0,0.0,0.0,0.0,0.0,0.0,0.0,0.0,0.0,0.0,0.0,0.0,0.0,0.0,0.0,0.0,0.0,0.0,0.0,0.0,0.0,0.0,0.0,0.0,0.0,0.0,0.0,0.0,0.0,0.0,0.0,0.0,0.0,0.0,0.0,0.0,0.0,0.0,0.0,0.0,0.0,3.0822,0.0,0.0,0.0,0.0,0.0,0.0,0.0,0.0,0.0,0.0,0.0,0.0,0.0,0.0,0.0,0.0,0.0,0.0,0.0,0.0,0.0,0.0,0.0,0.0,0.0,0.0,0.0,0.0,0.0,0.0,0.0,0.0,0.0,0.0,0.0,0.0,0.0,0.0,0.0,0.0,2.3212,2.4001,2.4635,2.4439,2.6045,2.8098,3.0246,2.829,2.7549,2.85,2.6525,0.0,0.0,0.0,0.0,0.0,0.0,0.0,0.0,0.0,0.0,0.0,0.0,0.0,0.0,0.0,0.0,0.0,0.0,0.0,0.0,0.0,0.0,0.0,0.0,0.0,0.0,0.0,0.0,0.0,0.0,0.0,0.0,0.0,0.0,0.0,0.0,0.0,0.0,0.0,0.0,0.0,0.0,0.0,0.0,0.0,0.0,0.0,0.0,0.0,0.0,0.0,0.0,0.0,0.0,0.0,3.5364,3.5645,3.5712,3.5485,3.3761,3.2265,3.1156,0.0,0.0,0.0,0.0,0.0,0.0,0.0,0.0,0.0,0.0,0.0,0.0,0.0,0.0,0.0,0.0,0.0,0.0,0.0,0.0,0.0,0.0,0.0,0.0,0.0,3.324,3.2679,0.0,0.0,0.0,0.0,0.0,0.0,0.0,0.0,0.0,0.0,0.0,0.0,2.616,2.6253,2.6723,2.7849,2.8459,3.021,3.3464,3.0578,2.9053,2.9968,2.7409,2.3842,0.0,0.0,0.0,0.0,0.0,0.0,0.0,0.0,0.0,0.0,0.0,0.0,0.0,0.0,0.0,0.0,0.0,0.0,0.0,0.0,0.0,0.0,0.0,0.0,0.0,0.0,0.0,0.0,0.0,0.0,0.0,0.0,4.1816,4.2285,0.0,0.0,0.0,0.0,0.0,0.0,0.0,0.0,0.0,0.0,0.0,0.0,0.0,0.0,4.1275,4.0916,3.8963,3.5217,3.5378,3.5631,3.5965,3.6259,3.6647,3.7088,3.6794,0.0,3.3774,3.348,0.0,0.0,0.0,0.0,0.0,0.0,0.0,0.0,0.0,0.0,0.0,0.0,0.0,0.0,0.0,0.0,0.0,0.0,0.0,0.0,0.0,0.0,3.2585,3.3,3.3414,3.3828,0.0,3.3814,3.3054,3.2617,0.0,0.0,0.0,0.0,0.0,0.0,0.0,0.0,2.9081,3.1135,3.2401,3.1433,3.3602,3.5676,3.6984,3.6249,3.3604,2.8754,2.7342,2.3964,1.8114,1.7231,0.0,0.0,0.0,0.0,0.0,0.0,0.0,0.0,0.0,0.0,0.0,0.0,0.0,0.0,0.0,0.0,0.0,0.0,0.0,0.0,0.0,0.0,0.0,0.0,0.0,0.0,0.0,0.0,0.0,4.3047,4.4219,4.3926,4.5625,4.6562,0.0,0.0,0.0,0.0,0.0,0.0,0.0,0.0,0.0,4.875,4.8614,4.7424,4.5708,4.4768,4.2755,3.9905,4.0387,4.0218,3.9052,3.9346,3.9706,4.008,3.9933,3.9159,3.7889,3.6126,3.507,3.4536,0.0,0.0,0.0,0.0,0.0,3.4389,3.4162,0.0,0.0,0.0,0.0,0.0,0.0,0.0,0.0,0.0,0.0,0.0,0.0,0.0,0.0,3.4937,3.5538,3.6126,3.6219,3.5672,3.4923,0.0,3.3641,3.3427,3.3694,0.0,0.0,0.0,0.0,3.296,3.262,3.3837,3.4927,3.5079,3.6223,3.7275,3.7996,3.4423,3.1192,2.8676,2.6192,2.2822,1.8246,1.9342,1.9272,0.0,0.0,0.0,0.0,0.0,0.0,0.0,0.0,0.0,0.0,0.0,0.0,0.0,0.0,0.0,0.0,0.0,0.0,0.0,0.0,0.0,0.0,0.0,0.0,0.0,0.0,0.0,0.0,4.4824,0.0,4.5137,4.7305,4.8359,0.0,0.0,0.0,0.0,0.0,0.0,4.9141,5.0449,5.1152,5.1152,5.0829,5.0272,4.9453,4.8948,4.7489,4.53,4.5553,4.4652,4.3027,4.2602,4.2405,4.2659,4.2445,4.2071,4.1376,3.8731,3.6941,3.5859,3.5631,3.5458,0.0,3.5404,3.5618,3.5859,3.5859,3.5899,3.5925,3.5725,0.0,3.5311,3.4629,0.0,0.0,0.0,0.0,3.5044,3.5257,0.0,3.6874,3.7048,3.7676,3.821,3.7996,3.7555,3.6767,0.0,3.4736,3.4429,3.4429,0.0,0.0,0.0,0.0,3.4215,3.5191,3.5698,3.6353,3.7382,3.7489,3.7702,3.8223,3.3833,3.0471,2.8844,2.6451,2.2909,1.8733,2.0492,2.0339,1.7487,0.0,0.0,0.0,0.0,0.0,0.0,0.0,0.0,0.0,0.0,0.0,0.0,0.0,0.0,0.0,0.0,0.0,0.0,0.0,0.0,0.0,0.0,0.0,0.0,0.0,0.0,0.0,0.0,0.0,4.5176,4.8359,0.0,0.0,0.0,0.0,4.9961,5.1113,5.1816,5.1894,5.3125,5.3828,5.3828,5.5259,5.5345,5.374,5.4724,5.3918,5.1482,4.8834,4.7641,4.7791,4.4812,4.3607,4.3928,4.3901,4.3714,4.3193,4.0548,3.9265,3.8865,3.7996,3.7823,3.7996,3.7448,3.7422,3.7555,3.6754,3.6647,3.7008,3.7823,3.825,3.833,3.7448,3.7382,0.0,0.0,3.6794,3.6794,3.6834,3.7301,3.7889,3.8464,3.9092,3.9493,3.9493,3.9239,3.8424,0.0,3.5311,3.4736,3.4736,0.0,3.4162,3.3921,3.4576,3.5231,3.5565,3.6353,3.7114,3.7742,3.7782,3.7929,3.8223,3.7994,3.5387,2.9283,2.8804,2.5807,1.92,1.8768,1.8514,1.8267,1.727,0.0,0.0,0.0,0.0,0.0,0.0,0.0,0.0,0.0,0.0,0.0,0.0,0.0,0.0,0.0,0.0,0.0,0.0,0.0,0.0,0.0,0.0,0.0,0.0,0.0,0.0,0.0,0.0,4.9101,5.1836,0.0,0.0,5.1973,5.2187,5.2617,5.334,5.4121,5.4941,5.6738,5.8008,5.8555,5.998,6.0631,6.0333,6.0592,5.9665,5.7053,5.3801,5.133,4.9375,4.5892,4.4476,4.4556,4.4556,4.4516,4.4302,4.3167,4.1857,4.0508,3.9786,3.9346,3.9092,3.8878,3.8985,3.9225,3.9092,3.9132,3.9159,3.8905,3.8504,3.8076,3.7742,3.7742,3.7782,3.7555,3.7635,3.7823,3.8036,3.8504,3.9012,3.9239,3.9746,4.0107,3.992,3.9773,3.9493,3.8758,3.7595,3.6647,3.6473,3.5899,3.5471,3.5565,3.5845,3.6206,3.6687,3.7342,3.7956,3.8357,3.8397,3.8437,3.8544,3.6474,3.3477,2.9118,2.8722,2.5524,1.9077,2.0531,2.0222,1.8023,1.7372,1.7107,0.0,0.0,0.0,0.0,0.0,0.0,0.0,0.0,0.0,0.0,0.0,0.0,0.0,0.0,0.0,0.0,0.0,0.0,0.0,0.0,0.0,0.0,0.0,0.0,0.0,0.0,5.0976,5.1973,5.4492,5.5879,5.5176,5.5234,5.5449,5.5742,5.6562,5.748,5.8496,6.0156,6.1367,6.1953,6.3086,6.3789,6.4082,6.4258,6.3573,6.1837,5.8207,5.5056,5.2057,4.8413,4.6115,4.5171,4.5171,4.5171,4.5171,4.4943,4.3995,4.2619,4.1924,4.135,4.0909,4.0909,4.0976,4.1082,4.1163,4.1136,4.0949,4.0254,3.9559,3.9012,3.9012,3.9012,3.9012,3.9012,3.9159,3.9346,3.9559,3.9893,4.0187,4.0187,4.0401,4.0575,4.0361,4.0254,4.0187,4.0187,3.9239,3.829,3.7889,3.7342,3.6981,3.7088,3.7195,3.7422,3.7929,3.8397,3.8758,3.8865,3.8865,3.8838,3.8731,3.6525,3.3649,3.0277,2.9651,2.6818,2.1394,2.2916,2.2456,1.9177,1.7794,1.7121,1.7114,0.0,0.0,0.0,0.0,0.0,0.0,0.0,0.0,0.0,0.0,0.0,0.0,0.0,0.0,0.0,0.0,0.0,0.0,0.0,0.0,0.0,0.0,0.0,4.707,5.0371,5.2969,5.3476,5.6172,5.75,5.6269,5.8086,5.9297,5.9297,6.0859,6.2012,6.2422,6.3281,6.375,6.375,6.4551,6.5,6.5,6.541,6.5644,6.5644,6.2264,5.8854,5.557,5.2165,4.8945,4.5785,4.5745,4.5745,4.5745,4.5745,4.5571,4.5237,4.4369,4.3861,4.3567,4.3567,4.338,4.306,4.2779,4.2485,4.2178,4.1897,4.1603,4.1376,4.1376,4.1376,4.1376,4.1376,4.1376,4.1376,4.1336,4.1336,4.1336,4.1336,4.1122,4.0909,4.0909,4.0695,4.0508,4.0481,4.004,3.9452,3.8865,3.8758,3.8651,3.833,3.8544,0.0,3.9118,3.9412,3.9493,3.9199,3.9159,3.9052,3.8758,3.8437,3.6575,3.276,3.1787,2.9577,2.5851,2.5841,2.4552,2.1748,1.8756,1.7044,1.6537,0.0,0.0,0.0,0.0,0.0,0.0,0.0,0.0,0.0,0.0,0.0,0.0,0.0,0.0,0.0,0.0,0.0,0.0,0.0,0.0,0.0,0.0,5.0547,5.0234,5.2734,5.5332,5.7344,5.9414,6.0781,6.1074,6.1894,6.2461,6.2461,6.3437,6.4082,6.4238,6.5058,6.5527,6.5527,6.6055,6.6348,6.6348,6.6465,6.668,6.6972,6.3545,6.0062,5.6688,5.3198,4.978,4.636,4.6146,4.6079,4.6039,4.5825,4.5705,4.5571,4.5131,4.477,4.4476,4.4262,4.3861,4.338,4.3314,4.31,4.2806,4.2512,4.2365,4.2258,4.2031,4.2111,4.2218,4.179,4.1817,4.1884,4.1456,4.1336,4.1336,4.1336,4.1269,4.1229,4.1229,4.1163,4.1056,4.0842,4.0655,4.0361,3.9773,3.9666,3.9559,3.9279,3.9306,0.0,3.9452,3.9559,3.9559,3.9493,3.9493,3.9346,3.9052,3.8183,3.6039,3.1958,3.0539,2.8599,2.5162,2.5152,2.4881,2.4334,2.1466,1.9998,0.0,0.0,0.0,0.0,0.0,0.0,0.0,0.0,0.0,0.0,0.0,0.0,0.0,0.0,0.0,0.0,0.0,0.0,0.0,0.0,0.0,0.0,5.2207,5.4199,5.4844,5.5937,5.7617,6.0215,6.1719,6.2871,6.373,6.4375,6.4726,6.4726,6.5351,6.582,6.5996,6.6504,6.6855,6.7031,6.7265,6.7441,6.7441,6.7441,6.7558,6.7773,6.5639,6.2254,5.7384,5.5259,5.1384,0.0,4.6266,4.6119,4.5999,4.5825,4.5745,0.0,0.0,0.0,0.0,0.0,4.4436,4.3888,4.3888,4.3634,4.3233,4.31,4.2953,4.2806,4.2472,4.2619,4.2739,4.2298,4.2365,4.2512,4.2178,4.2004,4.1897,4.1897,4.171,4.1523,4.1523,4.1416,4.1269,4.0976,4.0909,0.0,4.0294,4.0214,4.0147,4.0,3.996,3.996,3.996,3.996,3.992,3.9786,3.9786,3.9666,3.9372,3.825,0.0,0.0,0.0,3.0358,2.8346,2.7207,0.0,0.0,0.0,2.3117,2.3044,0.0,0.0,0.0,1.7938,1.6585,0.0,0.0,0.0,0.0,0.0,0.0,0.0,0.0,0.0,0.0,0.0,0.0,0.0,0.0,0.0,0.0,5.4902,5.7793,5.998,5.9687,6.0098,6.2363,6.3398,6.4258,6.5058,6.5879,6.6387,6.6445,6.6797,6.7168,0.0,0.0,0.0,0.0,0.0,6.8301,6.8301,6.8301,6.8359,6.8418,6.8418,6.4638,5.7631,5.7598,5.3357,4.6373,4.6306,4.6119,4.5852,4.5812,4.5785,4.5745,4.5745,4.5745,4.5705,4.5451,4.5024,0.0,0.0,0.0,0.0,4.3634,4.342,4.31,4.2846,4.2953,4.31,4.2806,4.2913,4.3127,4.31,4.2913,4.2699,4.2659,4.2258,4.1857,4.1857,4.163,4.135,4.1056,4.0976,4.0869,4.0588,4.0508,4.0481,4.0481,4.0481,4.0481,4.0481,4.0481,4.0361,4.0107,0.0,0.0,3.9666,3.8544,3.7489,3.662,3.4937,3.3761,3.3253,3.0809,3.0022,3.0708,2.795,2.6472,2.6484,2.6089,2.5985,2.6354,2.0799,1.8308,0.0,0.0,0.0,0.0,0.0,0.0,0.0,0.0,0.0,0.0,0.0,0.0,0.0,0.0,0.0,5.6172,5.8359,6.0566,6.3105,6.3613,6.3906,6.4375,6.4902,6.5547,6.6406,6.6972,6.7383,6.7773,6.789,6.7969,6.8066,6.8359,0.0,6.8691,6.9043,6.9219,6.9219,6.9219,6.9394,6.9746,0.0,0.0,5.9133,5.882,5.4801,4.7562,4.7094,4.6734,4.644,4.6186,4.5972,4.5745,4.5745,4.5745,4.5745,4.5678,4.5451,4.5131,4.5131,4.477,4.4249,4.4249,4.3888,4.342,4.338,4.338,0.0,4.31,4.3207,4.338,4.3167,4.306,4.2953,4.2726,4.2592,4.2445,4.2178,4.2071,4.1964,4.167,4.1416,4.1163,4.0869,4.0615,4.0481,4.0481,4.0481,4.0481,4.0481,4.0481,4.0441,4.0401,4.0401,4.0254,3.996,3.8878,3.7782,3.6901,3.5431,3.4643,3.4763,3.4177,3.4124,3.4411,3.1638,3.0245,3.0199,2.8188,2.7125,2.7031,2.521,2.4298,0.0,0.0,0.0,0.0,0.0,0.0,0.0,0.0,0.0,0.0,0.0,5.1582,0.0,0.0,5.6973,5.9121,6.1484,6.3555,6.5058,6.6035,6.6387,6.5937,6.6113,6.6582,6.7441,6.7734,6.8008,6.8476,6.8515,6.8691,6.9121,6.9336,6.957,6.9746,6.9961,7.0078,7.0078,7.0078,7.0195,7.043,7.043,6.7601,6.2076,5.9929,5.5792,5.0232,4.8022,4.6814,4.6373,4.6079,4.5892,4.5745,4.5745,4.5745,4.5745,4.5745,4.5558,4.5318,4.5318,4.4917,4.4436,4.4436,4.4142,4.3741,4.3567,4.3634,4.3714,4.338,4.3527,4.3741,4.3607,4.342,4.3273,4.3127,4.2873,4.2619,4.2472,4.2325,4.2138,4.1857,4.167,4.1416,4.0989,4.0802,4.0655,4.0508,4.0481,4.0481,4.0481,4.0481,4.0481,4.0481,4.0481,4.0401,4.0254,3.9159,3.8103,3.7235,3.634,3.5925,3.6059,3.6072,3.6206,3.65,3.4875,3.4132,3.4271,3.2932,3.2261,3.2237,3.1856,2.8996,0.0,0.0,0.0,0.0,0.0,0.0,0.0,0.0,5.1699,5.2207,5.334,5.4707,5.6269,5.832,6.0273,6.1719,6.4199,6.6172,6.6738,6.7832,6.8301,6.7676,6.7383,6.7617,6.8476,6.8535,6.8769,6.9277,6.9336,6.9629,7.043,7.0449,7.0664,7.1074,7.1015,7.1055,7.123,7.1133,7.1133,7.123,7.1133,6.865,6.3895,6.144,5.7164,5.1699,4.8462,4.6707,4.6253,4.5892,4.5745,4.5745,4.5745,4.5745,4.5745,4.5745,4.5598,4.5384,4.5384,4.505,4.4623,4.4663,4.4409,4.4035,4.3861,4.3888,4.3968,4.3714,4.3861,4.4075,4.4008,4.3861,4.3674,4.3567,4.3167,4.2806,4.2699,4.2472,4.2218,4.1924,4.1817,4.1644,4.1163,4.1016,4.0869,4.0508,4.0508,4.0548,4.0548,4.0548,4.0548,4.0548,4.0508,4.0441,4.0401,3.9519,3.8651,3.7863,3.7529,3.7422,3.7448,3.7342,3.7448,3.7823,3.7529,3.7515,3.7823,3.7555,3.7105,3.6797,3.6862,3.2786,6.1157,5.6754,0.0,5.1902,5.1307,5.084,0.0,0.0,5.4473,5.5273,5.6465,5.7656,5.8652,6.0566,6.2695,6.4726,6.6328,6.7715,6.8926,6.9551,6.998,7.0254,6.9277,6.8926,6.9805,6.9863,7.0215,7.1015,7.1074,7.1308,7.1758,7.1777,7.1992,7.2461,7.2051,7.2226,7.3027,7.2637,7.2637,7.3027,7.2637,6.8705,6.1787,6.3581,5.889,4.874,4.7404,4.6627,4.652,4.5972,4.5745,4.5745,4.5745,4.5745,4.5745,4.5745,4.5705,4.5705,4.5705,4.5491,4.5237,4.5531,4.505,4.4436,4.4663,4.4409,4.4008,4.3968,4.4142,4.4329,4.4075,4.4182,4.4182,4.3674,4.3487,4.3273,4.2766,4.2632,4.2512,4.2218,4.1964,4.175,4.171,4.1456,4.1122,4.0548,4.0695,4.0869,4.0869,4.0869,4.0869,4.0869,4.0615,4.0361,4.0107,3.996,3.9746,3.9386,3.9092,3.9012,3.9306,3.8798,3.8798,3.9346,3.9052,3.9052,3.9346,3.9306,3.7734,3.4631,3.4857,3.5243,6.2504,0.0,0.0,0.0,5.7488,5.857,5.7489,5.8847,6.0097,5.8878,5.959,6.1035,6.293,6.4199,6.5605,0.0,6.8711,6.9453,6.9785,7.039,7.0722,7.039,7.0097,7.0254,7.1133,7.1191,7.1465,7.2109,7.2129,7.2344,7.2754,7.2754,7.2851,7.3027,7.2851,7.293,7.332,7.3144,7.3144,7.332,7.291,7.0812,6.7392,6.3599,5.6711,4.7575,4.6907,4.6627,4.6587,4.5999,4.5852,4.5999,4.5825,4.5745,4.5745,4.5745,4.5745,4.5745,4.5745,4.5558,4.5318,4.5237,4.4984,4.469,4.4623,4.4583,4.4476,4.4289,4.4329,4.4369,4.4075,4.4075,4.4115,4.3861,4.3674,4.3461,4.3207,4.302,4.2846,4.2552,4.2365,4.2191,4.1857,4.167,4.1456,4.1056,4.1082,4.1163,4.1163,4.1163,4.1096,4.0949,4.0655,4.0441,4.0294,4.0294,4.0254,4.0107,4.0,3.9001,3.7364,3.8883,3.8138,3.4415,3.5875,3.5815,3.4185,3.3794,3.2936,3.1644,3.1731,3.2223,6.4181,0.0,0.0,6.135,6.3798,6.5763,6.4251,6.4786,6.5238,6.3655,6.3582,6.4258,6.6387,6.7324,0.0,6.9746,7.0722,7.1172,7.084,7.125,7.1191,7.0215,7.0254,7.0664,7.1406,7.1777,7.2285,7.2988,7.3047,7.3222,7.3672,7.3672,7.3672,7.3672,7.3555,7.3555,7.3672,7.3555,7.3555,7.3672,7.3144,7.2126,7.0583,6.2211,5.5436,5.0172,4.7696,4.6734,4.6694,4.6186,4.6106,4.6293,4.5972,4.5852,4.5852,4.5785,4.5745,4.5745,4.5745,4.5598,4.5384,4.509,4.4984,4.4917,4.4543,4.465,4.481,4.4516,4.4543,4.4623,4.4329,4.4262,4.4262,4.4262,4.3928,4.3674,4.3674,4.342,4.3127,4.2846,4.2726,4.2512,4.2111,4.1964,4.1817,4.1603,4.159,4.1563,4.1483,4.1456,4.135,4.1056,4.0842,4.0722,4.0722,4.0722,4.0194,3.9343,3.9343,3.7801,3.4244,3.649,3.5497,3.0522,3.259,3.2471,3.027,2.9863,2.9283,2.8538,2.8538,2.8048,0.0,0.0,6.6244,6.7774,6.8676,6.967,7.0932,6.9724,6.8803,7.0436,6.8571,6.7031,6.7949,6.916,7.0273,7.1191,7.2051,7.2637,7.2637,7.2226,7.1523,7.0254,6.9726,6.9668,0.0,7.125,7.2519,7.3847,7.3906,7.414,7.4531,7.4551,7.4551,7.4551,7.414,7.414,7.4551,7.414,7.414,7.4531,7.3711,7.1239,6.7422,5.8244,5.556,5.7635,5.02,4.7068,4.7028,4.6734,4.6587,4.6587,4.6293,4.6186,4.6146,4.5852,4.5745,4.5745,4.5745,4.5745,4.5678,4.5384,4.5318,4.5197,4.4623,4.465,4.481,4.4516,4.4837,4.5211,4.4917,4.485,4.485,4.485,4.4409,4.3995,4.3995,4.3741,4.342,4.3127,4.2846,4.2659,4.2632,4.2405,4.2218,4.2178,4.2178,4.2071,4.1817,4.1777,4.167,4.135,4.131,4.131,4.131,4.131,3.9679,3.6357,3.6086,3.4483,3.0791,3.0761,3.075,3.0522,3.0502,3.0502,3.0522,3.0492,2.877,2.5525,2.5525,2.3936,0.0,0.0,7.3008,7.4639,7.6835,7.8426,7.759,7.7956,7.7476,7.3271,7.1477,7.0042,6.8167,6.8301,6.9219,7.0332,7.1758,7.2695,7.2695,7.2793,7.1992,6.9512,6.9629,0.0,0.0,0.0,0.0,7.3379,7.3789,7.4258,7.498,7.5,7.5156,7.541,7.5,7.4883,7.5,7.4883,7.4707,7.459,7.373,7.084,6.6286,6.2975,5.9166,5.4925,5.2066,4.9457,4.7068,4.6961,4.6921,4.6881,4.6587,4.648,4.644,4.6146,4.6039,4.5999,4.5825,4.5745,4.5705,4.5424,4.5451,4.5531,4.5131,4.5237,4.5384,4.509,4.5171,4.5237,4.4957,4.4877,4.4877,4.4877,4.4583,4.4289,4.4289,4.4035,4.3754,4.3461,4.3314,4.3127,4.2739,4.2592,4.2445,4.2258,4.2218,4.2178,4.2071,4.1897,4.175,4.1644,4.1456,4.1336,4.1336,4.1336,4.0788,3.9653,3.7221,3.4313,3.0995,3.0603,2.852,2.4039,2.6044,2.6027,2.3787,2.3787,2.3298,2.2301,2.2301,2.1519,0.0,7.5301,7.8515,8.0173,8.296,8.5075,8.4026,8.3956,8.2726,7.7996,7.4576,7.1555,6.8995,6.7296,6.709,6.9277,7.0449,7.1523,7.2754,7.2617,7.1543,6.9316,6.9101,0.0,0.0,0.0,0.0,7.2676,7.3262,7.3906,7.4707,7.5215,7.5508,7.5644,7.5683,7.5625,7.5449,7.5293,7.4863,7.414,7.3594,7.1478,6.7703,6.6296,6.2489,5.7228,5.4351,5.1681,4.9315,4.7821,4.7215,4.7175,4.6881,4.6734,4.6587,4.6293,4.6119,4.5999,4.5812,4.5745,4.5705,4.5424,4.5491,4.5678,4.5277,4.5424,4.5678,4.5384,4.5318,4.5277,4.5211,4.5024,4.4917,4.5024,4.473,4.4436,4.4436,4.4222,4.3901,4.3594,4.3447,4.3233,4.2739,4.2592,4.2445,4.2258,4.2218,4.2218,4.2218,4.2044,4.1924,4.1924,4.1777,4.167,4.167,4.167,4.1104,3.9712,3.7416,3.3949,2.9336,2.8884,2.6027,2.0546,2.2532,2.2532,2.0539,2.0539,2.0539,2.0539,2.0594,2.0627,7.613,7.957,8.2457,8.4165,8.66,8.886,8.9865,8.7475,8.4586,8.3941,7.7253,7.113,0.0,0.0,6.4258,6.8066,6.8476,6.9512,7.2871,7.1933,7.0547,0.0,0.0,0.0,0.0,0.0,0.0,7.1816,0.0,7.3047,7.4023,7.5234,7.5703,7.5332,7.6094,7.6269,7.5879,7.541,7.459,7.332,7.332,7.2637,7.1387,6.7703,6.5803,6.4894,5.7581,5.4079,5.3204,4.931,4.7807,4.7469,4.7175,4.6881,4.6627,4.6293,4.5999,4.5785,4.5745,4.5745,4.5705,4.5424,4.5531,4.5638,4.509,4.5318,4.5678,4.5424,4.5344,4.5384,4.5678,4.5344,4.4984,4.5237,4.4877,4.4476,4.4436,4.4222,4.3901,4.3594,4.3273,4.2993,4.2739,4.2432,4.2218,4.2258,4.2258,4.2218,4.2218,4.2218,4.2218,4.2218,4.2218,4.2218,4.2218,4.2218,4.0782,3.7179,3.639,3.3098,2.66,2.5651,2.3803,2.0539,2.0539,2.0539,2.0539,2.0539,2.056,2.056,2.0716,2.079,8.0248,8.3311,8.5922,8.7605,8.9187,9.0266,9.0116,8.9585,8.7311,8.0296,7.5705,7.0969,0.0,0.0,0.0,6.6055,6.8769,0.0,7.3496,7.3437,0.0,0.0,0.0,7.0508,6.9687,6.9805,0.0,0.0,7.2285,7.3105,7.5293,7.5703,7.6113,7.668,7.6562,7.6269,7.5879,7.5117,7.4258,7.332,7.332,7.2793,7.1816,7.0653,6.8503,6.5601,6.3511,5.9251,5.3516,5.2831,5.04,4.7469,4.7175,4.7028,4.6881,4.6373,4.6146,4.6039,4.5825,4.5745,4.5745,4.5665,4.5678,4.5705,4.5571,4.5638,4.5745,4.5665,4.5638,4.5638,4.5705,4.5638,4.5491,4.5344,4.5024,4.469,4.4476,4.4222,4.3901,4.3594,4.3127,4.2806,4.2953,4.2552,4.2365,4.2806,4.2512,4.2218,4.2218,4.2218,4.2218,4.2218,4.2218,4.2218,4.2218,4.2218,4.1925,4.0808,3.5737,3.192,3.0075,2.4698,2.1294,2.0539,2.0539,2.0539,2.0539,2.0668,2.0716,2.0716,2.0878,2.0946,8.3562,8.6349,8.8534,8.9714,9.0844,9.1271,8.9714,8.9262,8.6733,7.8126,7.3481,0.0,0.0,0.0,0.0,0.0,0.0,0.0,7.3789,7.4082,7.3672,0.0,7.2812,0.0,7.1875,7.1816,7.2402,0.0,0.0,7.3437,7.5469,7.5937,7.6387,7.6855,7.6836,7.6504,7.5879,7.5215,7.4355,7.332,7.332,7.2851,7.1992,7.1758,7.0497,6.853,0.0,6.1971,5.6418,5.4497,5.121,4.7642,4.7241,4.6988,4.6814,4.6373,4.6119,4.5972,4.5812,4.5745,4.5745,4.5745,4.5745,4.5745,4.5745,4.5745,4.5745,4.5745,4.5638,4.5598,4.5705,4.5638,4.5491,4.5197,4.509,4.4917,4.4369,4.4222,4.4035,4.3461,4.306,4.2873,4.2913,4.2726,4.2726,4.306,4.2806,4.2619,4.2619,4.2472,4.2365,4.2218,4.2325,4.2365,4.2218,4.2218,4.1445,4.0136,3.5875,3.2309,2.9153,2.5049,2.2113,2.0539,2.0539,2.0573,2.0648,2.0736,2.0811,2.0878,2.1021,2.1089,8.6349,8.8785,9.0542,9.102,9.1898,9.1898,8.8885,8.7303,8.4304,7.6332,0.0,6.5371,6.043,0.0,5.8594,6.289,0.0,6.9394,7.4023,7.4414,7.4375,7.4707,7.4433,7.4199,7.4199,7.3887,7.418,7.539,7.4472,7.4297,7.5332,7.6094,7.6504,7.6601,7.6914,7.6738,7.5976,7.5469,7.4648,7.3496,7.3379,7.2871,7.2109,7.2012,7.1992,7.1661,0.0,0.0,5.9942,5.5685,5.1603,4.7816,4.7282,4.6921,4.6627,4.6306,4.6039,4.5785,4.5745,4.5745,4.5745,4.5745,4.5745,4.5745,4.5745,4.5745,4.5745,4.5745,4.5558,4.5424,4.5678,4.5558,4.5318,4.5024,4.5131,4.509,4.4249,4.4182,4.4075,4.3314,4.3127,4.302,4.2806,4.2953,4.3127,4.3207,4.3127,4.31,4.3127,4.2913,4.2619,4.2365,4.2512,4.231,4.1524,4.1445,4.0136,3.6488,3.5736,3.2423,2.639,2.5445,2.3761,2.0594,2.0594,2.0668,2.0811,2.0824,2.0912,2.1055,2.1177,2.1245,8.876,9.0794,9.2149,9.225,9.2802,9.2149,8.8032,8.5847,0.0,0.0,6.6575,6.2239,5.5325,5.5828,0.0,6.2519,0.0,0.0,0.0,0.0,7.5586,0.0,0.0,0.0,0.0,0.0,0.0,0.0,0.0,0.0,0.0,7.6445,7.668,7.707,7.6777,7.6562,7.6387,7.5625,7.4941,7.4355,7.3672,7.3047,7.2578,7.2168,7.1992,7.1992,0.0,0.0,5.9907,5.889,5.436,4.7535,4.7215,4.7028,4.6921,4.6373,4.6146,4.6079,4.5825,4.5745,4.5745,4.5745,4.5745,4.5745,4.5745,4.5745,4.5745,4.5745,4.5705,4.5678,4.5745,4.5705,4.5598,4.5318,4.5277,4.5131,4.4503,4.3995,4.3634,4.3487,4.3273,4.3167,4.334,4.3207,4.3273,4.3781,4.342,4.3167,4.342,4.3207,4.2993,4.2953,4.2766,4.1595,3.8655,3.8168,3.6512,3.2862,2.9818,2.7631,2.6319,2.3342,2.145,2.0912,2.0912,2.0933,2.0967,2.1068,2.1211,2.1367,2.1387,2.1475,8.7957,9.0252,9.2652,9.2903,9.2551,9.0718,8.542,0.0,0.0,0.0,6.1508,5.8062,5.2994,0.0,0.0,0.0,0.0,0.0,0.0,0.0,0.0,0.0,0.0,0.0,0.0,0.0,0.0,0.0,0.0,0.0,0.0,7.6972,7.6972,7.7187,7.6738,7.6504,7.6504,7.5625,7.5,7.459,7.3965,7.332,7.2695,7.2461,7.2226,7.1992,7.1777,0.0,6.009,5.9725,5.4907,4.7682,4.7241,4.7068,4.6988,4.6413,4.6186,4.6146,4.5852,4.5745,4.5745,4.5745,4.5745,4.5745,4.5745,4.5745,4.5745,4.5745,4.5745,4.5745,4.5745,4.5745,4.5678,4.5384,4.509,4.4837,4.469,4.4182,4.3781,4.3781,4.3674,4.3607,4.3754,4.3674,4.3781,4.4369,4.3968,4.3674,4.3968,4.2113,4.0757,4.0221,4.0318,3.8615,3.5053,3.4413,3.2998,2.9246,2.7435,2.5804,2.3792,2.192,2.1068,2.1001,2.1001,2.1068,2.1231,2.1299,2.1441,2.1672,2.1597,2.1597,8.7252,8.9776,9.2802,9.2978,9.1798,8.8935,8.2708,7.762,0.0,0.0,5.8191,5.5535,5.2047,0.0,0.0,0.0,0.0,0.0,0.0,0.0,0.0,0.0,0.0,0.0,0.0,0.0,0.0,0.0,0.0,0.0,0.0,7.7422,7.7187,7.7187,7.6836,7.666,7.666,7.5859,7.5293,7.4883,7.4355,7.3691,7.2969,7.2754,7.2519,7.2109,7.1699,0.0,0.0,5.948,5.4733,4.7896,4.7428,4.7215,4.7094,4.652,4.6293,4.6226,4.5852,4.5745,4.5745,4.5745,4.5745,4.5745,4.5745,4.5745,4.5745,4.5745,4.5745,4.5745,4.5745,4.5745,4.5678,4.5451,4.5024,4.469,4.4917,4.4556,4.4182,4.4182,4.4182,4.4182,4.4182,4.4182,4.4329,4.481,4.4476,4.4262,4.4396,4.0964,3.8203,3.6958,3.6809,3.5077,3.1463,3.0888,2.9506,2.5721,2.5818,2.4446,2.1319,2.1285,2.1231,2.1143,2.1143,2.1265,2.153,2.153,2.1672,2.1937,2.1781,2.1726,9.0146,9.1834,9.3078,9.2149,9.0693,8.7705,8.1102,0.0,0.0,6.1734,5.901,5.7011,5.2374,0.0,0.0,0.0,0.0,6.3613,0.0,0.0,0.0,0.0,0.0,0.0,0.0,0.0,0.0,0.0,0.0,0.0,0.0,0.0,7.7187,7.7187,7.7148,7.7129,7.7129,7.6621,7.6152,7.5762,7.4941,7.4297,7.3847,7.3047,7.2695,7.2578,0.0,0.0,0.0,5.9992,5.5413,4.7936,4.7856,4.7682,4.7388,4.6801,4.6587,4.6507,4.5932,4.5745,4.5745,4.5745,4.5745,4.5745,4.5745,4.5745,4.5745,4.5745,4.5745,4.5745,4.5745,4.5745,4.5745,4.5705,4.5451,4.5237,4.5277,4.5024,4.481,4.481,4.481,4.481,4.481,4.481,4.481,4.4877,4.4837,4.4703,4.4476,4.1126,3.7711,3.3939,3.329,3.1699,2.7984,2.7561,2.5932,2.2624,2.2257,2.1913,2.1638,2.1496,2.1475,2.1604,2.1618,2.1686,2.1848,2.1848,2.1937,2.2093,2.1937,2.1862,8.6836,9.0111,9.2727,9.1974,8.9538,8.5847,8.0173,0.0,6.9142,6.091,5.7819,5.5492,5.1988,5.1855,5.2695,5.4258,5.5078,5.7344,0.0,0.0,0.0,0.0,0.0,0.0,0.0,0.0,0.0,0.0,0.0,0.0,0.0,0.0,7.748,7.7187,7.7187,7.7187,7.7187,7.6504,7.6035,7.5879,7.5,7.4375,7.3965,7.3613,7.3164,7.2695,0.0,0.0,0.0,6.3252,5.8644,5.1253,5.1052,4.9538,4.7455,4.7028,4.6881,4.6841,4.64,4.6146,4.5999,4.5999,4.5892,4.5745,4.5745,4.5745,4.5745,4.5745,4.5745,4.5745,4.5745,4.5745,4.5705,4.5531,4.5384,4.5318,4.5318,4.509,4.4917,4.5104,4.4984,4.4957,4.5104,4.4984,4.4984,4.5344,4.5104,4.4917,4.4943,3.9563,3.5255,3.3676,3.1077,2.8175,2.4428,2.4104,2.3519,2.1882,2.1916,2.1903,2.1794,2.174,2.174,2.1794,2.1706,2.1794,2.2025,2.1937,2.195,2.2113,2.195,2.1882,8.258,8.626,8.9171,8.8587,8.5571,8.1437,0.0,0.0,6.557,5.8995,5.6408,5.4379,5.1794,5.1426,5.1621,5.2226,5.2148,5.373,5.8672,6.0215,0.0,0.0,0.0,0.0,0.0,0.0,0.0,0.0,0.0,0.0,0.0,0.0,7.7949,7.7422,7.7246,7.7187,7.7187,7.6445,7.5996,7.5879,7.5117,7.4551,7.414,7.4023,7.3555,7.2871,0.0,0.0,0.0,6.5619,6.0986,5.362,5.3396,5.0966,4.7469,4.7175,4.7068,4.7028,4.6734,4.648,4.6293,4.6226,4.6106,4.5959,4.5785,4.5745,4.5745,4.5745,4.5745,4.5745,4.5745,4.5745,4.5705,4.5491,4.5451,4.5451,4.5451,4.5277,4.5197,4.5384,4.5277,4.5211,4.5424,4.5277,4.5277,4.5678,4.5384,4.5171,4.5318,3.955,3.5204,3.389,3.0065,2.6341,2.2517,2.2201,2.2147,2.2079,2.2093,2.2079,2.2025,2.1937,2.1916,2.2025,2.1882,2.1916,2.2181,2.2072,2.2079,2.2181,2.2072,2.1991,7.8072,7.9944,8.1112,8.1067,7.8123,7.4145,0.0,0.0,6.1965,5.6231,5.5115,5.4379,5.1794,5.1426,5.1445,5.1445,5.2519,5.4844,5.918,6.0898,0.0,0.0,0.0,0.0,0.0,0.0,0.0,0.0,0.0,0.0,0.0,0.0,7.8691,7.7832,7.7422,7.7187,7.7187,7.6738,7.6269,7.5879,7.541,7.5,7.459,7.414,7.373,0.0,0.0,0.0,0.0,6.6322,6.1611,5.3994,5.3994,5.1367,4.7469,4.7175,4.7068,4.7028,4.6734,4.6627,4.6587,4.6293,4.6373,4.6507,4.5932,4.5745,4.5745,4.5745,4.5745,4.5745,4.5745,4.5745,4.5745,4.5745,4.5745,4.5745,4.5745,4.5745,4.5745,4.5745,4.5745,4.5745,4.5745,4.5745,4.5745,4.5745,4.5745,4.5638,4.5344,4.2217,3.8225,3.4114,3.0512,2.6847,2.284,2.2411,2.2391,2.2534,2.2269,2.2181,2.2323,2.2038,2.2025,2.2323,2.2181,2.2181,2.2337,2.2337,2.2337,2.2337,2.2337,2.2249,7.167,7.4561,7.6331,7.4629,7.2225,6.9403,6.6597,0.0,0.0,5.6041,5.5094,5.4379,5.1794,5.1426,5.1914,5.3418,5.3984,5.5156,5.7676,0.0,0.0,0.0,0.0,0.0,0.0,0.0,0.0,0.0,0.0,0.0,0.0,0.0,0.0,7.7832,7.7695,7.748,7.7187,7.6445,7.5996,7.5879,7.5117,7.4707,7.459,7.4472,0.0,0.0,0.0,0.0,0.0,6.9972,6.69,6.2125,6.1629,5.8774,5.5219,5.2169,5.1371,5.0938,4.8144,4.7215,4.7175,4.6881,4.6694,4.6587,4.64,4.6226,4.5999,4.5812,4.5745,4.5745,4.5745,4.5745,4.5745,4.5745,4.5745,4.5745,4.5745,4.5745,4.5745,4.5745,4.5745,4.5745,4.5745,4.5745,4.5745,4.5745,4.3494,4.1751,4.169,3.634,3.184,3.0641,2.6998,2.4387,2.273,2.2676,2.2656,2.271,2.2622,2.2588,2.2642,2.2554,2.2534,2.2642,2.2391,2.2344,2.2479,2.2289,2.2181,2.2181,2.2079,2.195,0.0,6.697,6.8549,6.7229,6.5326,0.0,0.0,0.0,0.0,0.0,5.3638,5.3275,5.16,5.1426,5.1875,5.3242,5.3594,5.4531,5.6875,0.0,0.0,0.0,0.0,0.0,0.0,0.0,0.0,0.0,0.0,0.0,0.0,0.0,0.0,7.8066,7.7773,7.748,7.7187,7.6328,7.5879,7.5879,7.5,7.4531,7.4375,7.4531,0.0,0.0,0.0,0.0,0.0,7.1719,6.9256,6.5966,6.5041,6.2468,5.8676,5.6158,5.426,5.3011,5.0331,4.8605,4.7455,4.7175,4.6801,4.648,4.6587,4.6413,4.6119,4.5825,4.5745,4.5745,4.5745,4.5745,4.5745,4.5745,4.5745,4.5745,4.5745,4.5745,4.5745,4.5745,4.5745,4.5745,4.5745,4.5852,4.5315,4.3795,4.1608,3.9686,3.8278,3.3983,3.0584,2.9242,2.6658,2.456,2.2961,2.2907,2.2873,2.2873,2.2818,2.2798,2.2873,2.2818,2.2784,2.2784,2.2554,2.2432,2.2466,2.2289,2.2201,2.2201,2.2038,2.1916,0.0,5.7969,0.0,0.0,0.0,0.0,0.0,0.0,0.0,0.0,0.0,5.1445,5.1465,5.1445,5.1484,5.1641,5.2031,5.3476,5.6836,0.0,0.0,0.0,0.0,0.0,0.0,0.0,0.0,0.0,0.0,0.0,0.0,0.0,0.0,0.0,7.7597,7.7187,7.7187,7.6328,7.5879,7.5879,7.5,7.4375,7.4023,7.4375,0.0,0.0,0.0,0.0,0.0,7.1992,6.9794,6.6295,6.5895,6.3277,5.9586,5.8929,5.6339,5.3097,5.2758,5.026,4.7495,4.7175,4.6734,4.6333,4.6587,4.6413,4.6119,4.5825,4.5745,4.5745,4.5745,4.5745,4.5745,4.5745,4.5745,4.5745,4.5745,4.5745,4.5745,4.5745,4.5745,4.5745,4.5745,4.5972,4.4644,4.0716,4.0034,3.8794,3.4829,3.4083,3.2348,2.9126,2.8714,2.7197,2.3499,2.3097,2.3029,2.3029,2.2886,2.2873,2.3029,2.2886,2.2818,2.2798,2.2642,2.2479,2.2337,2.2337,2.2337,2.2337,2.2181,2.2113,5.0723,0.0,5.3945,5.2734,5.2051,5.1719,0.0,0.0,0.0,0.0,0.0,5.1523,5.1875,5.166,5.1973,5.3652,5.4277,5.541,5.789,0.0,0.0,0.0,0.0,0.0,0.0,0.0,0.0,0.0,0.0,0.0,0.0,0.0,0.0,0.0,7.748,7.7187,7.7187,7.6328,7.5879,7.5879,7.5,7.4531,7.4433,7.4199,0.0,0.0,0.0,0.0,7.1992,7.1992,7.135,7.0398,7.0228,6.748,6.3682,6.0238,5.6585,5.3114,4.9877,4.8484,4.7789,4.7495,4.7322,4.7175,4.6988,4.644,4.5825,4.5785,4.5745,4.5745,4.5745,4.5745,4.5745,4.5745,4.5745,4.5745,4.5745,4.5745,4.5745,4.5745,4.5745,4.5745,4.5745,4.5812,4.4423,4.068,3.7795,3.4829,3.0852,2.8092,2.5834,2.4891,2.4848,2.4207,2.3225,2.3185,2.3171,2.3171,2.313,2.313,2.3171,2.313,2.3063,2.2961,2.2696,2.2479,2.2337,2.2337,2.2337,2.2337,2.2181,2.2113,4.8867,4.9883,5.0723,4.9805,4.957,4.9746,0.0,0.0,0.0,0.0,0.0,0.0,5.1738,0.0,0.0,5.3262,5.418,0.0,0.0,0.0,0.0,0.0,0.0,0.0,0.0,0.0,0.0,0.0,0.0,0.0,0.0,0.0,0.0,0.0,0.0,7.6855,7.6855,7.6211,7.5762,7.5566,7.4883,7.4492,7.4316,7.4258,0.0,0.0,0.0,0.0,7.1992,7.1992,7.1992,7.1953,7.1543,7.0247,6.7883,6.3189,5.941,5.5637,5.1531,4.8971,4.7709,4.7535,4.7322,4.7068,4.6921,4.6333,4.5785,4.5892,4.5852,4.5745,4.5745,4.5852,4.5932,4.5785,4.5852,4.5892,4.5785,4.5745,4.5745,4.5745,4.5745,4.5785,4.5932,4.5959,4.4566,4.1014,3.7461,3.3603,2.9975,2.5975,2.3646,2.3558,2.3483,2.3381,2.3239,2.3219,2.3219,2.3219,2.3219,2.3219,2.3219,2.3219,2.3117,2.2907,2.2608,2.2411,2.2337,2.2337,2.2337,2.2337,2.2323,2.2269,4.9023,4.9101,4.9101,4.8906,4.8906,4.918,0.0,0.0,0.0,0.0,0.0,0.0,0.0,0.0,0.0,0.0,0.0,0.0,0.0,0.0,0.0,0.0,0.0,0.0,0.0,0.0,0.0,0.0,0.0,0.0,0.0,0.0,0.0,0.0,0.0,7.6445,7.6328,7.5937,7.5586,7.5215,7.4824,7.4414,7.4082,7.4297,7.3789,0.0,0.0,0.0,7.1992,7.1992,7.1992,7.1953,7.1601,7.1156,6.9957,6.5513,6.1577,5.765,5.3701,4.9978,4.7495,4.7455,4.7135,4.6734,4.6654,4.6253,4.5932,4.6119,4.5999,4.5825,4.5825,4.5999,4.6119,4.5852,4.5972,4.6079,4.5852,4.5785,4.5745,4.5745,4.5785,4.5892,4.6146,4.6226,4.4929,4.1407,3.7754,3.3836,3.0268,2.6132,2.3734,2.368,2.3558,2.3415,2.3239,2.3219,2.3219,2.3219,2.3219,2.3219,2.3219,2.3205,2.3063,2.2818,2.252,2.2378,2.2411,2.2378,2.2391,2.2411,2.2534,2.252,4.9766,5.0234,5.0234,4.9141,4.9141,4.9551,0.0,0.0,0.0,0.0,0.0,0.0,0.0,0.0,0.0,0.0,0.0,0.0,0.0,0.0,0.0,0.0,0.0,0.0,0.0,0.0,0.0,0.0,0.0,0.0,0.0,0.0,0.0,0.0,0.0,7.6152,7.541,7.5351,7.5273,7.5215,7.4824,7.4551,7.4472,7.3828,7.3418,0.0,0.0,7.2109,7.1992,7.1992,7.1992,7.1992,7.1933,6.9927,6.6677,6.2265,5.8101,5.4113,4.9891,4.8064,4.7455,4.7215,4.7241,4.7282,4.6774,4.6547,4.644,4.6253,4.6146,4.6119,4.6119,4.6146,4.6186,4.6119,4.5972,4.5852,4.6079,4.5932,4.5745,4.5745,4.5932,4.6146,4.6186,4.64,4.5416,4.143,3.7895,3.3981,3.0268,2.6318,2.3965,2.3714,2.3666,2.3524,2.3239,2.3219,2.3219,2.3219,2.3219,2.3219,2.3219,2.3097,2.3029,2.2974,2.2676,2.2588,2.271,2.2588,2.2588,2.271,2.273,2.273,4.9355,4.9609,4.9726,4.9609,4.9902,0.0,0.0,0.0,0.0,0.0,0.0,0.0,0.0,0.0,0.0,0.0,0.0,0.0,0.0,0.0,0.0,0.0,0.0,0.0,0.0,0.0,0.0,0.0,0.0,0.0,0.0,0.0,0.0,0.0,0.0,0.0,7.4883,7.4648,7.4531,7.4531,7.4121,7.3906,7.3887,7.3496,7.3203,7.2969,0.0,7.2344,7.2344,7.2109,7.2168,7.2344,7.2109,7.0863,6.8498,6.2057,5.7229,5.3085,4.9026,4.7495,4.7469,4.7348,4.7282,4.7215,4.6948,4.6734,4.6587,4.648,4.6293,4.6186,4.6186,4.6413,4.6627,4.648,4.644,4.644,4.644,4.6333,4.6226,4.6226,4.6333,4.648,4.6627,4.6627,4.616,4.4727,3.9239,3.4928,3.333,2.7896,2.4033,2.3822,2.3734,2.3592,2.3361,2.3273,2.3219,2.3219,2.3219,2.3219,2.3219,2.3083,2.3008,2.3008,2.2798,2.271,2.2784,2.271,2.271,2.2784,2.2873,2.2907,4.9101,4.9238,4.9453,0.0,0.0,0.0,0.0,0.0,0.0,0.0,0.0,0.0,0.0,0.0,0.0,0.0,0.0,0.0,0.0,0.0,0.0,0.0,0.0,0.0,0.0,0.0,0.0,0.0,0.0,0.0,0.0,0.0,0.0,0.0,0.0,0.0,7.4472,7.4023,7.3808,7.3789,7.3496,7.332,7.332,7.3203,7.2988,7.2695,7.2578,7.2519,7.2519,7.2168,7.2226,7.2461,7.2051,7.1176,6.9452,6.23,5.6911,5.2759,4.8806,4.7388,4.7469,4.7348,4.7241,4.7135,4.6988,4.6841,4.6694,4.6654,4.652,4.6373,4.6293,4.6627,4.6921,4.6774,4.6841,4.6921,4.6774,4.6667,4.6627,4.6627,4.6694,4.6801,4.7028,4.6921,4.6988,4.7428,4.0614,3.5608,3.58,2.8807,2.4066,2.391,2.3788,2.366,2.347,2.3347,2.3259,2.3219,2.3219,2.3219,2.3219,2.3117,2.3063,2.3063,2.2907,2.2852,2.2886,2.2852,2.2852,2.2886,2.3008,2.3063,4.9863,5.0371,5.0586,0.0,0.0,0.0,0.0,0.0,0.0,0.0,0.0,0.0,0.0,0.0,0.0,0.0,0.0,0.0,0.0,0.0,0.0,0.0,0.0,0.0,0.0,0.0,0.0,0.0,0.0,0.0,0.0,0.0,0.0,0.0,0.0,0.0,7.4023,7.3555,7.3379,7.3379,7.332,7.332,7.332,7.291,7.2734,7.2695,7.2226,7.2051,7.2051,7.1992,7.1992,7.1992,7.1601,6.8958,6.4645,6.0347,5.6371,5.2404,4.8242,4.7054,4.7428,4.6881,4.7028,4.7348,4.6801,4.6841,4.6988,4.6694,4.6801,4.6948,4.6654,4.6627,4.6734,4.6961,4.6841,4.6734,4.6988,4.6814,4.6627,4.6627,4.6841,4.7028,4.7068,4.7282,4.7455,4.7495,4.0764,3.58,3.582,2.8807,2.4066,2.391,2.3877,2.3768,2.347,2.3436,2.3381,2.3239,2.3219,2.3219,2.3219,2.3205,2.3205,2.3205,2.3063,2.3063,2.3185,2.3063,2.3063,2.3185,2.3205,2.3205,4.9258,4.9687,0.0,0.0,0.0,0.0,0.0,0.0,0.0,0.0,0.0,0.0,0.0,0.0,0.0,0.0,0.0,0.0,0.0,0.0,0.0,0.0,0.0,0.0,0.0,0.0,0.0,0.0,0.0,0.0,0.0,0.0,0.0,0.0,0.0,0.0,0.0,7.3027,7.2793,7.25,7.25,7.25,7.2461,7.2051,7.2012,7.2226,7.1777,7.1933,7.2402,7.2109,7.1992,7.1642,6.8719,6.6585,6.4553,6.0074,5.7667,5.5905,5.1433,4.8647,4.6907,4.6694,4.6907,4.7175,4.6961,4.7094,4.7282,4.6988,4.6988,4.7028,4.6921,4.7028,4.7201,4.7322,4.7241,4.7201,4.7322,4.7241,4.7175,4.7175,4.7241,4.7322,4.7322,4.7428,4.7495,4.7495,4.2961,3.8903,3.6142,3.1256,2.6847,2.4337,2.3944,2.3802,2.3612,2.3592,2.3524,2.3381,2.3273,2.3219,2.3219,2.3219,2.3219,2.3219,2.3171,2.3171,2.3219,2.3171,2.3171,2.3219,2.3219,2.3219,4.8457,4.8672,0.0,0.0,0.0,0.0,0.0,0.0,0.0,0.0,0.0,0.0,0.0,0.0,0.0,0.0,0.0,0.0,0.0,0.0,0.0,0.0,0.0,0.0,0.0,0.0,0.0,0.0,0.0,0.0,0.0,0.0,0.0,0.0,0.0,0.0,0.0,7.2402,7.2109,7.1777,7.166,7.1719,7.1992,7.1543,7.1543,7.1777,7.1484,7.1719,7.2226,7.1933,7.1001,6.9186,6.4697,6.2978,6.2391,5.792,5.7228,5.7484,5.1931,4.9156,4.7966,4.6772,4.6734,4.7068,4.7068,4.7282,4.7455,4.7241,4.7215,4.7215,4.7215,4.7282,4.7388,4.7469,4.7495,4.7495,4.7495,4.7495,4.7495,4.7495,4.7495,4.7495,4.7495,4.7495,4.7495,4.7495,4.4438,4.0971,3.7889,3.3301,2.864,2.4412,2.4033,2.391,2.3754,2.3754,2.368,2.3537,2.3381,2.3273,2.3219,2.3219,2.3219,2.3219,2.3219,2.3219,2.3219,2.3219,2.3219,2.3219,2.3219,2.3219,4.7598,0.0,0.0,0.0,0.0,0.0,0.0,0.0,0.0,0.0,0.0,0.0,0.0,0.0,0.0,0.0,0.0,0.0,0.0,0.0,0.0,0.0,0.0,0.0,0.0,0.0,0.0,0.0,0.0,0.0,0.0,0.0,0.0,0.0,0.0,0.0,0.0,7.1777,7.1367,7.1367,7.0898,7.1172,7.1992,7.1543,7.1367,7.1367,7.1367,7.1367,7.1347,7.1347,6.8366,6.3691,6.0126,5.8315,5.7082,5.3259,5.4148,5.6243,4.8345,4.8514,5.1124,4.7346,4.6587,4.7068,4.7068,4.7282,4.7495,4.7495,4.7495,4.7495,4.7495,4.7282,4.7135,4.7428,4.7495,4.7495,4.7495,4.7495,4.7495,4.7495,4.7495,4.7495,4.7495,4.7495,4.7495,4.7495,4.4275,4.1664,4.1652,3.4934,2.8511,2.4717,2.4121,2.4066,2.391,2.389,2.3843,2.37,2.3537,2.3381,2.3219,2.3219,2.3219,2.3219,2.3219,2.3219,2.3219,2.3219,2.3219,2.3219,2.3219,2.3219,4.8476,0.0,0.0,0.0,0.0,0.0,0.0,0.0,0.0,0.0,0.0,0.0,0.0,0.0,0.0,0.0,0.0,0.0,0.0,0.0,0.0,0.0,0.0,0.0,0.0,0.0,0.0,0.0,0.0,0.0,0.0,0.0,0.0,0.0,0.0,0.0,0.0,7.0742,7.0605,7.0898,7.0781,7.084,7.1074,7.0664,7.0625,7.0898,7.0605,6.9229,6.6967,6.3913,6.0361,5.6292,5.4952,5.403,5.3568,5.2191,5.2386,5.2928,5.0374,4.8504,4.732,4.618,4.6146,4.648,4.6694,4.6948,4.7241,4.7428,4.7495,4.7495,4.7495,4.7428,4.7388,4.7469,4.7495,4.7495,4.7495,4.7495,4.7495,4.7495,4.7495,4.7495,4.7495,4.7495,4.7495,4.7495,4.6798,4.5152,4.2201,3.5043,2.9677,2.8511,2.5873,2.41,2.4053,2.4053,2.3999,2.3843,2.37,2.3537,2.3395,2.3273,2.3219,2.3219,2.3219,2.3273,2.3381,2.3273,2.3273,2.3381,2.3273,2.3219,0.0,0.0,0.0,0.0,0.0,0.0,0.0,0.0,0.0,0.0,0.0,0.0,0.0,0.0,0.0,0.0,0.0,0.0,0.0,0.0,0.0,0.0,0.0,0.0,0.0,0.0,0.0,0.0,0.0,0.0,0.0,0.0,0.0,0.0,0.0,0.0,6.8233,6.7494,6.7324,6.7722,6.7741,6.6902,6.5811,6.7301,6.793,6.7968,6.6162,6.4302,6.245,5.8203,5.4999,5.241,5.0852,4.9764,4.9449,4.9277,5.0007,5.1303,4.9504,4.8377,4.7589,4.628,4.5932,4.6226,4.64,4.6667,4.6948,4.7241,4.7322,4.7348,4.7469,4.7575,4.7642,4.7535,4.7575,4.7642,4.7535,4.7602,4.7642,4.7535,4.7495,4.7535,4.7642,4.7682,4.7709,4.7829,4.7896,4.6458,4.2633,3.7705,3.3482,3.0267,2.7935,2.5873,2.4128,2.4121,2.4087,2.3978,2.3843,2.3714,2.3626,2.3361,2.3259,2.3307,2.3307,2.3327,2.3361,2.3395,2.3381,2.3361,2.3327,2.3273,0.0,0.0,0.0,0.0,0.0,0.0,0.0,0.0,0.0,0.0,0.0,0.0,0.0,0.0,0.0,0.0,0.0,0.0,0.0,0.0,0.0,0.0,0.0,0.0,0.0,0.0,0.0,0.0,0.0,0.0,0.0,0.0,0.0,0.0,0.0,0.0,6.3888,6.3026,6.2631,0.0,6.2797,6.116,5.8232,6.2216,6.4014,6.3369,5.9381,5.7772,5.7811,5.3955,5.1821,5.0999,4.7526,4.5999,4.5745,4.5745,4.7848,4.9957,4.6813,4.7862,4.9972,4.6799,4.5932,4.6146,4.6186,4.6373,4.6654,4.6948,4.7028,4.7135,4.7388,4.7682,4.7816,4.7575,4.7709,4.7856,4.7575,4.7709,4.7856,4.7562,4.7535,4.7602,4.7856,4.7896,4.7976,4.8257,4.8083,4.6759,4.3202,4.2094,3.875,3.1471,3.0284,2.8511,2.4412,2.4121,2.4121,2.4121,2.3978,2.389,2.391,2.349,2.3327,2.347,2.347,2.3415,2.3273,2.3558,2.3537,2.3273,2.3395,2.3361,0.0,0.0,0.0,0.0,0.0,0.0,0.0,0.0,0.0,0.0,0.0,0.0,0.0,0.0,0.0,0.0,0.0,0.0,0.0,0.0,0.0,0.0,0.0,0.0,0.0,0.0,0.0,0.0,0.0,0.0,0.0,0.0,0.0,0.0,0.0,5.8353,5.955,5.8739,5.8503,0.0,5.9162,5.8757,5.7945,5.9209,5.9515,5.9094,5.5225,5.3495,5.3298,4.9467,4.7856,4.7264,4.6476,4.5999,4.5745,4.5745,4.628,4.6799,4.6019,4.6293,4.6799,4.6019,4.5785,4.5892,4.6119,4.6226,4.6333,4.6627,4.6881,4.7068,4.7135,4.7388,4.7575,4.7495,4.7709,4.7856,4.7575,4.7709,4.7856,4.7562,4.7682,4.7789,4.7602,4.7602,4.7602,4.7682,4.7829,4.7635,4.6746,4.3862,3.9965,3.5485,3.2114,2.8511,2.4412,2.4121,2.4121,2.4121,2.3978,2.3944,2.4066,2.3754,2.3592,2.3626,2.3626,2.3666,2.3754,2.37,2.3646,2.3578,2.3483,2.3361,0.0,0.0,0.0,0.0,0.0,0.0,0.0,0.0,0.0,0.0,0.0,0.0,0.0,0.0,0.0,0.0,0.0,0.0,0.0,0.0,0.0,0.0,0.0,0.0,0.0,0.0,0.0,0.0,0.0,0.0,0.0,0.0,0.0,0.0,5.2806,5.3176,5.4968,5.4561,5.4292,5.4482,5.483,5.3995,5.2565,5.461,5.4336,5.2505,5.0141,4.9218,4.9085,4.7056,4.6106,4.5972,4.5972,4.5892,4.5745,4.5745,4.5745,4.5745,4.5745,4.5745,4.5745,4.5745,4.5745,4.5785,4.5932,4.5972,4.6039,4.6333,4.652,4.6707,4.6988,4.7282,4.7495,4.7495,4.7709,4.7856,4.7575,4.7709,4.7856,4.7562,4.7722,4.7896,4.7722,4.7829,4.7976,4.811,4.815,4.819,4.8337,4.6195,4.3358,3.9381,3.5356,3.115,2.7335,2.5292,2.4121,2.4121,2.4121,2.4141,2.4229,2.4155,2.3999,2.3788,2.3788,2.3788,2.3788,2.3856,2.3822,2.368,2.3666,2.3537,0.0,0.0,0.0,0.0,0.0,0.0,0.0,0.0,0.0,0.0,0.0,0.0,0.0,0.0,0.0,0.0,0.0,0.0,0.0,0.0,0.0,0.0,0.0,0.0,0.0,0.0,0.0,0.0,0.0,0.0,0.0,0.0,0.0,4.7696,4.6988,4.7953,5.0835,5.0279,4.9957,4.9957,5.055,4.926,4.6533,4.9778,4.9502,4.652,4.5972,4.5892,4.6079,4.5852,4.5745,4.5745,4.5745,4.5745,4.5745,4.5745,4.5745,4.5745,4.5745,4.5745,4.5745,4.5745,4.5745,4.5745,4.5745,4.5745,4.5785,4.6039,4.6146,4.6306,4.6841,4.7215,4.7428,4.7495,4.7682,4.7789,4.7535,4.7709,4.7856,4.7562,4.7682,4.7856,4.7856,4.811,4.8377,4.8551,4.8417,4.8377,4.8631,4.819,4.6092,4.1435,3.8018,3.4077,2.9398,2.588,2.4121,2.4121,2.4263,2.4351,2.4351,2.4494,2.4385,2.4019,2.4019,2.3944,2.3802,2.4033,2.4012,2.3714,2.3843,2.3748,0.0,0.0,0.0,0.0,0.0,0.0,0.0,0.0,0.0,0.0,0.0,0.0,0.0,0.0,0.0,0.0,0.0,0.0,0.0,0.0,0.0,0.0,0.0,0.0,0.0,0.0,0.0,0.0,0.0,0.0,0.0,0.0,4.8132,4.6801,4.6694,4.6785,4.7043,4.6703,4.628,4.628,4.6852,4.6739,4.6266,4.678,4.6766,4.6226,4.5892,4.5785,4.5812,4.5745,4.5745,4.5745,4.5745,4.5745,4.5745,4.5745,4.5745,4.5745,4.5745,4.5745,4.5745,4.5745,4.5745,4.5745,4.5745,4.5745,4.5745,4.5785,4.5999,4.6266,4.6587,4.6921,4.7175,4.7428,4.7535,4.7535,4.7495,4.7709,4.7856,4.7562,4.7535,4.7562,4.7562,4.7789,4.7936,4.7709,4.7856,4.8003,4.8043,4.7749,4.4725,3.7896,3.6254,3.2905,2.5583,2.4412,2.4121,2.4121,2.4263,2.4351,2.4351,2.4494,2.4528,2.4473,2.4473,2.4406,2.4263,2.4297,2.4155,2.3856,2.3877,2.3802,0.0,0.0,0.0,0.0,0.0,0.0,0.0,0.0,0.0,0.0,0.0,0.0,0.0,0.0,0.0,0.0,0.0,0.0,0.0,0.0,0.0,0.0,0.0,0.0,0.0,0.0,0.0,0.0,0.0,0.0,0.0,4.9695,4.7201,4.6627,4.648,4.6333,4.6186,4.5892,4.5745,4.5745,4.5892,4.5932,4.5932,4.5932,4.5932,4.5932,4.5812,4.5745,4.5745,4.5745,4.5745,4.5745,4.5745,4.5745,4.5745,4.5745,4.5745,4.5745,4.5745,4.5745,4.5745,4.5745,4.5745,4.5745,4.5745,4.5745,4.5745,4.5745,4.5852,4.6039,4.6507,4.6734,4.6921,4.7388,4.7495,4.7495,4.7495,4.7602,4.7709,4.7749,4.7749,4.7749,4.7749,4.7856,4.7896,4.7749,4.7856,4.8003,4.815,4.7936,4.6328,4.3214,4.0624,3.6694,3.1142,2.8519,2.6512,2.425,2.4385,2.4507,2.4596,2.4738,2.4826,2.4826,2.465,2.4528,2.4473,2.4385,2.4277,2.4141,2.4066,2.3944,0.0,0.0,0.0,0.0,0.0,0.0,0.0,0.0,0.0,0.0,0.0,0.0,0.0,0.0,0.0,0.0,0.0,0.0,0.0,0.0,0.0,0.0,0.0,0.0,0.0,0.0,0.0,0.0,0.0,0.0,5.1655,4.8715,4.6774,4.64,4.6266,4.6146,4.6079,4.5852,4.5745,4.5745,4.5745,4.5745,4.5745,4.5745,4.5745,4.5745,4.5745,4.5745,4.5745,4.5745,4.5745,4.5745,4.5745,4.5745,4.5745,4.5745,4.5745,4.5745,4.5745,4.5745,4.5745,4.5745,4.5745,4.5745,4.5745,4.5745,4.5745,4.5745,4.5785,4.5972,4.648,4.6694,4.6881,4.7388,4.7495,4.7495,4.7495,4.7495,4.7575,4.7856,4.7936,4.7963,4.8043,4.8043,4.8043,4.8043,4.7963,4.8003,4.823,4.8003,4.7529,4.6354,4.2636,3.8728,3.4652,3.0856,2.7396,2.4284,2.446,2.4616,2.4724,2.4914,2.5023,2.5023,2.4792,2.467,2.4616,2.4473,2.4385,2.4351,2.4229,2.41,0.0,0.0,0.0,0.0,0.0,0.0,0.0,0.0,0.0,0.0,0.0,0.0,0.0,0.0,0.0,0.0,0.0,0.0,0.0,0.0,0.0,0.0,0.0,0.0,0.0,0.0,0.0,0.0,0.0,0.0,4.7212,4.664,4.6373,4.5812,4.6039,4.6039,4.5785,4.5745,4.5745,4.5745,4.5745,4.5745,4.5745,4.5745,4.5745,4.5745,4.5745,4.5745,4.5745,4.5745,4.5745,4.5745,4.5745,4.5745,4.5745,4.5745,4.5745,4.5745,4.5745,4.5745,4.5745,4.5745,4.5745,4.5745,4.5745,4.5745,4.5745,4.5745,4.5932,4.6226,4.6547,4.6841,4.7135,4.7428,4.7495,4.7495,4.7495,4.7495,4.7575,4.7856,4.7936,4.8003,4.8297,4.8337,4.8337,4.8337,4.811,4.7936,4.7963,4.7709,4.6069,4.2552,3.8449,3.4642,3.0553,2.6757,2.4426,2.4141,2.4406,2.4562,2.4582,2.486,2.5023,2.5023,2.5003,2.4935,2.4772,2.4636,2.4473,2.4351,2.4351,2.4263,0.0,0.0,0.0,0.0,0.0,0.0,0.0,0.0,0.0,0.0,0.0,0.0,0.0,0.0,0.0,0.0,0.0,0.0,0.0,0.0,0.0,0.0,0.0,0.0,0.0,0.0,0.0,0.0,0.0,0.0,4.9838,4.7677,4.6146,4.5745,4.5852,4.5852,4.5745,4.5745,4.5745,4.5745,4.5558,4.5558,4.5745,4.5558,4.5451,4.5491,4.5678,4.5745,4.5745,4.5745,4.5745,4.5745,4.5745,4.5745,4.5745,4.5745,4.5745,4.5745,4.5745,4.5745,4.5745,4.5745,4.5745,4.5745,4.5745,4.5745,4.5785,4.5972,4.6119,4.6293,4.6774,4.6988,4.7135,4.7428,4.7495,4.7495,4.7495,4.7495,4.7575,4.7856,4.8083,4.8257,4.8377,4.8524,4.8591,4.8417,4.811,4.7126,4.4633,4.3985,4.2288,3.8341,3.6787,3.436,3.0267,2.8921,2.696,2.4694,2.4596,2.4758,2.4847,2.4969,2.5023,2.5023,2.5023,2.4982,2.4935,2.4792,2.4684,2.4629,2.4528,2.446,5.1133,0.0,0.0,0.0,0.0,0.0,0.0,0.0,0.0,0.0,0.0,0.0,0.0,0.0,0.0,0.0,0.0,0.0,0.0,0.0,0.0,0.0,0.0,0.0,0.0,0.0,0.0,0.0,0.0,0.0,5.1528,4.7951,4.5959,4.5745,4.5745,4.5745,4.5745,4.5745,4.5745,4.5745,4.5558,4.5491,4.5598,4.5384,4.5277,4.5171,4.5465,4.5598,4.5598,4.5705,4.5745,4.5745,4.5745,4.5745,4.5745,4.5745,4.5745,4.5745,4.5745,4.5745,4.5745,4.5745,4.5745,4.5745,4.5745,4.5745,4.5812,4.6119,4.6266,4.644,4.6948,4.7135,4.7241,4.7455,4.7495,4.7535,4.7602,4.7642,4.7722,4.8003,4.8337,4.8551,4.8671,4.8845,4.8885,4.8551,4.7072,4.5177,4.2697,4.0875,3.8935,3.6235,3.4955,3.2804,3.0454,2.9099,2.7141,2.4852,2.4704,2.4847,2.4935,2.5036,2.5091,2.5091,2.5145,2.5165,2.5165,2.4914,2.4826,2.486,2.4704,2.4636,0.0,0.0,0.0,0.0,0.0,0.0,0.0,0.0,0.0,0.0,0.0,0.0,0.0,0.0,0.0,0.0,0.0,0.0,0.0,0.0,0.0,0.0,0.0,0.0,0.0,0.0,0.0,0.0,0.0,5.1513,5.1513,4.7757,4.5745,4.5745,4.5745,4.5745,4.5745,4.5745,4.5745,4.5745,4.5745,4.5598,4.5318,4.5318,4.5171,4.4917,4.5197,4.5318,4.5318,4.5638,4.5745,4.5745,4.5745,4.5745,4.5745,4.5745,4.5745,4.5745,4.5745,4.5745,4.5745,4.5745,4.5745,4.5745,4.5745,4.5745,4.5825,4.6119,4.64,4.6694,4.6988,4.7282,4.7495,4.7495,4.7495,4.7575,4.7856,4.7936,4.8043,4.8337,4.8631,4.8911,4.9219,4.9286,4.9165,4.8565,4.5286,4.2439,4.2134,3.836,3.5929,3.5863,3.262,3.0238,3.0238,2.6671,2.4562,2.4562,2.4724,2.4792,2.4806,2.507,2.5233,2.5233,2.5389,2.5464,2.5464,2.5023,2.488,2.5023,2.486,2.4792,5.0625,0.0,0.0,0.0,0.0,0.0,0.0,0.0,0.0,0.0,0.0,0.0,0.0,0.0,0.0,0.0,0.0,0.0,0.0,0.0,0.0,0.0,0.0,0.0,0.0,0.0,0.0,0.0,5.9156,5.4885,5.4885,4.8976,4.5745,4.5745,4.5745,4.5745,4.5745,4.5745,4.5745,4.5745,4.5531,4.5491,4.5598,4.5197,4.5064,4.5197,4.5277,4.5197,4.5024,4.5531,4.5745,4.5745,4.5745,4.5745,4.5745,4.5745,4.5745,4.5745,4.5745,4.5745,4.5745,4.5745,4.5745,4.5745,4.5745,4.5892,4.6079,4.6159,4.656,4.7028,4.7322,4.7428,4.7495,4.7495,4.7495,4.7575,4.7856,4.811,4.8337,4.8631,4.8738,4.8911,4.9219,4.9286,4.828,4.4958,4.3655,4.0614,3.4933,3.2956,3.0822,2.8316,2.7034,2.6065,2.6065,2.5267,2.4724,2.4724,2.488,2.5003,2.5111,2.5199,2.5287,2.5389,2.5443,2.5518,2.562,2.5287,2.5125,2.5159,2.5023,2.4894,5.1074,5.0937,5.1016,0.0,0.0,0.0,0.0,0.0,0.0,0.0,0.0,0.0,0.0,0.0,0.0,0.0,0.0,0.0,0.0,0.0,0.0,0.0,0.0,0.0,0.0,0.0,0.0,0.0,5.9487,5.5006,5.2108,4.7876,4.5745,4.5745,4.5745,4.5745,4.5745,4.5745,4.5745,4.5745,4.5571,4.5531,4.5558,4.5211,4.509,4.5131,4.5277,4.5211,4.509,4.5558,4.5678,4.5571,4.5705,4.5745,4.5745,4.5745,4.5745,4.5745,4.5745,4.5745,4.5745,4.5745,4.5745,4.5745,4.5745,4.5852,4.6039,4.6146,4.6627,4.7108,4.7282,4.7388,4.7535,4.7642,4.7682,4.7789,4.8217,4.8444,4.8021,4.6662,4.6508,4.6018,4.4397,4.4099,4.336,4.0614,3.8766,3.6092,3.1294,2.9122,2.7078,2.525,2.4894,2.486,2.4935,2.4969,2.4969,2.4969,2.5057,2.5145,2.5233,2.5355,2.5464,2.5552,2.562,2.562,2.5606,2.541,2.5301,2.5233,2.5091,2.4969,5.1426,5.1191,5.1406,5.3281,0.0,0.0,5.2637,5.2226,0.0,0.0,0.0,0.0,0.0,0.0,0.0,0.0,0.0,0.0,0.0,0.0,0.0,0.0,0.0,0.0,0.0,0.0,6.4493,6.1854,5.7886,5.2879,4.5992,4.5745,4.5745,4.5745,4.5705,4.5705,4.5745,4.5705,4.5705,4.5745,4.5745,4.5598,4.5344,4.5318,4.5197,4.4984,4.5211,4.5277,4.5277,4.5598,4.5598,4.5384,4.5638,4.5745,4.5745,4.5745,4.5745,4.5745,4.5745,4.5745,4.5745,4.5745,4.5745,4.5745,4.5745,4.5785,4.5852,4.6186,4.6627,4.7028,4.7108,4.7322,4.7575,4.7856,4.7936,4.8083,4.8698,4.8805,4.7606,4.3135,4.2741,4.1971,3.7739,3.7134,3.6692,3.5962,3.2956,3.0589,2.9978,2.6708,2.4772,2.5159,2.5213,2.5267,2.543,2.5301,2.5213,2.5247,2.5247,2.5247,2.5287,2.5552,2.5694,2.5708,2.5817,2.5742,2.5477,2.5464,2.5355,2.5199,2.507,2.5023,5.1426,5.1621,0.0,0.0,0.0,0.0,5.1094,5.1406,0.0,0.0,0.0,0.0,0.0,0.0,0.0,0.0,0.0,0.0,0.0,0.0,0.0,0.0,0.0,0.0,0.0,0.0,5.9227,6.1338,5.5535,5.0242,4.6019,4.5745,4.5745,4.5745,4.5531,4.5491,4.5745,4.5531,4.5531,4.5745,4.5745,4.5705,4.5638,4.5424,4.5424,4.5558,4.5384,4.5171,4.4997,4.5531,4.5705,4.5678,4.5705,4.5745,4.5745,4.5745,4.5745,4.5745,4.5745,4.5745,4.5745,4.5745,4.5745,4.5745,4.5745,4.5932,4.6226,4.6734,4.6801,4.6801,4.7282,4.7455,4.7575,4.7856,4.7936,4.8083,4.8698,4.8805,4.6777,3.974,4.1038,4.1971,3.7739,3.7134,3.5855,3.2607,3.1492,2.9717,2.6267,2.5454,2.4969,2.5057,2.5057,2.5125,2.5267,2.5145,2.5159,2.541,2.5301,2.5335,2.5586,2.5654,2.5742,2.5864,2.5776,2.5708,2.564,2.5389,2.5199,2.5057,2.5036,2.5023,0.0,0.0,0.0,5.2676,0.0,0.0,0.0,5.0957,0.0,0.0,0.0,0.0,0.0,0.0,0.0,0.0,0.0,0.0,0.0,0.0,0.0,0.0,0.0,0.0,0.0,0.0,5.5782,5.5749,5.1058,4.7214,4.5505,4.5384,4.5384,4.5531,4.5237,4.5171,4.5318,4.5318,4.5384,4.5531,4.5678,4.5745,4.5745,4.5598,4.5598,4.5745,4.5598,4.5451,4.5344,4.5638,4.5665,4.5531,4.5678,4.5745,4.5745,4.5745,4.5745,4.5745,4.5745,4.5745,4.5745,4.5745,4.5745,4.5745,4.5745,4.5852,4.6039,4.6333,4.64,4.652,4.6948,4.7175,4.7388,4.7816,4.7936,4.8083,4.8698,4.7183,4.3866,3.8134,3.6872,3.564,3.1527,3.0952,3.0285,2.8005,2.7831,2.7287,2.5106,2.486,2.4989,2.5213,2.5233,2.5321,2.5552,2.5443,2.5423,2.5566,2.5498,2.5532,2.5688,2.5762,2.583,2.5905,2.5694,2.5586,2.5566,2.5267,2.5125,2.5125,2.5057,2.5023,0.0,0.0,0.0,0.0,0.0,5.291,0.0,0.0,0.0,5.0527,0.0,0.0,0.0,0.0,0.0,0.0,0.0,0.0,0.0,0.0,0.0,0.0,0.0,0.0,0.0,0.0,5.2553,4.9168,4.6224,4.481,4.5211,4.5024,4.4984,4.5211,4.4957,4.481,4.4877,4.5064,4.5171,4.5237,4.5451,4.5598,4.5665,4.5665,4.5705,4.5745,4.5678,4.5638,4.5571,4.5571,4.5424,4.5171,4.5598,4.5705,4.5678,4.5705,4.5745,4.5745,4.5745,4.5745,4.5745,4.5745,4.5745,4.5745,4.5745,4.5745,4.5745,4.5825,4.6039,4.6333,4.6627,4.6921,4.7282,4.7816,4.7936,4.8083,4.8618,4.6126,4.2192,3.7595,3.42,3.0279,2.5628,2.4772,2.4758,2.4636,2.4738,2.4847,2.4847,2.4847,2.4969,2.5342,2.541,2.5518,2.5762,2.5694,2.5654,2.5694,2.5654,2.5654,2.5694,2.5796,2.5864,2.5905,2.562,2.5464,2.5464,2.5159,2.507,2.5199,2.507,2.5023,0.0,0.0,0.0,0.0,5.5332,0.0,0.0,0.0,5.3203,5.209,0.0,0.0,0.0,0.0,0.0,0.0,0.0,0.0,0.0,0.0,0.0,0.0,0.0,0.0,0.0,0.0,0.0,4.5207,4.4259,4.4035,4.4877,4.4877,4.4877,4.4917,4.465,4.4623,4.4877,4.4663,4.4663,4.4917,4.4957,4.5104,4.5344,4.5344,4.5491,4.5745,4.5465,4.5211,4.4984,4.4984,4.481,4.4623,4.5424,4.5598,4.5384,4.5638,4.5745,4.5745,4.5745,4.5745,4.5745,4.5745,4.5745,4.5745,4.5745,4.5745,4.5785,4.6079,4.6333,4.6627,4.6948,4.7241,4.7535,4.7856,4.7936,4.8003,4.8337,4.8114,4.5403,3.7981,3.62,3.3517,2.5783,2.4704,2.4792,2.4772,2.4894,2.5003,2.5003,2.5003,2.5023,2.507,2.5179,2.5267,2.5301,2.5423,2.5552,2.5688,2.5566,2.5552,2.5694,2.5708,2.5776,2.5905,2.562,2.5464,2.5464,2.5159,2.5023,2.5036,2.5023,2.5023,0.0,0.0,0.0,0.0,0.0,0.0,5.457,0.0,5.3105,0.0,0.0,0.0,0.0,0.0,0.0,0.0,0.0,0.0,0.0,0.0,0.0,0.0,0.0,0.0,0.0,0.0,0.0,0.0,0.0,4.2579,4.3314,4.3501,4.3821,4.4369,4.4075,4.4075,4.4369,4.4409,4.4503,4.4623,4.4984,4.5197,4.5318,4.5318,4.5384,4.5491,4.5197,4.4984,4.4877,4.4877,4.469,4.4503,4.5197,4.5424,4.5318,4.5451,4.5598,4.5745,4.5745,4.5745,4.5745,4.5745,4.5745,4.5745,4.5745,4.5745,4.5785,4.5892,4.6146,4.644,4.6734,4.7028,4.7322,4.7602,4.7682,4.7749,4.8043,4.4559,4.0167,3.703,3.291,2.8439,2.5155,2.4684,2.4792,2.4792,2.4914,2.5023,2.5023,2.5023,2.5057,2.5125,2.5287,2.541,2.5498,2.5552,2.562,2.5694,2.564,2.562,2.5694,2.5762,2.5796,2.5776,2.5566,2.543,2.5321,2.5125,2.5023,2.5023,2.5023,2.5023,5.6484,0.0,0.0,0.0,0.0,0.0,0.0,0.0,0.0,0.0,0.0,0.0,0.0,0.0,5.459,5.4668,0.0,0.0,0.0,0.0,0.0,0.0,0.0,0.0,0.0,0.0,0.0,0.0,4.0682,4.0909,4.1817,4.2071,4.2619,4.3607,4.3487,4.3567,4.3861,4.4075,4.4222,4.4329,4.477,4.4984,4.5064,4.5064,4.5131,4.5171,4.4877,4.4703,4.4623,4.4556,4.4369,4.4222,4.4663,4.4984,4.5211,4.5384,4.5558,4.5745,4.5745,4.5745,4.5745,4.5745,4.5745,4.5745,4.5745,4.5745,4.5745,4.5745,4.5999,4.6373,4.6547,4.6907,4.7241,4.7455,4.7495,4.7562,4.7749,4.2502,3.7298,3.6642,3.0805,2.5783,2.4927,2.4724,2.4792,2.4792,2.4914,2.5023,2.5023,2.5023,2.5057,2.5159,2.5301,2.543,2.5498,2.5586,2.5606,2.5566,2.5566,2.5566,2.5566,2.5654,2.5708,2.5694,2.5498,2.5355,2.5301,2.5111,2.5023,2.5023,2.5023,2.5023,0.0,0.0,0.0,5.7617,0.0,0.0,0.0,0.0,5.6348,0.0,0.0,0.0,0.0,5.5859,5.5605,5.4805,5.5039,0.0,0.0,0.0,0.0,0.0,0.0,0.0,0.0,0.0,0.0,4.0027,3.9012,3.9132,4.0869,4.0949,4.1497,4.2659,4.2953,4.3233,4.3527,4.3567,4.3714,4.4008,4.4035,4.4182,4.4476,4.4476,4.4623,4.4877,4.4583,4.4289,4.4008,4.3714,4.3567,4.3567,4.3567,4.4115,4.4957,4.5531,4.5745,4.5745,4.5745,4.5745,4.5745,4.5745,4.5745,4.5745,4.5745,4.5745,4.5745,4.5745,4.6146,4.6627,4.6627,4.7054,4.7495,4.7495,4.7495,4.7495,4.7495,4.4288,4.0555,3.6701,3.2773,2.9098,2.5357,2.4792,2.4792,2.4792,2.4914,2.5023,2.5023,2.5023,2.5023,2.5023,2.5159,2.5179,2.5057,2.5301,2.541,2.5247,2.5247,2.5247,2.5247,2.5247,2.5389,2.5688,2.5389,2.5301,2.5464,2.5159,2.5023,2.5023,2.5023,2.5023,0.0,0.0,6.1094,5.9355,0.0,0.0,0.0,0.0,0.0,0.0,0.0,0.0,0.0,5.6777,5.6504,5.5644,5.5625,5.4778,0.0,5.0364,0.0,0.0,0.0,0.0,0.0,0.0,0.0,3.7956,3.7088,3.7128,0.0,3.9306,4.0294,4.1456,4.2151,4.2766,4.3233,4.3233,4.3314,4.342,4.3821,4.4035,4.4142,4.4356,4.4396,4.4289,4.3968,4.3674,4.342,4.3487,4.3527,4.3567,4.3968,4.4436,4.4917,4.509,4.5424,4.5745,4.5745,4.5745,4.5745,4.5745,4.5745,4.5745,4.5745,4.5745,4.5745,4.5745,4.6186,4.6587,4.6373,4.6921,4.7455,4.7241,4.7348,4.7495,4.7495,4.2359,3.7508,3.6123,3.1104,2.6245,2.5085,2.488,2.4948,2.4948,2.4894,2.4894,2.5003,2.4935,2.4914,2.5003,2.5145,2.5213,2.5159,2.5247,2.5247,2.5111,2.5179,2.5233,2.5233,2.5335,2.5389,2.5389,2.5287,2.5213,2.5165,2.507,2.5023,2.5023,2.5023,2.4969,6.1621,6.2187,0.0,6.1074,6.0918,0.0,5.8262,0.0,0.0,0.0,0.0,0.0,0.0,5.8144,5.7265,5.6719,5.6113,5.5117,0.0,5.179,4.9508,0.0,0.0,0.0,0.0,0.0,3.7633,3.6046,3.5485,3.5538,0.0,0.0,3.9052,4.0254,4.1456,4.2298,4.2766,4.2873,4.2993,4.31,4.3487,4.3741,4.3821,4.3928,4.3928,4.3821,4.3487,4.3273,4.31,4.3314,4.3487,4.3741,4.4142,4.4583,4.5024,4.5024,4.5344,4.5745,4.5745,4.5745,4.5745,4.5745,4.5745,4.5745,4.5745,4.5745,4.5852,4.636,4.6507,4.6547,4.6881,4.7175,4.7282,4.7108,4.7282,4.7495,4.7495,4.1481,3.6063,3.6214,2.9945,2.4738,2.486,2.4948,2.5003,2.4948,2.4894,2.4894,2.4935,2.4894,2.4914,2.5003,2.5111,2.5125,2.507,2.5125,2.5091,2.4948,2.507,2.5159,2.5159,2.5247,2.541,2.564,2.5267,2.5179,2.541,2.5036,2.488,2.4935,2.488,2.4806]},{"header":{"parameterUnit":"m.s-1","parameterCategory":1,"la1":30.6,"la2":29.2853,"lo1":-89.7004,"lo2":-87.6739,"dy":0.0162,"dx":0.0183,"nx":112,"ny":82,"refTime":"2023-04-29T00:00:00:Z","depth":0,"parameterNumber":3,"parameterNumberName":"V-component_of_WINDS"},"data":[0.0,0.0,0.0,0.0,0.0,0.0,0.0,0.0,0.0,0.0,0.0,0.0,0.0,0.0,0.0,0.0,0.0,0.0,0.0,0.0,0.0,0.0,0.0,0.0,0.0,0.0,0.0,0.0,0.0,0.0,0.0,0.0,0.0,0.0,0.0,0.0,0.0,0.0,0.0,0.0,0.0,0.0,0.0,0.0,0.0,0.0,0.0,0.0,0.0,0.0,0.0,0.0,0.0,0.0,0.0,0.0,0.0,0.0,0.0,0.0,0.0,0.0,0.0,0.0,0.0,0.0,0.0,0.0,0.0,0.0,0.0,0.0,0.0,0.0,0.0,0.0,0.0,0.0,0.0,0.0,0.0,0.0,0.0,0.0,0.0,0.0,0.0,0.0,0.0,0.0,-8.5824,-8.9633,-9.7134,-10.2212,-10.2904,-10.2904,-10.1404,-9.8096,0.0,0.0,0.0,0.0,0.0,0.0,0.0,0.0,0.0,0.0,0.0,0.0,0.0,0.0,0.0,0.0,0.0,0.0,0.0,0.0,0.0,0.0,0.0,0.0,0.0,0.0,0.0,0.0,0.0,0.0,0.0,0.0,0.0,0.0,0.0,0.0,0.0,0.0,0.0,0.0,0.0,0.0,0.0,0.0,0.0,0.0,0.0,0.0,0.0,0.0,0.0,0.0,0.0,0.0,0.0,0.0,0.0,0.0,0.0,0.0,0.0,0.0,0.0,0.0,0.0,0.0,0.0,0.0,0.0,0.0,0.0,0.0,0.0,0.0,0.0,0.0,0.0,0.0,0.0,0.0,0.0,0.0,0.0,0.0,0.0,0.0,0.0,0.0,0.0,0.0,0.0,0.0,0.0,0.0,0.0,0.0,0.0,0.0,0.0,0.0,0.0,0.0,0.0,0.0,-9.0017,-9.5557,-10.1212,-10.4597,-10.4713,-10.4097,-10.2597,-9.9865,0.0,0.0,0.0,0.0,0.0,0.0,0.0,0.0,0.0,0.0,0.0,0.0,0.0,0.0,0.0,0.0,0.0,0.0,0.0,0.0,0.0,0.0,0.0,0.0,0.0,0.0,0.0,0.0,0.0,0.0,0.0,0.0,0.0,0.0,0.0,0.0,0.0,0.0,0.0,0.0,0.0,0.0,0.0,0.0,0.0,0.0,0.0,0.0,0.0,0.0,0.0,0.0,0.0,0.0,0.0,0.0,0.0,0.0,0.0,0.0,0.0,0.0,0.0,0.0,0.0,0.0,0.0,0.0,0.0,0.0,0.0,0.0,0.0,0.0,0.0,0.0,0.0,0.0,0.0,0.0,0.0,0.0,0.0,0.0,0.0,0.0,0.0,0.0,0.0,0.0,0.0,0.0,0.0,0.0,0.0,0.0,0.0,0.0,0.0,0.0,0.0,0.0,0.0,-8.9863,-9.2672,-9.9519,-10.3597,-10.5982,-10.6482,-10.4905,-10.2981,-10.0904,-9.7134,0.0,0.0,0.0,0.0,0.0,0.0,0.0,0.0,0.0,0.0,0.0,0.0,0.0,0.0,0.0,0.0,0.0,0.0,0.0,0.0,0.0,0.0,0.0,0.0,0.0,0.0,0.0,0.0,0.0,0.0,0.0,0.0,0.0,0.0,0.0,0.0,0.0,0.0,0.0,0.0,0.0,0.0,0.0,0.0,0.0,0.0,0.0,0.0,0.0,0.0,0.0,0.0,0.0,0.0,0.0,0.0,0.0,0.0,0.0,0.0,0.0,0.0,0.0,0.0,0.0,0.0,0.0,0.0,0.0,0.0,0.0,0.0,0.0,0.0,0.0,0.0,0.0,0.0,0.0,0.0,0.0,0.0,0.0,0.0,0.0,0.0,0.0,0.0,0.0,0.0,0.0,0.0,0.0,0.0,0.0,0.0,0.0,0.0,0.0,0.0,0.0,0.0,-9.2326,-9.4634,-10.2097,-10.5213,-10.7021,-10.7598,-10.4982,-10.2712,-10.1404,-9.6788,0.0,0.0,0.0,0.0,0.0,0.0,0.0,0.0,0.0,0.0,0.0,0.0,0.0,0.0,0.0,0.0,0.0,0.0,0.0,0.0,0.0,0.0,0.0,0.0,0.0,0.0,0.0,0.0,0.0,0.0,0.0,0.0,0.0,0.0,0.0,0.0,0.0,0.0,0.0,0.0,0.0,0.0,0.0,0.0,0.0,0.0,0.0,0.0,0.0,0.0,0.0,0.0,0.0,0.0,0.0,0.0,0.0,0.0,0.0,0.0,0.0,0.0,0.0,0.0,0.0,0.0,0.0,0.0,0.0,0.0,0.0,0.0,0.0,0.0,0.0,0.0,0.0,0.0,0.0,0.0,0.0,0.0,0.0,0.0,0.0,0.0,0.0,0.0,0.0,0.0,0.0,0.0,0.0,0.0,0.0,0.0,0.0,0.0,0.0,0.0,0.0,0.0,-9.4057,-9.6172,-10.3097,-10.6097,-10.7598,-10.7713,-10.3905,-10.1404,-10.1289,-9.5095,0.0,0.0,0.0,0.0,0.0,0.0,0.0,0.0,0.0,0.0,0.0,0.0,0.0,0.0,0.0,0.0,0.0,0.0,0.0,0.0,0.0,0.0,0.0,0.0,0.0,0.0,0.0,0.0,0.0,0.0,0.0,0.0,0.0,0.0,0.0,0.0,0.0,0.0,0.0,0.0,0.0,0.0,0.0,0.0,0.0,0.0,0.0,0.0,0.0,0.0,0.0,0.0,0.0,0.0,0.0,0.0,0.0,0.0,0.0,0.0,0.0,0.0,0.0,0.0,0.0,0.0,0.0,0.0,0.0,0.0,0.0,0.0,0.0,0.0,0.0,0.0,0.0,0.0,0.0,0.0,0.0,0.0,0.0,0.0,0.0,0.0,0.0,0.0,0.0,0.0,0.0,0.0,0.0,0.0,0.0,0.0,0.0,0.0,0.0,0.0,0.0,0.0,-9.5634,-9.825,0.0,-10.6905,-10.8713,-10.9213,-10.579,-10.3212,-10.2212,0.0,0.0,0.0,0.0,0.0,0.0,0.0,0.0,0.0,0.0,0.0,0.0,0.0,0.0,0.0,0.0,0.0,0.0,0.0,0.0,0.0,0.0,0.0,0.0,0.0,0.0,0.0,0.0,0.0,0.0,0.0,0.0,0.0,0.0,0.0,0.0,0.0,0.0,0.0,0.0,0.0,0.0,0.0,0.0,0.0,0.0,0.0,0.0,0.0,0.0,0.0,0.0,0.0,0.0,0.0,0.0,0.0,0.0,0.0,0.0,0.0,0.0,0.0,0.0,0.0,0.0,0.0,0.0,0.0,0.0,0.0,0.0,0.0,0.0,0.0,0.0,0.0,0.0,0.0,0.0,0.0,0.0,0.0,0.0,0.0,0.0,0.0,0.0,0.0,0.0,0.0,0.0,0.0,0.0,0.0,0.0,0.0,0.0,0.0,0.0,0.0,0.0,-9.448,-9.6249,-9.9058,0.0,-10.679,-10.8482,-10.929,-10.5482,-10.2789,-10.2212,0.0,0.0,0.0,0.0,0.0,0.0,0.0,0.0,0.0,0.0,0.0,0.0,0.0,0.0,0.0,0.0,0.0,0.0,0.0,0.0,0.0,0.0,0.0,0.0,0.0,0.0,0.0,0.0,0.0,0.0,0.0,0.0,0.0,0.0,0.0,0.0,0.0,0.0,0.0,0.0,0.0,0.0,0.0,0.0,0.0,0.0,0.0,0.0,0.0,0.0,0.0,0.0,0.0,0.0,0.0,0.0,0.0,0.0,0.0,0.0,0.0,0.0,0.0,0.0,0.0,0.0,0.0,0.0,0.0,0.0,0.0,0.0,0.0,0.0,0.0,0.0,0.0,0.0,0.0,0.0,0.0,0.0,0.0,0.0,0.0,0.0,0.0,0.0,0.0,0.0,0.0,0.0,0.0,0.0,0.0,0.0,0.0,0.0,0.0,0.0,0.0,0.0,-9.4557,-9.5749,-9.825,-10.3289,-10.5405,-10.679,-10.7598,-10.2289,-9.9558,0.0,0.0,0.0,0.0,0.0,0.0,0.0,0.0,0.0,0.0,0.0,0.0,0.0,0.0,0.0,0.0,0.0,0.0,0.0,0.0,0.0,0.0,0.0,0.0,0.0,0.0,0.0,0.0,0.0,0.0,0.0,0.0,0.0,0.0,0.0,0.0,0.0,0.0,0.0,0.0,0.0,0.0,0.0,0.0,0.0,0.0,0.0,0.0,0.0,0.0,0.0,0.0,0.0,0.0,0.0,0.0,0.0,0.0,0.0,0.0,0.0,0.0,0.0,0.0,0.0,0.0,0.0,0.0,0.0,0.0,0.0,0.0,0.0,0.0,0.0,0.0,0.0,0.0,0.0,0.0,0.0,0.0,0.0,0.0,0.0,0.0,0.0,0.0,0.0,0.0,0.0,0.0,0.0,0.0,0.0,0.0,0.0,0.0,0.0,0.0,0.0,0.0,0.0,-9.448,-9.5211,-9.7326,-10.2404,-10.502,-10.679,-10.7598,-10.3905,-10.1475,-10.1392,0.0,0.0,0.0,0.0,0.0,0.0,0.0,0.0,0.0,0.0,0.0,0.0,0.0,0.0,0.0,0.0,0.0,0.0,0.0,0.0,0.0,0.0,0.0,0.0,0.0,0.0,0.0,0.0,0.0,0.0,0.0,0.0,0.0,0.0,0.0,0.0,0.0,0.0,0.0,0.0,0.0,0.0,0.0,0.0,0.0,0.0,0.0,0.0,0.0,0.0,0.0,0.0,0.0,0.0,0.0,0.0,0.0,0.0,0.0,0.0,0.0,0.0,0.0,0.0,0.0,0.0,0.0,0.0,0.0,0.0,0.0,0.0,0.0,0.0,0.0,0.0,0.0,0.0,0.0,0.0,0.0,0.0,0.0,0.0,0.0,0.0,0.0,0.0,0.0,0.0,0.0,0.0,0.0,0.0,0.0,0.0,0.0,0.0,0.0,0.0,0.0,0.0,-9.4441,-9.4711,-9.6442,-10.152,-10.4097,-10.5823,-10.6605,-10.3569,-10.0895,-9.9163,0.0,0.0,0.0,0.0,0.0,0.0,0.0,0.0,0.0,0.0,0.0,0.0,0.0,0.0,0.0,0.0,0.0,0.0,0.0,0.0,0.0,0.0,0.0,0.0,0.0,0.0,0.0,0.0,0.0,0.0,0.0,0.0,0.0,0.0,0.0,0.0,0.0,0.0,0.0,0.0,0.0,0.0,0.0,0.0,0.0,0.0,0.0,0.0,0.0,0.0,0.0,0.0,0.0,0.0,0.0,0.0,0.0,0.0,0.0,0.0,0.0,0.0,0.0,0.0,0.0,0.0,0.0,0.0,0.0,0.0,0.0,0.0,0.0,0.0,0.0,0.0,0.0,0.0,0.0,0.0,0.0,0.0,0.0,0.0,0.0,0.0,0.0,0.0,0.0,0.0,0.0,0.0,0.0,0.0,0.0,0.0,0.0,0.0,0.0,0.0,0.0,0.0,-9.4368,-9.4061,-9.5445,-10.0518,-10.2591,-10.41,-10.4977,-10.2118,-9.8935,-9.6024,0.0,0.0,0.0,0.0,0.0,0.0,0.0,0.0,0.0,0.0,0.0,0.0,0.0,0.0,0.0,0.0,0.0,0.0,0.0,0.0,0.0,0.0,0.0,0.0,0.0,0.0,0.0,0.0,0.0,0.0,0.0,0.0,0.0,0.0,0.0,0.0,0.0,0.0,0.0,0.0,0.0,0.0,0.0,0.0,0.0,0.0,0.0,0.0,0.0,0.0,0.0,0.0,0.0,0.0,0.0,0.0,0.0,0.0,0.0,0.0,-8.1966,0.0,0.0,0.0,0.0,0.0,0.0,0.0,0.0,0.0,0.0,0.0,0.0,0.0,0.0,0.0,0.0,0.0,0.0,0.0,0.0,0.0,0.0,0.0,0.0,0.0,0.0,0.0,0.0,0.0,0.0,0.0,0.0,0.0,0.0,0.0,0.0,0.0,0.0,0.0,0.0,0.0,-9.3606,-9.2899,-9.3943,-9.8792,-10.0874,-10.2583,-10.4113,-10.1731,-9.9935,-9.9234,-9.4726,0.0,0.0,0.0,0.0,0.0,0.0,0.0,0.0,0.0,0.0,0.0,0.0,0.0,0.0,0.0,0.0,0.0,0.0,0.0,0.0,0.0,0.0,0.0,0.0,0.0,0.0,0.0,0.0,0.0,0.0,0.0,0.0,0.0,0.0,0.0,0.0,0.0,0.0,0.0,0.0,0.0,0.0,0.0,0.0,0.0,0.0,0.0,0.0,0.0,0.0,0.0,0.0,0.0,0.0,0.0,0.0,0.0,0.0,0.0,0.0,-8.4682,0.0,0.0,0.0,0.0,0.0,0.0,0.0,0.0,0.0,0.0,0.0,0.0,0.0,0.0,0.0,0.0,0.0,0.0,0.0,0.0,0.0,0.0,0.0,0.0,0.0,0.0,0.0,0.0,0.0,0.0,0.0,0.0,0.0,0.0,0.0,0.0,0.0,0.0,0.0,0.0,-9.3972,-9.2806,-9.3569,-9.894,-10.071,-10.2184,-10.3768,-10.2009,-10.0187,-9.858,-9.5648,0.0,0.0,0.0,0.0,0.0,0.0,0.0,0.0,0.0,0.0,0.0,0.0,0.0,0.0,0.0,0.0,0.0,0.0,0.0,0.0,0.0,0.0,0.0,0.0,0.0,0.0,0.0,0.0,0.0,0.0,0.0,0.0,0.0,0.0,0.0,0.0,0.0,0.0,0.0,0.0,0.0,0.0,0.0,0.0,0.0,0.0,0.0,0.0,0.0,0.0,0.0,0.0,0.0,0.0,0.0,-9.7163,-9.7933,-9.8117,-9.7493,-9.2758,-8.8647,-8.56,0.0,0.0,0.0,0.0,0.0,0.0,0.0,0.0,0.0,0.0,0.0,0.0,0.0,0.0,0.0,0.0,0.0,0.0,0.0,0.0,0.0,0.0,0.0,0.0,0.0,-9.1326,-8.9784,0.0,0.0,0.0,0.0,0.0,0.0,0.0,0.0,0.0,0.0,0.0,0.0,-9.433,-9.3087,-9.3969,-9.9577,-10.0907,-10.1987,-10.376,-10.2407,-10.0494,-9.8021,-9.7185,-9.5627,0.0,0.0,0.0,0.0,0.0,0.0,0.0,0.0,0.0,0.0,0.0,0.0,0.0,0.0,0.0,0.0,0.0,0.0,0.0,0.0,0.0,0.0,0.0,0.0,0.0,0.0,0.0,0.0,0.0,0.0,0.0,0.0,-7.2428,-7.324,0.0,0.0,0.0,0.0,0.0,0.0,0.0,0.0,0.0,0.0,0.0,0.0,0.0,0.0,-9.0569,-9.0303,-9.2351,-9.6759,-9.7199,-9.7897,-9.8814,-9.9622,-10.0686,-10.1898,-10.109,0.0,-9.2794,-9.1987,0.0,0.0,0.0,0.0,0.0,0.0,0.0,0.0,0.0,0.0,0.0,0.0,0.0,0.0,0.0,0.0,0.0,0.0,0.0,0.0,0.0,0.0,-8.9528,-9.0665,-9.1803,-9.2941,0.0,-9.2905,-9.1435,-9.0845,0.0,0.0,0.0,0.0,0.0,0.0,0.0,0.0,-9.2939,-9.3054,-9.477,-9.9693,-10.0426,-10.1449,-10.372,-10.2365,-10.1907,-10.2812,-9.9434,-9.7931,-9.8941,-9.529,0.0,0.0,0.0,0.0,0.0,0.0,0.0,0.0,0.0,0.0,0.0,0.0,0.0,0.0,0.0,0.0,0.0,0.0,0.0,0.0,0.0,0.0,0.0,0.0,0.0,0.0,0.0,0.0,0.0,-7.4559,-7.6589,-7.6082,-7.9025,-8.0648,0.0,0.0,0.0,0.0,0.0,0.0,0.0,0.0,0.0,-8.4437,-8.6806,-8.9191,-9.1177,-9.2814,-9.6029,-10.066,-10.2527,-10.4772,-10.7294,-10.8101,-10.9092,-11.012,-10.9716,-10.7587,-10.41,-9.9255,-9.6355,-9.4887,0.0,0.0,0.0,0.0,0.0,-9.4483,-9.3859,0.0,0.0,0.0,0.0,0.0,0.0,0.0,0.0,0.0,0.0,0.0,0.0,0.0,0.0,-9.5988,-9.764,-9.9255,-9.9512,-9.8007,-9.5951,0.0,-9.2427,-9.184,-9.2574,0.0,0.0,0.0,0.0,-9.1801,-9.4736,-9.5553,-9.7279,-10.116,-10.1586,-10.2412,-10.4394,-10.4392,-10.4466,-10.5184,-10.3132,-10.1889,-10.2172,-9.9505,-9.8006,0.0,0.0,0.0,0.0,0.0,0.0,0.0,0.0,0.0,0.0,0.0,0.0,0.0,0.0,0.0,0.0,0.0,0.0,0.0,0.0,0.0,0.0,0.0,0.0,0.0,0.0,0.0,0.0,-7.7638,0.0,-7.8179,-8.1934,-8.3761,0.0,0.0,0.0,0.0,0.0,0.0,-8.5114,-8.738,-8.8598,-8.8598,-9.1698,-9.356,-9.3995,-9.7111,-10.0691,-10.4808,-10.7971,-11.1215,-11.4319,-11.5478,-11.6507,-11.7204,-11.6617,-11.5589,-11.3681,-10.6413,-10.1494,-9.8521,-9.7897,-9.7419,0.0,-9.7273,-9.786,-9.8521,-9.8521,-9.8631,-9.8704,-9.8154,0.0,-9.7016,-9.5144,0.0,0.0,0.0,0.0,-9.6282,-9.6869,0.0,-10.131,-10.1788,-10.3513,-10.4981,-10.4394,-10.3182,-10.1017,0.0,-9.5437,-9.4593,-9.4593,0.0,0.0,0.0,0.0,-9.4006,-9.6685,-9.808,-9.9879,-10.2705,-10.2999,-10.3586,-10.5018,-10.5693,-10.6264,-10.6717,-10.6088,-10.551,-10.4903,-10.3021,-10.1099,-9.9173,0.0,0.0,0.0,0.0,0.0,0.0,0.0,0.0,0.0,0.0,0.0,0.0,0.0,0.0,0.0,0.0,0.0,0.0,0.0,0.0,0.0,0.0,0.0,0.0,0.0,0.0,0.0,0.0,0.0,-7.8247,-8.3761,0.0,0.0,0.0,0.0,-8.6535,-8.8531,-8.9748,-8.9884,-9.2015,-9.3233,-9.3233,-9.6195,-9.9333,-10.2686,-10.5124,-10.7554,-10.9778,-11.2984,-11.5016,-11.6094,-11.828,-11.9811,-12.0691,-12.0618,-12.0104,-11.8673,-11.1405,-10.7881,-10.678,-10.4394,-10.3917,-10.4394,-10.2889,-10.2815,-10.3182,-10.098,-10.0686,-10.1677,-10.3917,-10.5091,-10.5311,-10.2889,-10.2705,0.0,0.0,-10.109,-10.109,-10.12,-10.2485,-10.41,-10.5678,-10.7404,-10.8505,-10.8505,-10.7807,-10.5568,0.0,-9.7016,-9.5437,-9.5437,0.0,-9.3859,-9.3198,-9.4997,-9.6795,-9.7713,-9.9879,-10.1971,-10.3696,-10.3806,-10.421,-10.5018,-10.5101,-10.576,-10.7408,-10.7497,-10.7492,-10.7518,-10.5095,-10.3672,-10.3597,-9.7942,0.0,0.0,0.0,0.0,0.0,0.0,0.0,0.0,0.0,0.0,0.0,0.0,0.0,0.0,0.0,0.0,0.0,0.0,0.0,0.0,0.0,0.0,0.0,0.0,0.0,0.0,0.0,0.0,-8.5046,-8.9782,0.0,0.0,-9.0019,-9.0391,-9.1135,-9.2387,-9.374,-9.5161,-9.8273,-10.0472,-10.1419,-10.3889,-10.6083,-10.7733,-10.8751,-11.0463,-11.3192,-11.5377,-11.7351,-11.9202,-12.1129,-12.2196,-12.2417,-12.2417,-12.2307,-12.1719,-11.8599,-11.5002,-11.1295,-10.9312,-10.8101,-10.7404,-10.6816,-10.711,-10.7771,-10.7404,-10.7514,-10.7587,-10.689,-10.5789,-10.4614,-10.3696,-10.3696,-10.3806,-10.3182,-10.3403,-10.3917,-10.4504,-10.5789,-10.7183,-10.7807,-10.9202,-11.0193,-10.9679,-10.9276,-10.8505,-10.6486,-10.3293,-10.0686,-10.0209,-9.8631,-9.7456,-9.7713,-9.8484,-9.9475,-10.0796,-10.2595,-10.4284,-10.5385,-10.5495,-10.5605,-10.5899,-10.5927,-10.6175,-10.6805,-10.6265,-10.6315,-10.6825,-10.4406,-10.2835,-10.2212,-9.8519,-9.7019,0.0,0.0,0.0,0.0,0.0,0.0,0.0,0.0,0.0,0.0,0.0,0.0,0.0,0.0,0.0,0.0,0.0,0.0,0.0,0.0,0.0,0.0,0.0,0.0,0.0,0.0,-8.8294,-9.0019,-9.4383,-9.6785,-9.5567,-9.5669,-9.6041,-9.6548,-9.7969,-9.9559,-10.1318,-10.4193,-10.6291,-10.7306,-10.9268,-11.0486,-11.0993,-11.1298,-11.2364,-11.4484,-11.611,-11.8068,-12.0442,-12.2121,-12.334,-12.4105,-12.4105,-12.4105,-12.4105,-12.3481,-12.0875,-11.7094,-11.5185,-11.3607,-11.2396,-11.2396,-11.2579,-11.2873,-11.3093,-11.302,-11.2506,-11.0597,-10.8688,-10.7183,-10.7183,-10.7183,-10.7183,-10.7183,-10.7587,-10.8101,-10.8688,-10.9606,-11.0414,-11.0414,-11.1001,-11.1478,-11.0891,-11.0597,-11.0414,-11.0414,-10.7807,-10.5201,-10.41,-10.2595,-10.1604,-10.1898,-10.2191,-10.2815,-10.421,-10.5495,-10.6486,-10.678,-10.678,-10.6706,-10.6413,-10.6075,-10.5916,-10.5588,-10.4264,-10.3697,-10.3994,-10.2309,-10.129,-10.1008,-9.8404,-9.7096,-9.7057,0.0,0.0,0.0,0.0,0.0,0.0,0.0,0.0,0.0,0.0,0.0,0.0,0.0,0.0,0.0,0.0,0.0,0.0,0.0,0.0,0.0,0.0,0.0,-8.1528,-8.7245,-9.1744,-9.2624,-9.7292,-9.9593,-9.7461,-10.0608,-10.2705,-10.2705,-10.5411,-10.7407,-10.8118,-10.9606,-11.0418,-11.0418,-11.1805,-11.2583,-11.2583,-11.3293,-11.3699,-11.3699,-11.5275,-11.7402,-11.9853,-12.1417,-12.3464,-12.5794,-12.5684,-12.5684,-12.5684,-12.5684,-12.5206,-12.4289,-12.1903,-12.0508,-11.97,-11.97,-11.9187,-11.8306,-11.7535,-11.6727,-11.5883,-11.5112,-11.4305,-11.3681,-11.3681,-11.3681,-11.3681,-11.3681,-11.3681,-11.3681,-11.357,-11.357,-11.357,-11.357,-11.2983,-11.2396,-11.2396,-11.1808,-11.1295,-11.1221,-11.001,-10.8395,-10.678,-10.6486,-10.6192,-10.5311,-10.5899,0.0,-10.7477,-10.8285,-10.8505,-10.7697,-10.7587,-10.7294,-10.6486,-10.5605,-10.4735,-10.3903,-10.1588,-9.9852,-9.9065,-9.9027,-9.9395,-10.0166,-9.7628,-9.5443,-9.3787,0.0,0.0,0.0,0.0,0.0,0.0,0.0,0.0,0.0,0.0,0.0,0.0,0.0,0.0,0.0,0.0,0.0,0.0,0.0,0.0,0.0,0.0,-8.755,-8.7008,-9.1338,-9.5838,-9.9322,-10.2908,-10.5276,-10.5783,-10.7204,-10.8185,-10.8185,-10.9877,-11.0993,-11.1264,-11.2685,-11.3496,-11.3496,-11.441,-11.4917,-11.4917,-11.512,-11.5492,-11.6,-11.7646,-11.9811,-12.2263,-12.3821,-12.557,-12.7372,-12.6785,-12.6601,-12.6491,-12.5904,-12.5573,-12.5206,-12.3995,-12.3004,-12.2196,-12.1609,-12.0508,-11.9187,-11.9003,-11.8416,-11.7608,-11.6801,-11.6397,-11.6103,-11.5479,-11.5699,-11.5993,-11.4818,-11.4892,-11.5075,-11.3901,-11.357,-11.357,-11.357,-11.3387,-11.3277,-11.3277,-11.3093,-11.28,-11.2212,-11.1698,-11.0891,-10.9276,-10.8982,-10.8688,-10.7918,-10.7991,0.0,-10.8395,-10.8688,-10.8688,-10.8505,-10.8505,-10.8101,-10.7294,-10.4908,-10.248,-10.0592,-9.7599,-9.5782,-9.5571,-9.5533,-9.6209,-9.7598,-9.6829,-9.6145,0.0,0.0,0.0,0.0,0.0,0.0,0.0,0.0,0.0,0.0,0.0,0.0,0.0,0.0,0.0,0.0,0.0,0.0,0.0,0.0,0.0,0.0,-9.0425,-9.3876,-9.4992,-9.6886,-9.9796,-10.4295,-10.69,-10.8896,-11.0384,-11.1501,-11.2109,-11.2109,-11.3192,-11.4004,-11.4308,-11.5188,-11.5797,-11.6101,-11.6507,-11.6812,-11.6812,-11.6812,-11.7015,-11.7387,-11.8415,-12.0229,-12.3059,-12.4113,-12.5598,0.0,-12.7115,-12.6711,-12.6381,-12.5904,-12.5684,0.0,0.0,0.0,0.0,0.0,-12.2086,-12.0581,-12.0581,-11.9884,-11.8783,-11.8416,-11.8012,-11.7608,-11.669,-11.7094,-11.7425,-11.6213,-11.6397,-11.6801,-11.5883,-11.5406,-11.5112,-11.5112,-11.4598,-11.4084,-11.4084,-11.3791,-11.3387,-11.2579,-11.2396,0.0,-11.0707,-11.0487,-11.0304,-10.99,-10.979,-10.979,-10.979,-10.979,-10.9679,-10.9312,-10.9312,-10.8982,-10.8175,-10.5091,0.0,0.0,0.0,-9.3434,-9.2717,-9.3342,0.0,0.0,0.0,-9.6287,-9.5983,0.0,0.0,0.0,-9.4484,-9.4057,0.0,0.0,0.0,0.0,0.0,0.0,0.0,0.0,0.0,0.0,0.0,0.0,0.0,0.0,0.0,0.0,-9.5093,-10.01,-10.3889,-10.3382,-10.4092,-10.8016,-10.9809,-11.1298,-11.2685,-11.4105,-11.4985,-11.5086,-11.5695,-11.6338,0.0,0.0,0.0,0.0,0.0,-11.83,-11.83,-11.83,-11.8402,-11.8503,-11.8503,-12.0296,-12.359,-12.352,-12.4943,-12.7409,-12.7225,-12.6711,-12.5977,-12.5867,-12.5794,-12.5684,-12.5684,-12.5684,-12.5573,-12.4876,-12.3701,0.0,0.0,0.0,0.0,-11.9884,-11.9297,-11.8416,-11.7718,-11.8012,-11.8416,-11.7608,-11.7902,-11.8489,-11.8416,-11.7902,-11.7314,-11.7204,-11.6103,-11.5002,-11.5002,-11.4378,-11.3607,-11.28,-11.2579,-11.2286,-11.1515,-11.1295,-11.1221,-11.1221,-11.1221,-11.1221,-11.1221,-11.1221,-11.0891,-11.0193,0.0,0.0,-10.8982,-10.5899,-10.2999,-10.0613,-9.5988,-9.2758,-9.1363,-9.2751,-9.3788,-9.4511,-9.5892,-9.627,-9.5497,-9.4877,-9.531,-9.6667,-9.7853,-9.7594,0.0,0.0,0.0,0.0,0.0,0.0,0.0,0.0,0.0,0.0,0.0,0.0,0.0,0.0,0.0,-9.7292,-10.1081,-10.4904,-10.9302,-11.0181,-11.0689,-11.1501,-11.2414,-11.353,-11.5019,-11.6,-11.671,-11.7387,-11.759,-11.7725,-11.7894,-11.8402,0.0,-11.8977,-11.9586,-11.989,-11.989,-11.989,-12.0195,-12.0803,0.0,0.0,-12.6812,-12.6139,-12.7554,-13.0676,-12.9391,-12.84,-12.7592,-12.6895,-12.6308,-12.5684,-12.5684,-12.5684,-12.5684,-12.55,-12.4876,-12.3995,-12.3995,-12.3004,-12.1572,-12.1572,-12.0581,-11.9297,-11.9187,-11.9187,0.0,-11.8416,-11.8709,-11.9187,-11.8599,-11.8306,-11.8012,-11.7388,-11.7021,-11.6617,-11.5883,-11.5589,-11.5296,-11.4488,-11.3791,-11.3093,-11.2286,-11.1588,-11.1221,-11.1221,-11.1221,-11.1221,-11.1221,-11.1221,-11.1111,-11.1001,-11.1001,-11.0597,-10.979,-10.6816,-10.3806,-10.1384,-9.7346,-9.518,-9.5511,-9.5847,-9.6363,-9.7173,-9.7372,-9.7404,-9.7255,-9.8304,-9.8643,-9.8304,-9.6608,-9.5673,0.0,0.0,0.0,0.0,0.0,0.0,0.0,0.0,0.0,0.0,0.0,-8.9342,0.0,0.0,-9.8679,-10.2401,-10.6494,-11.008,-11.2685,-11.4376,-11.4985,-11.4207,-11.4511,-11.5323,-11.6812,-11.7319,-11.7793,-11.8605,-11.8672,-11.8977,-11.9721,-12.0093,-12.0499,-12.0803,-12.1176,-12.1379,-12.1379,-12.1379,-12.1582,-12.1988,-12.1988,-12.3221,-12.5877,-12.6352,-12.755,-12.917,-12.93,-12.862,-12.7409,-12.6601,-12.6087,-12.5684,-12.5684,-12.5684,-12.5684,-12.5684,-12.517,-12.4509,-12.4509,-12.3408,-12.2086,-12.2086,-12.1279,-12.0178,-11.97,-11.9884,-12.0104,-11.9187,-11.959,-12.0178,-11.9811,-11.9297,-11.8893,-11.8489,-11.7792,-11.7094,-11.669,-11.6287,-11.5773,-11.5002,-11.4488,-11.3791,-11.2616,-11.2102,-11.1698,-11.1295,-11.1221,-11.1221,-11.1221,-11.1221,-11.1221,-11.1221,-11.1221,-11.1001,-11.0597,-10.7587,-10.4687,-10.2301,-9.9842,-9.8704,-9.9071,-9.9108,-9.9475,-10.0283,-9.9867,-9.9834,-10.0241,-10.0606,-10.0783,-10.0708,-9.9518,-9.8679,0.0,0.0,0.0,0.0,0.0,0.0,0.0,0.0,-8.9545,-9.0425,-9.2387,-9.4755,-9.7461,-10.1014,-10.4396,-10.69,-11.1196,-11.4613,-11.5594,-11.7488,-11.83,-11.7218,-11.671,-11.7116,-11.8605,-11.8706,-11.9112,-11.9992,-12.0093,-12.0601,-12.1988,-12.2021,-12.2393,-12.3104,-12.3002,-12.307,-12.3375,-12.3205,-12.3205,-12.3375,-12.3205,-12.3847,-12.5402,-12.5971,-12.6898,-12.7958,-12.876,-12.8326,-12.7078,-12.6087,-12.5684,-12.5684,-12.5684,-12.5684,-12.5684,-12.5684,-12.528,-12.4693,-12.4693,-12.3775,-12.26,-12.271,-12.2013,-12.0985,-12.0508,-12.0581,-12.0802,-12.0104,-12.0508,-12.1095,-12.0912,-12.0508,-11.9994,-11.97,-11.8599,-11.7608,-11.7314,-11.669,-11.5993,-11.5185,-11.4892,-11.4415,-11.3093,-11.2689,-11.2286,-11.1295,-11.1295,-11.1405,-11.1405,-11.1405,-11.1405,-11.1405,-11.1295,-11.1111,-11.1001,-10.8578,-10.6192,-10.4027,-10.3109,-10.2815,-10.2889,-10.2595,-10.2889,-10.3917,-10.3109,-10.3072,-10.3917,-10.3182,-10.3345,-10.3911,-10.4095,-10.3198,-8.0791,-8.1431,0.0,-8.226,-8.4969,-8.8057,0.0,0.0,-9.4349,-9.5736,-9.78,-9.9863,-10.1589,-10.4904,-10.8591,-11.2109,-11.4883,-11.7285,-11.9383,-12.0465,-12.1209,-12.1683,-11.9992,-11.9383,-12.0905,-12.1006,-12.1615,-12.3002,-12.3104,-12.351,-12.4288,-12.4322,-12.4694,-12.5506,-12.4795,-12.51,-12.6487,-12.581,-12.581,-12.6487,-12.581,-12.7201,-13.0269,-12.683,-12.7743,-13.2116,-12.9361,-12.8106,-12.7813,-12.6308,-12.5684,-12.5684,-12.5684,-12.5684,-12.5684,-12.5684,-12.5573,-12.5573,-12.5573,-12.4986,-12.4289,-12.5096,-12.3775,-12.2086,-12.271,-12.2013,-12.0912,-12.0802,-12.1279,-12.1793,-12.1095,-12.1389,-12.1389,-11.9994,-11.948,-11.8893,-11.7498,-11.7131,-11.6801,-11.5993,-11.5296,-11.4708,-11.4598,-11.3901,-11.2983,-11.1405,-11.1808,-11.2286,-11.2286,-11.2286,-11.2286,-11.2286,-11.1588,-11.0891,-11.0193,-10.979,-10.9202,-10.8211,-10.7404,-10.7183,-10.7991,-10.6596,-10.6596,-10.8101,-10.7294,-10.7294,-10.8101,-10.7991,-10.8054,-10.8186,-10.8893,-10.6878,-8.0001,0.0,0.0,0.0,-8.6037,-9.019,-9.245,-9.5561,-9.8551,-10.0961,-10.3212,-10.5716,-10.8997,-11.1196,-11.3632,0.0,-11.9011,-12.0296,-12.0871,-12.192,-12.2495,-12.192,-12.1412,-12.1683,-12.3205,-12.3307,-12.378,-12.4897,-12.4931,-12.5303,-12.6013,-12.6013,-12.6182,-12.6487,-12.6182,-12.6318,-12.6994,-12.669,-12.669,-12.6994,-12.6284,-12.6443,-12.7416,-12.6865,-12.8127,-13.0712,-12.8877,-12.8106,-12.7996,-12.6381,-12.5977,-12.6381,-12.5904,-12.5684,-12.5684,-12.5684,-12.5684,-12.5684,-12.5684,-12.517,-12.4509,-12.4289,-12.3591,-12.2784,-12.26,-12.249,-12.2196,-12.1683,-12.1793,-12.1903,-12.1095,-12.1095,-12.1205,-12.0508,-11.9994,-11.9407,-11.8709,-11.8195,-11.7718,-11.6911,-11.6397,-11.592,-11.5002,-11.4488,-11.3901,-11.28,-11.2873,-11.3093,-11.3093,-11.3093,-11.291,-11.2506,-11.1698,-11.1111,-11.0707,-11.0707,-11.0597,-11.0193,-10.99,-11.0134,-11.0865,-10.9803,-10.9981,-11.1693,-11.0411,-11.0226,-11.0946,-11.0535,-11.0305,-11.0357,-11.0657,-10.966,-7.9968,0.0,0.0,-8.4054,-8.8215,-9.3052,-9.5706,-9.9287,-10.2898,-10.594,-10.8482,-11.1298,-11.4985,-11.6609,0.0,-12.0803,-12.2495,-12.3273,-12.2698,-12.3408,-12.3307,-12.1615,-12.1683,-12.2393,-12.3679,-12.4322,-12.5201,-12.6419,-12.6521,-12.6825,-12.7603,-12.7603,-12.7603,-12.7603,-12.74,-12.74,-12.7603,-12.74,-12.74,-12.7603,-12.669,-12.6194,-12.6034,-12.7551,-12.8259,-12.8187,-12.8421,-12.84,-12.829,-12.6895,-12.6675,-12.7189,-12.6308,-12.5977,-12.5977,-12.5794,-12.5684,-12.5684,-12.5684,-12.528,-12.4693,-12.3885,-12.3591,-12.3408,-12.238,-12.2674,-12.3114,-12.2307,-12.238,-12.26,-12.1793,-12.1609,-12.1609,-12.1609,-12.0691,-11.9994,-11.9994,-11.9297,-11.8489,-11.7718,-11.7388,-11.6801,-11.5699,-11.5296,-11.4892,-11.4305,-11.4268,-11.4194,-11.3974,-11.3901,-11.3607,-11.28,-11.2212,-11.1882,-11.1882,-11.1882,-11.1948,-11.1877,-11.1877,-11.2161,-11.2889,-11.2306,-11.2583,-11.3911,-11.2727,-11.2314,-11.2968,-11.2429,-11.2219,-11.237,-11.237,-11.2493,0.0,0.0,-8.5555,-8.7532,-9.2388,-9.7224,-9.9443,-10.337,-10.7481,-11.0563,-11.3559,-11.6101,-11.7691,-11.9789,-12.1717,-12.3307,-12.4795,-12.581,-12.581,-12.51,-12.3882,-12.1683,-12.077,-12.0668,0.0,-12.3408,-12.5607,-12.7908,-12.8009,-12.8415,-12.9092,-12.9125,-12.9125,-12.9125,-12.8415,-12.8415,-12.9125,-12.8415,-12.8415,-12.9092,-12.7671,-12.786,-12.9517,-13.0053,-12.8545,-12.574,-12.826,-12.9318,-12.9207,-12.84,-12.7996,-12.7996,-12.7189,-12.6895,-12.6785,-12.5977,-12.5684,-12.5684,-12.5684,-12.5684,-12.55,-12.4693,-12.4509,-12.4179,-12.26,-12.2674,-12.3114,-12.2307,-12.3188,-12.4215,-12.3408,-12.3224,-12.3224,-12.3224,-12.2013,-12.0875,-12.0875,-12.0178,-11.9297,-11.8489,-11.7718,-11.7204,-11.7131,-11.6507,-11.5993,-11.5883,-11.5883,-11.5589,-11.4892,-11.4782,-11.4488,-11.3607,-11.3497,-11.3497,-11.3497,-11.3497,-11.3622,-11.358,-11.3585,-11.3674,-11.392,-11.3806,-11.3769,-11.3911,-11.3836,-11.3836,-11.3911,-11.3798,-11.4326,-11.5134,-11.5134,-11.5076,0.0,0.0,-8.9357,-9.1354,-9.5307,-9.9483,-10.2499,-10.5833,-10.9121,-11.2827,-11.3834,-11.486,-11.6887,-11.83,-11.989,-12.1818,-12.4288,-12.5912,-12.5912,-12.6081,-12.4694,-12.0398,-12.0601,0.0,0.0,0.0,0.0,-12.7096,-12.7806,-12.8618,-12.987,-12.9904,-13.0174,-13.0614,-12.9904,-12.9701,-12.9904,-12.9701,-12.9396,-12.9193,-12.7705,-12.7144,-12.7334,-12.7001,-12.6883,-12.7075,-12.8062,-12.8841,-12.9318,-12.9024,-12.8914,-12.8804,-12.7996,-12.7702,-12.7592,-12.6785,-12.6491,-12.6381,-12.5904,-12.5684,-12.5573,-12.4803,-12.4876,-12.5096,-12.3995,-12.4289,-12.4693,-12.3885,-12.4105,-12.4289,-12.3518,-12.3298,-12.3298,-12.3298,-12.249,-12.1683,-12.1683,-12.0985,-12.0214,-11.9407,-11.9003,-11.8489,-11.7425,-11.7021,-11.6617,-11.6103,-11.5993,-11.5883,-11.5589,-11.5112,-11.4708,-11.4415,-11.3901,-11.357,-11.357,-11.357,-11.3603,-11.3549,-11.3711,-11.4011,-11.4674,-11.4213,-11.4389,-11.5573,-11.5098,-11.5022,-11.5625,-11.5625,-11.5804,-11.608,-11.608,-11.6108,0.0,-8.9741,-9.3571,-9.5546,-9.8867,-10.2292,-10.5163,-10.7459,-10.9781,-11.2431,-11.2672,-11.2861,-11.4261,-11.4818,-11.6203,-11.9992,-12.2021,-12.3882,-12.6013,-12.5776,-12.3916,-12.0059,-11.9687,0.0,0.0,0.0,0.0,-12.5878,-12.6893,-12.8009,-12.9396,-13.0276,-13.0783,-13.102,-13.1088,-13.0986,-13.0682,-13.0411,-12.9667,-12.8415,-12.7468,-12.6337,-12.5345,-12.5344,-12.6021,-12.7041,-12.8043,-12.8723,-12.9314,-12.9624,-12.9721,-12.9611,-12.8804,-12.84,-12.7996,-12.7189,-12.6711,-12.6381,-12.5867,-12.5684,-12.5573,-12.4803,-12.4986,-12.55,-12.4399,-12.4803,-12.55,-12.4693,-12.4509,-12.4399,-12.4215,-12.3701,-12.3408,-12.3701,-12.2894,-12.2086,-12.2086,-12.1499,-12.0618,-11.9774,-11.937,-11.8783,-11.7425,-11.7021,-11.6617,-11.6103,-11.5993,-11.5993,-11.5993,-11.5516,-11.5185,-11.5185,-11.4782,-11.4488,-11.4488,-11.4488,-11.4485,-11.4521,-11.4305,-11.4609,-11.5512,-11.4781,-11.5022,-11.6522,-11.5916,-11.5916,-11.6484,-11.6484,-11.6484,-11.6484,-11.6792,-11.6984,-9.0728,-9.4828,-9.8269,-10.0304,-10.3206,-10.5899,-10.7096,-10.8506,-10.9738,-10.9889,-11.0329,-11.0583,0.0,0.0,-11.1298,-11.7894,-11.8605,-12.0398,-12.6216,-12.4592,-12.219,0.0,0.0,0.0,0.0,0.0,0.0,-12.4389,0.0,-12.6521,-12.8212,-13.0309,-13.1121,-13.0479,-13.1798,-13.2102,-13.1426,-13.0614,-12.9193,-12.6994,-12.6994,-12.581,-12.3645,-12.5345,-12.5736,-12.5328,-12.7824,-12.8964,-12.9243,-13.0152,-13.0462,-13.0419,-12.9611,-12.8804,-12.8106,-12.7189,-12.6381,-12.5794,-12.5684,-12.5684,-12.5573,-12.4803,-12.5096,-12.539,-12.3885,-12.4509,-12.55,-12.4803,-12.4582,-12.4693,-12.55,-12.4582,-12.3591,-12.4289,-12.3298,-12.2196,-12.2086,-12.1499,-12.0618,-11.9774,-11.8893,-11.8122,-11.7425,-11.658,-11.5993,-11.6103,-11.6103,-11.5993,-11.5993,-11.5993,-11.5993,-11.5993,-11.5993,-11.5993,-11.5993,-11.5993,-11.5968,-11.6147,-11.5414,-11.5426,-11.6373,-11.5706,-11.5702,-11.6484,-11.6484,-11.6484,-11.6484,-11.6484,-11.6599,-11.6599,-11.7484,-11.7907,-9.5636,-9.9286,-10.2398,-10.4403,-10.6288,-10.7575,-10.7396,-10.8194,-10.8788,-10.901,-10.712,-10.5216,0.0,0.0,0.0,-11.441,-11.9112,0.0,-12.7299,-12.7197,0.0,0.0,0.0,-12.2123,-12.0702,-12.0905,0.0,0.0,-12.5201,-12.6622,-13.0411,-13.1121,-13.1832,-13.2813,-13.261,-13.2102,-13.1426,-13.0106,-12.8618,-12.6994,-12.6994,-12.6081,-12.4389,-12.4246,-12.4865,-12.6018,-12.669,-12.7791,-12.9198,-12.9944,-13.0445,-13.0419,-12.9611,-12.9207,-12.8804,-12.7409,-12.6785,-12.6491,-12.5904,-12.5684,-12.5684,-12.5463,-12.55,-12.5573,-12.5206,-12.539,-12.5684,-12.5463,-12.539,-12.539,-12.5573,-12.539,-12.4986,-12.4582,-12.3701,-12.2784,-12.2196,-12.1499,-12.0618,-11.9774,-11.8489,-11.7608,-11.8012,-11.6911,-11.6397,-11.7608,-11.6801,-11.5993,-11.5993,-11.5993,-11.5993,-11.5993,-11.5993,-11.5993,-11.5993,-11.5993,-11.5975,-11.6041,-11.5986,-11.6082,-11.6291,-11.6193,-11.6309,-11.6484,-11.6484,-11.6484,-11.6484,-11.7215,-11.7484,-11.7484,-11.8407,-11.8792,-9.9586,-10.2907,-10.551,-10.6917,-10.8263,-10.8772,-10.6917,-10.6378,-10.5685,-10.4149,-10.1603,0.0,0.0,0.0,0.0,0.0,0.0,0.0,-12.7806,-12.8314,-12.7603,0.0,-12.6115,0.0,-12.4491,-12.4389,-12.5404,0.0,0.0,-12.7197,-13.0715,-13.1527,-13.2305,-13.3117,-13.3083,-13.2508,-13.1426,-13.0276,-12.8787,-12.6994,-12.6994,-12.6182,-12.4694,-12.4288,-12.4603,-12.5563,0.0,-12.706,-12.8982,-12.9169,-13.0004,-13.0896,-12.9795,-12.9097,-12.862,-12.7409,-12.6711,-12.6308,-12.5867,-12.5684,-12.5684,-12.5684,-12.5684,-12.5684,-12.5684,-12.5684,-12.5684,-12.5684,-12.539,-12.528,-12.5573,-12.539,-12.4986,-12.4179,-12.3885,-12.3408,-12.1903,-12.1499,-12.0985,-11.9407,-11.8306,-11.7792,-11.7902,-11.7388,-11.7388,-11.8306,-11.7608,-11.7094,-11.7094,-11.669,-11.6397,-11.5993,-11.6287,-11.6397,-11.5993,-11.5993,-11.623,-11.6564,-11.6434,-11.6501,-11.6928,-11.6597,-11.6474,-11.6484,-11.6484,-11.6676,-11.71,-11.76,-11.8023,-11.8407,-11.9215,-11.96,-10.2907,-10.581,-10.7904,-10.8473,-10.952,-10.952,-10.5929,-10.4044,-10.1815,-9.7701,0.0,-9.4232,-9.3499,0.0,-10.1487,-10.893,0.0,-12.0195,-12.8212,-12.8889,-12.8821,-12.9396,-12.8922,-12.8517,-12.8517,-12.7975,-12.8483,-13.058,-12.899,-12.8686,-13.0479,-13.1798,-13.2508,-13.2677,-13.3219,-13.2914,-13.1595,-13.0715,-12.9295,-12.7299,-12.7096,-12.6216,-12.4897,-12.4728,-12.4694,-12.4749,0.0,0.0,-12.8547,-12.8066,-12.9344,-13.1373,-12.9905,-12.8914,-12.8106,-12.7225,-12.6491,-12.5794,-12.5684,-12.5684,-12.5684,-12.5684,-12.5684,-12.5684,-12.5684,-12.5684,-12.5684,-12.5684,-12.517,-12.4803,-12.55,-12.517,-12.4509,-12.3701,-12.3995,-12.3885,-12.1572,-12.1389,-12.1095,-11.9003,-11.8489,-11.8195,-11.7608,-11.8012,-11.8489,-11.8709,-11.8489,-11.8416,-11.8489,-11.7902,-11.7094,-11.6397,-11.6801,-11.704,-11.6451,-11.623,-11.6564,-11.7512,-11.6886,-11.6915,-11.7823,-11.7191,-11.6787,-11.6792,-11.6792,-11.7215,-11.8023,-11.81,-11.86,-11.9408,-12.01,-12.0485,-10.578,-10.8204,-10.9819,-10.9939,-11.0597,-10.9819,-10.4912,-10.2309,0.0,0.0,-9.2906,-9.0983,-9.1623,-9.573,0.0,-10.8287,0.0,0.0,0.0,0.0,-13.0918,0.0,0.0,0.0,0.0,0.0,0.0,0.0,0.0,0.0,0.0,-13.2407,-13.2813,-13.3489,-13.2982,-13.261,-13.2305,-13.0986,-12.9802,-12.8787,-12.7603,-12.6521,-12.5709,-12.4998,-12.4694,-12.4694,0.0,0.0,-12.7744,-12.7743,-12.8845,-13.0602,-12.9721,-12.9207,-12.8914,-12.7409,-12.6785,-12.6601,-12.5904,-12.5684,-12.5684,-12.5684,-12.5684,-12.5684,-12.5684,-12.5684,-12.5684,-12.5684,-12.5573,-12.55,-12.5684,-12.5573,-12.528,-12.4509,-12.4399,-12.3995,-12.227,-12.0875,-11.9884,-11.948,-11.8893,-11.8599,-11.9076,-11.8709,-11.8893,-12.0288,-11.9297,-11.8599,-11.9297,-11.8709,-11.8122,-11.8012,-11.7498,-11.7462,-11.8092,-11.747,-11.7587,-11.8496,-11.8493,-11.8501,-11.8719,-11.8703,-11.8623,-11.86,-11.86,-11.8715,-11.8908,-11.9485,-12.0292,-12.1177,-12.1293,-12.1793,-10.8618,-10.9973,-11.0418,-11.0717,-11.0298,-10.8114,-10.18,0.0,0.0,0.0,-8.9495,-8.8982,-8.9966,0.0,0.0,0.0,0.0,0.0,0.0,0.0,0.0,0.0,0.0,0.0,0.0,0.0,0.0,0.0,0.0,0.0,0.0,-13.332,-13.332,-13.3692,-13.2914,-13.2508,-13.2508,-13.0986,-12.9904,-12.9193,-12.8111,-12.6994,-12.5912,-12.5506,-12.51,-12.4694,-12.4322,0.0,-12.8133,-12.7355,-12.8571,-13.1006,-12.9795,-12.9318,-12.9097,-12.7519,-12.6895,-12.6785,-12.5977,-12.5684,-12.5684,-12.5684,-12.5684,-12.5684,-12.5684,-12.5684,-12.5684,-12.5684,-12.5684,-12.5684,-12.5684,-12.5684,-12.55,-12.4693,-12.3885,-12.3188,-12.2784,-12.1389,-12.0288,-12.0288,-11.9994,-11.9811,-12.0214,-11.9994,-12.0288,-12.1903,-12.0802,-11.9994,-12.0802,-12.0592,-12.0067,-11.9342,-11.8773,-11.8845,-11.9292,-11.9031,-11.8985,-11.952,-12.0029,-12.0111,-11.961,-11.9728,-11.9485,-11.91,-11.91,-11.9485,-12.0408,-12.0793,-12.16,-12.2908,-12.2485,-12.2485,-11.0183,-11.0864,-11.0597,-11.0807,-10.94,-10.5989,-9.8568,-9.5426,0.0,0.0,-8.6272,-8.7172,-8.8801,0.0,0.0,0.0,0.0,0.0,0.0,0.0,0.0,0.0,0.0,0.0,0.0,0.0,0.0,0.0,0.0,0.0,0.0,-13.4098,-13.3692,-13.3692,-13.3083,-13.2779,-13.2779,-13.1392,-13.0411,-12.9701,-12.8787,-12.7637,-12.6385,-12.6013,-12.5607,-12.4897,-12.4186,0.0,0.0,-12.7555,-12.8942,-13.1593,-13.0309,-12.9721,-12.9391,-12.7813,-12.7189,-12.7005,-12.5977,-12.5684,-12.5684,-12.5684,-12.5684,-12.5684,-12.5684,-12.5684,-12.5684,-12.5684,-12.5684,-12.5684,-12.5684,-12.5684,-12.55,-12.4876,-12.3701,-12.2784,-12.3408,-12.2417,-12.1389,-12.1389,-12.1389,-12.1389,-12.1389,-12.1389,-12.1793,-12.3114,-12.2196,-12.1609,-12.1976,-12.243,-12.2092,-12.0883,-12.0397,-12.0343,-12.0572,-12.0519,-12.0583,-12.1007,-12.1466,-12.151,-12.0908,-12.0716,-12.0408,-11.9908,-11.9908,-12.06,-12.21,-12.21,-12.2908,-12.4409,-12.3524,-12.3216,-10.8388,-10.993,-11.0927,-10.9819,-10.8084,-10.4523,-9.6653,0.0,0.0,-8.5754,-8.4668,-8.5323,-8.8472,0.0,0.0,0.0,0.0,-11.0181,0.0,0.0,0.0,0.0,0.0,0.0,0.0,0.0,0.0,0.0,0.0,0.0,0.0,0.0,-13.3692,-13.3692,-13.3625,-13.3591,-13.3591,-13.2711,-13.1899,-13.1223,-12.9802,-12.8686,-12.7908,-12.6521,-12.5912,-12.5709,0.0,0.0,0.0,-12.8653,-12.9757,-13.1703,-13.1483,-13.1006,-13.0199,-12.8583,-12.7996,-12.7776,-12.6197,-12.5684,-12.5684,-12.5684,-12.5684,-12.5684,-12.5684,-12.5684,-12.5684,-12.5684,-12.5684,-12.5684,-12.5684,-12.5684,-12.5684,-12.5573,-12.4876,-12.4289,-12.4399,-12.3701,-12.3114,-12.3114,-12.3114,-12.3114,-12.3114,-12.3114,-12.3114,-12.3298,-12.3188,-12.282,-12.2196,-12.2911,-12.3348,-12.3426,-12.2106,-12.1479,-12.2428,-12.1803,-12.2001,-12.3571,-12.3082,-12.2707,-12.2716,-12.1908,-12.1793,-12.2524,-12.2601,-12.2985,-12.3909,-12.3909,-12.4409,-12.5293,-12.4409,-12.3985,-10.9167,-11.029,-11.0508,-10.961,-10.6707,-10.2309,-9.5546,0.0,-8.8497,-8.4999,-8.4919,-8.6272,-8.87,-8.9816,-9.1271,-9.3977,-9.5398,-9.9322,0.0,0.0,0.0,0.0,0.0,0.0,0.0,0.0,0.0,0.0,0.0,0.0,0.0,0.0,-13.42,-13.3692,-13.3692,-13.3692,-13.3692,-13.2508,-13.1696,-13.1426,-12.9904,-12.8821,-12.8111,-12.7502,-12.6724,-12.5912,0.0,0.0,0.0,-12.6864,-12.7942,-13.0113,-12.9604,-12.9898,-13.0382,-12.9207,-12.8804,-12.8694,-12.7482,-12.6785,-12.6381,-12.6381,-12.6087,-12.5684,-12.5684,-12.5684,-12.5684,-12.5684,-12.5684,-12.5684,-12.5684,-12.5684,-12.5573,-12.5096,-12.4693,-12.4509,-12.4509,-12.3885,-12.3408,-12.3922,-12.3591,-12.3518,-12.3922,-12.3591,-12.3591,-12.4582,-12.3922,-12.3408,-12.3481,-12.453,-12.5006,-12.4591,-12.3493,-12.3266,-12.4222,-12.4007,-12.3881,-12.4101,-12.4293,-12.4216,-12.3601,-12.3293,-12.3293,-12.3601,-12.3101,-12.3601,-12.4909,-12.4409,-12.4486,-12.5409,-12.4486,-12.4101,-11.0086,-11.1407,-11.1602,-11.1369,-10.7578,-10.2381,0.0,0.0,-8.8612,-8.5439,-8.5629,-8.7024,-8.8813,-8.9072,-8.941,-9.0459,-9.0324,-9.3064,-10.1622,-10.4295,0.0,0.0,0.0,0.0,0.0,0.0,0.0,0.0,0.0,0.0,0.0,0.0,-13.5012,-13.4098,-13.3794,-13.3692,-13.3692,-13.2407,-13.1629,-13.1426,-13.0106,-12.9125,-12.8415,-12.8212,-12.74,-12.6216,0.0,0.0,0.0,-12.6052,-12.7146,-12.9451,-12.891,-12.9386,-13.0419,-12.9611,-12.9318,-12.9207,-12.84,-12.7702,-12.7189,-12.7005,-12.6675,-12.6271,-12.5794,-12.5684,-12.5684,-12.5684,-12.5684,-12.5684,-12.5684,-12.5684,-12.5573,-12.4986,-12.4876,-12.4876,-12.4876,-12.4399,-12.4179,-12.4693,-12.4399,-12.4215,-12.4803,-12.4399,-12.4399,-12.55,-12.4693,-12.4105,-12.4509,-12.5436,-12.5873,-12.5383,-12.523,-12.5268,-12.6091,-12.5909,-12.5601,-12.5216,-12.5293,-12.5216,-12.4909,-12.4409,-12.4293,-12.4909,-12.4101,-12.4293,-12.5794,-12.5178,-12.5216,-12.5794,-12.5178,-12.4716,-11.047,-11.3643,-11.5304,-11.524,-11.1055,-10.54,0.0,0.0,-8.9322,-8.7004,-8.6513,-8.7024,-8.8813,-8.9072,-8.9106,-8.9106,-9.0966,-9.4992,-10.2502,-10.5479,0.0,0.0,0.0,0.0,0.0,0.0,0.0,0.0,0.0,0.0,0.0,0.0,-13.6297,-13.4809,-13.4098,-13.3692,-13.3692,-13.2914,-13.2102,-13.1426,-13.0614,-12.9904,-12.9193,-12.8415,-12.7705,0.0,0.0,0.0,0.0,-12.7404,-12.8449,-13.0353,-13.0353,-13.0404,-13.0419,-12.9611,-12.9318,-12.9207,-12.84,-12.8106,-12.7996,-12.7189,-12.7409,-12.7776,-12.6197,-12.5684,-12.5684,-12.5684,-12.5684,-12.5684,-12.5684,-12.5684,-12.5684,-12.5684,-12.5684,-12.5684,-12.5684,-12.5684,-12.5684,-12.5684,-12.5684,-12.5684,-12.5684,-12.5684,-12.5684,-12.5684,-12.5684,-12.539,-12.4582,-12.5264,-12.6009,-12.6213,-12.7091,-12.7676,-12.7898,-12.7101,-12.6986,-12.7794,-12.6294,-12.5794,-12.6601,-12.4986,-12.4909,-12.6601,-12.5794,-12.5794,-12.6678,-12.6678,-12.6678,-12.6678,-12.6678,-12.6178,-10.141,-10.4531,-10.7011,-10.4626,-10.1255,-9.775,-9.4233,0.0,0.0,-8.6708,-8.648,-8.7024,-8.8813,-8.9072,-8.9918,-9.2522,-9.3503,-9.5533,-9.9897,0.0,0.0,0.0,0.0,0.0,0.0,0.0,0.0,0.0,0.0,0.0,0.0,0.0,0.0,-13.4809,-13.4572,-13.42,-13.3692,-13.2407,-13.1629,-13.1426,-13.0106,-12.9396,-12.9193,-12.899,0.0,0.0,0.0,0.0,0.0,-12.4944,-12.582,-12.7376,-12.6358,-12.6764,-12.7757,-12.8316,-12.8763,-12.9313,-12.9629,-12.9721,-12.9611,-12.8804,-12.829,-12.7996,-12.7482,-12.7005,-12.6381,-12.5867,-12.5684,-12.5684,-12.5684,-12.5684,-12.5684,-12.5684,-12.5684,-12.5684,-12.5684,-12.5684,-12.5684,-12.5684,-12.5684,-12.5684,-12.5684,-12.5684,-12.5684,-12.5684,-12.6315,-12.6614,-12.6428,-12.7784,-12.8899,-12.8868,-12.98,-12.9998,-12.8909,-12.8602,-12.8486,-12.8794,-12.8294,-12.8102,-12.8409,-12.7909,-12.7794,-12.8409,-12.6986,-12.6717,-12.7486,-12.6409,-12.5794,-12.5794,-12.5216,-12.4486,0.0,-10.0702,-10.3076,-10.1092,-9.823,0.0,0.0,0.0,0.0,0.0,-8.7529,-8.7795,-8.8926,-8.9072,-8.985,-9.2218,-9.2827,-9.4451,-9.851,0.0,0.0,0.0,0.0,0.0,0.0,0.0,0.0,0.0,0.0,0.0,0.0,0.0,0.0,-13.5215,-13.4707,-13.42,-13.3692,-13.2204,-13.1426,-13.1426,-12.9904,-12.9092,-12.8821,-12.9092,0.0,0.0,0.0,0.0,0.0,-12.422,-12.4941,-12.6047,-12.4943,-12.5291,-12.6551,-12.6877,-12.7828,-12.8773,-12.9425,-13.0,-13.0382,-12.9611,-12.8583,-12.7702,-12.7996,-12.7519,-12.6711,-12.5904,-12.5684,-12.5684,-12.5684,-12.5684,-12.5684,-12.5684,-12.5684,-12.5684,-12.5684,-12.5684,-12.5684,-12.5684,-12.5684,-12.5684,-12.5684,-12.5977,-12.6213,-12.6294,-12.7113,-12.7808,-12.8196,-12.9078,-12.9885,-13.0554,-13.1026,-13.0919,-13.0217,-12.991,-12.9717,-12.9717,-12.941,-12.9294,-12.9717,-12.941,-12.9217,-12.9217,-12.7909,-12.7217,-12.7409,-12.6409,-12.5909,-12.5909,-12.4986,-12.4293,0.0,-10.0405,0.0,0.0,0.0,0.0,0.0,0.0,0.0,0.0,0.0,-8.9106,-8.914,-8.9106,-8.9173,-8.9444,-9.0121,-9.2624,-9.8442,0.0,0.0,0.0,0.0,0.0,0.0,0.0,0.0,0.0,0.0,0.0,0.0,0.0,0.0,0.0,-13.4403,-13.3692,-13.3692,-13.2204,-13.1426,-13.1426,-12.9904,-12.8821,-12.8212,-12.8821,0.0,0.0,0.0,0.0,0.0,-12.4694,-12.5267,-12.6007,-12.5246,-12.554,-12.6341,-12.5657,-12.654,-12.8188,-12.8159,-12.9243,-13.0492,-12.9611,-12.84,-12.7299,-12.7996,-12.7519,-12.6711,-12.5904,-12.5684,-12.5684,-12.5684,-12.5684,-12.5684,-12.5684,-12.5684,-12.5684,-12.5684,-12.5684,-12.5684,-12.5684,-12.5684,-12.5684,-12.5684,-12.6308,-12.6949,-12.7197,-12.7945,-12.8898,-12.9985,-12.9455,-12.9739,-13.138,-13.0871,-13.0756,-13.159,-13.0987,-13.0602,-13.0602,-12.9794,-12.9717,-13.0602,-12.9794,-12.941,-12.9294,-12.8409,-12.7486,-12.6678,-12.6678,-12.6678,-12.6678,-12.5794,-12.5409,-8.7854,0.0,-9.3436,-9.1338,-9.0154,-8.9579,0.0,0.0,0.0,0.0,0.0,-8.9241,-8.985,-8.9478,-9.0019,-9.2928,-9.4011,-9.5973,-10.0269,0.0,0.0,0.0,0.0,0.0,0.0,0.0,0.0,0.0,0.0,0.0,0.0,0.0,0.0,0.0,-13.42,-13.3692,-13.3692,-13.2204,-13.1426,-13.1426,-12.9904,-12.9092,-12.8922,-12.8517,0.0,0.0,0.0,0.0,-12.4694,-12.4694,-12.4837,-12.5063,-12.4127,-12.4932,-12.6342,-12.6291,-12.7841,-12.9828,-12.9935,-13.0545,-13.13,-13.0492,-13.0015,-12.9611,-12.9097,-12.7592,-12.5904,-12.5794,-12.5684,-12.5684,-12.5684,-12.5684,-12.5684,-12.5684,-12.5684,-12.5684,-12.5684,-12.5684,-12.5684,-12.5684,-12.5684,-12.5684,-12.5684,-12.5867,-12.6323,-12.7085,-12.8624,-12.9985,-13.1026,-13.2164,-13.2903,-13.2685,-13.2455,-13.2216,-13.1718,-13.1487,-13.141,-13.141,-13.1179,-13.1179,-13.141,-13.1179,-13.0794,-13.0217,-12.8717,-12.7486,-12.6678,-12.6678,-12.6678,-12.6678,-12.5794,-12.5409,-8.464,-8.6399,-8.7854,-8.6264,-8.5858,-8.6163,0.0,0.0,0.0,0.0,0.0,0.0,-8.9613,0.0,0.0,-9.2252,-9.3842,0.0,0.0,0.0,0.0,0.0,0.0,0.0,0.0,0.0,0.0,0.0,0.0,0.0,0.0,0.0,0.0,0.0,0.0,-13.3117,-13.3117,-13.2001,-13.1223,-13.0885,-12.9701,-12.9024,-12.8719,-12.8618,0.0,0.0,0.0,0.0,-12.4694,-12.4694,-12.4694,-12.4626,-12.3916,-12.4161,-12.5025,-12.5366,-12.6683,-12.8725,-12.9162,-13.0113,-13.1079,-13.0602,-13.0015,-12.9318,-12.8914,-12.7299,-12.5794,-12.6087,-12.5977,-12.5684,-12.5684,-12.5977,-12.6197,-12.5794,-12.5977,-12.6087,-12.5794,-12.5684,-12.5684,-12.5684,-12.5684,-12.5794,-12.6197,-12.6271,-12.6728,-12.8127,-12.9576,-13.1114,-13.2471,-13.3631,-13.4103,-13.3603,-13.318,-13.2603,-13.1795,-13.1679,-13.1679,-13.1679,-13.1679,-13.1679,-13.1679,-13.1679,-13.1102,-12.991,-12.8217,-12.7101,-12.6678,-12.6678,-12.6678,-12.6678,-12.6601,-12.6294,-8.4911,-8.5046,-8.5046,-8.4708,-8.4708,-8.5182,0.0,0.0,0.0,0.0,0.0,0.0,0.0,0.0,0.0,0.0,0.0,0.0,0.0,0.0,0.0,0.0,0.0,0.0,0.0,0.0,0.0,0.0,0.0,0.0,0.0,0.0,0.0,0.0,0.0,-13.2407,-13.2204,-13.1527,-13.0918,-13.0276,-12.9599,-12.8889,-12.8314,-12.8686,-12.7806,0.0,0.0,0.0,-12.4694,-12.4694,-12.4694,-12.4626,-12.4017,-12.3868,-12.428,-12.452,-12.5556,-12.7236,-12.8063,-12.9352,-13.0492,-13.0382,-12.9501,-12.84,-12.818,-12.7078,-12.6197,-12.6711,-12.6381,-12.5904,-12.5904,-12.6381,-12.6711,-12.5977,-12.6308,-12.6601,-12.5977,-12.5794,-12.5684,-12.5684,-12.5794,-12.6087,-12.6785,-12.7005,-12.776,-12.9354,-13.0589,-13.2022,-13.3766,-13.4437,-13.4603,-13.4295,-13.3603,-13.2795,-13.1795,-13.1679,-13.1679,-13.1679,-13.1679,-13.1679,-13.1679,-13.1602,-13.0794,-12.941,-12.7717,-12.6909,-12.7101,-12.6909,-12.6986,-12.7101,-12.7794,-12.7717,-8.6196,-8.7008,-8.7008,-8.5114,-8.5114,-8.5824,0.0,0.0,0.0,0.0,0.0,0.0,0.0,0.0,0.0,0.0,0.0,0.0,0.0,0.0,0.0,0.0,0.0,0.0,0.0,0.0,0.0,0.0,0.0,0.0,0.0,0.0,0.0,0.0,0.0,-13.1899,-13.0614,-13.0512,-13.0377,-13.0276,-12.9599,-12.9125,-12.899,-12.7874,-12.7163,0.0,0.0,-12.4897,-12.4694,-12.4694,-12.4694,-12.4694,-12.4592,-12.5506,-12.6733,-12.6959,-12.8232,-12.9839,-12.9972,-13.0284,-13.0382,-12.9721,-12.9795,-12.9905,-12.851,-12.7886,-12.7592,-12.7078,-12.6785,-12.6711,-12.6711,-12.6785,-12.6895,-12.6711,-12.6308,-12.5977,-12.6601,-12.6197,-12.5684,-12.5684,-12.6197,-12.6785,-12.6895,-12.7482,-12.825,-12.9429,-13.1077,-13.2589,-13.3766,-13.5395,-13.5911,-13.4487,-13.4218,-13.341,-13.1795,-13.1679,-13.1679,-13.1679,-13.1679,-13.1679,-13.1679,-13.0987,-13.0602,-13.0294,-12.8602,-12.8102,-12.8794,-12.8102,-12.8102,-12.8794,-12.8909,-12.8909,-8.5486,-8.5926,-8.6129,-8.5926,-8.6433,0.0,0.0,0.0,0.0,0.0,0.0,0.0,0.0,0.0,0.0,0.0,0.0,0.0,0.0,0.0,0.0,0.0,0.0,0.0,0.0,0.0,0.0,0.0,0.0,0.0,0.0,0.0,0.0,0.0,0.0,0.0,-12.9701,-12.9295,-12.9092,-12.9092,-12.8381,-12.8009,-12.7975,-12.7299,-12.6791,-12.6385,0.0,-12.5303,-12.5303,-12.4897,-12.4998,-12.5303,-12.4897,-12.5249,-12.6158,-12.7235,-12.8538,-12.9756,-13.0259,-13.0492,-13.0419,-13.0088,-12.9905,-12.9721,-12.8987,-12.84,-12.7996,-12.7702,-12.7189,-12.6895,-12.6895,-12.7519,-12.8106,-12.7702,-12.7592,-12.7592,-12.7592,-12.7299,-12.7005,-12.7005,-12.7299,-12.7702,-12.8106,-12.8106,-12.8566,-12.9898,-13.1415,-13.2666,-13.3681,-13.5597,-13.6296,-13.5103,-13.4603,-13.3795,-13.2487,-13.1987,-13.1679,-13.1679,-13.1679,-13.1679,-13.1679,-13.091,-13.0487,-13.0487,-12.9294,-12.8794,-12.9217,-12.8794,-12.8794,-12.9217,-12.9717,-12.991,-8.5046,-8.5283,-8.5655,0.0,0.0,0.0,0.0,0.0,0.0,0.0,0.0,0.0,0.0,0.0,0.0,0.0,0.0,0.0,0.0,0.0,0.0,0.0,0.0,0.0,0.0,0.0,0.0,0.0,0.0,0.0,0.0,0.0,0.0,0.0,0.0,0.0,-12.899,-12.8212,-12.784,-12.7806,-12.7299,-12.6994,-12.6994,-12.6791,-12.6419,-12.5912,-12.5709,-12.5607,-12.5607,-12.4998,-12.51,-12.5506,-12.4795,-12.4532,-12.4653,-12.6333,-12.7825,-12.8961,-12.9674,-13.0199,-13.0419,-13.0088,-12.9795,-12.9501,-12.9097,-12.8694,-12.829,-12.818,-12.7813,-12.7409,-12.7189,-12.8106,-12.8914,-12.851,-12.8694,-12.8914,-12.851,-12.8216,-12.8106,-12.8106,-12.829,-12.8583,-12.9207,-12.8914,-12.9097,-13.0309,-13.1814,-13.289,-13.3607,-13.5527,-13.6488,-13.5603,-13.4911,-13.418,-13.3103,-13.241,-13.191,-13.1679,-13.1679,-13.1679,-13.1679,-13.1102,-13.0794,-13.0794,-12.991,-12.9602,-12.9794,-12.9602,-12.9602,-12.9794,-13.0487,-13.0794,-8.6366,-8.7245,-8.7617,0.0,0.0,0.0,0.0,0.0,0.0,0.0,0.0,0.0,0.0,0.0,0.0,0.0,0.0,0.0,0.0,0.0,0.0,0.0,0.0,0.0,0.0,0.0,0.0,0.0,0.0,0.0,0.0,0.0,0.0,0.0,0.0,0.0,-12.8212,-12.74,-12.7096,-12.7096,-12.6994,-12.6994,-12.6994,-12.6284,-12.5979,-12.5912,-12.51,-12.4795,-12.4795,-12.4694,-12.4694,-12.4694,-12.4017,-12.3765,-12.4181,-12.5112,-12.6611,-12.8093,-12.8175,-12.9281,-13.0309,-12.8804,-12.9207,-13.0088,-12.8583,-12.8694,-12.9097,-12.829,-12.8583,-12.8987,-12.818,-12.8106,-12.84,-12.9024,-12.8694,-12.84,-12.9097,-12.862,-12.8106,-12.8106,-12.8694,-12.9207,-12.9318,-12.9905,-13.0382,-13.0492,-13.23,-13.3607,-13.3682,-13.5527,-13.6488,-13.5603,-13.5411,-13.4795,-13.3103,-13.291,-13.2603,-13.1795,-13.1679,-13.1679,-13.1679,-13.1602,-13.1602,-13.1602,-13.0794,-13.0794,-13.1487,-13.0794,-13.0794,-13.1487,-13.1602,-13.1602,-8.5317,-8.6061,0.0,0.0,0.0,0.0,0.0,0.0,0.0,0.0,0.0,0.0,0.0,0.0,0.0,0.0,0.0,0.0,0.0,0.0,0.0,0.0,0.0,0.0,0.0,0.0,0.0,0.0,0.0,0.0,0.0,0.0,0.0,0.0,0.0,0.0,0.0,-12.6487,-12.6081,-12.5573,-12.5573,-12.5573,-12.5506,-12.4795,-12.4728,-12.51,-12.4322,-12.4592,-12.5404,-12.4897,-12.4694,-12.4715,-12.4612,-12.4571,-12.4669,-12.5244,-12.5811,-12.6305,-12.6506,-12.7562,-12.8877,-12.829,-12.8877,-12.9611,-12.9024,-12.9391,-12.9905,-12.9097,-12.9097,-12.9207,-12.8914,-12.9207,-12.9685,-13.0015,-12.9795,-12.9685,-13.0015,-12.9795,-12.9611,-12.9611,-12.9795,-13.0015,-13.0015,-13.0309,-13.0492,-13.0492,-13.2219,-13.3469,-13.3717,-13.5384,-13.6526,-13.6281,-13.5795,-13.4988,-13.391,-13.3795,-13.341,-13.2603,-13.1987,-13.1679,-13.1679,-13.1679,-13.1679,-13.1679,-13.141,-13.141,-13.1679,-13.141,-13.141,-13.1679,-13.1679,-13.1679,-8.393,-8.4302,0.0,0.0,0.0,0.0,0.0,0.0,0.0,0.0,0.0,0.0,0.0,0.0,0.0,0.0,0.0,0.0,0.0,0.0,0.0,0.0,0.0,0.0,0.0,0.0,0.0,0.0,0.0,0.0,0.0,0.0,0.0,0.0,0.0,0.0,0.0,-12.5404,-12.4897,-12.4322,-12.4119,-12.422,-12.4694,-12.3916,-12.3916,-12.4322,-12.3814,-12.422,-12.51,-12.4592,-12.4227,-12.4175,-12.4946,-12.4947,-12.4456,-12.4921,-12.4853,-12.4692,-12.5373,-12.6403,-12.7444,-12.7637,-12.84,-12.9318,-12.9318,-12.9905,-13.0382,-12.9795,-12.9721,-12.9721,-12.9721,-12.9905,-13.0199,-13.0419,-13.0492,-13.0492,-13.0492,-13.0492,-13.0492,-13.0492,-13.0492,-13.0492,-13.0492,-13.0492,-13.0492,-13.0492,-13.1853,-13.2971,-13.3232,-13.4815,-13.6201,-13.6704,-13.6296,-13.5603,-13.4718,-13.4718,-13.4295,-13.3487,-13.2603,-13.1987,-13.1679,-13.1679,-13.1679,-13.1679,-13.1679,-13.1679,-13.1679,-13.1679,-13.1679,-13.1679,-13.1679,-13.1679,-8.2441,0.0,0.0,0.0,0.0,0.0,0.0,0.0,0.0,0.0,0.0,0.0,0.0,0.0,0.0,0.0,0.0,0.0,0.0,0.0,0.0,0.0,0.0,0.0,0.0,0.0,0.0,0.0,0.0,0.0,0.0,0.0,0.0,0.0,0.0,0.0,0.0,-12.4322,-12.3611,-12.3611,-12.2799,-12.3273,-12.4694,-12.3916,-12.3611,-12.3611,-12.3611,-12.3611,-12.3577,-12.3577,-12.3335,-12.3004,-12.4655,-12.4349,-12.3113,-12.3965,-12.3792,-12.3413,-12.5126,-12.5563,-12.5746,-12.6633,-12.7996,-12.9318,-12.9318,-12.9905,-13.0492,-13.0492,-13.0492,-13.0492,-13.0492,-12.9905,-12.9501,-13.0309,-13.0492,-13.0492,-13.0492,-13.0492,-13.0492,-13.0492,-13.0492,-13.0492,-13.0492,-13.0492,-13.0492,-13.0492,-13.1372,-13.2142,-13.2104,-13.3876,-13.5589,-13.6689,-13.6796,-13.6488,-13.5603,-13.5488,-13.5218,-13.4411,-13.3487,-13.2603,-13.1679,-13.1679,-13.1679,-13.1679,-13.1679,-13.1679,-13.1679,-13.1679,-13.1679,-13.1679,-13.1679,-13.1679,-8.3964,0.0,0.0,0.0,0.0,0.0,0.0,0.0,0.0,0.0,0.0,0.0,0.0,0.0,0.0,0.0,0.0,0.0,0.0,0.0,0.0,0.0,0.0,0.0,0.0,0.0,0.0,0.0,0.0,0.0,0.0,0.0,0.0,0.0,0.0,0.0,0.0,-12.2529,-12.2292,-12.2799,-12.2596,-12.2698,-12.3104,-12.2393,-12.2326,-12.2799,-12.2292,-12.2987,-12.4632,-12.5437,-12.5842,-12.6433,-12.6382,-12.5759,-12.4683,-12.4461,-12.4167,-12.3937,-12.3901,-12.4729,-12.5726,-12.6024,-12.6785,-12.7702,-12.829,-12.8987,-12.9795,-13.0309,-13.0492,-13.0492,-13.0492,-13.0309,-13.0199,-13.0419,-13.0492,-13.0492,-13.0492,-13.0492,-13.0492,-13.0492,-13.0492,-13.0492,-13.0492,-13.0492,-13.0492,-13.0492,-13.1242,-13.2065,-13.2832,-13.4292,-13.5259,-13.5589,-13.6276,-13.668,-13.6411,-13.6411,-13.6103,-13.5218,-13.4411,-13.3487,-13.2679,-13.1987,-13.1679,-13.1679,-13.1679,-13.1987,-13.2603,-13.1987,-13.1987,-13.2603,-13.1987,-13.1679,0.0,0.0,0.0,0.0,0.0,0.0,0.0,0.0,0.0,0.0,0.0,0.0,0.0,0.0,0.0,0.0,0.0,0.0,0.0,0.0,0.0,0.0,0.0,0.0,0.0,0.0,0.0,0.0,0.0,0.0,0.0,0.0,0.0,0.0,0.0,0.0,-12.3096,-12.1763,-12.1456,-12.2173,-12.2207,-12.2579,-12.3124,-12.2673,-12.2549,-12.2617,-12.2492,-12.3523,-12.5256,-12.6253,-12.649,-12.6528,-12.6657,-12.6333,-12.5533,-12.5097,-12.4555,-12.3857,-12.4083,-12.4401,-12.4788,-12.5446,-12.6197,-12.7005,-12.7482,-12.8216,-12.8987,-12.9795,-13.0015,-13.0088,-13.0419,-13.0712,-13.0896,-13.0602,-13.0712,-13.0896,-13.0602,-13.0786,-13.0896,-13.0602,-13.0492,-13.0602,-13.0896,-13.1006,-13.1079,-13.141,-13.1593,-13.2108,-13.3186,-13.3691,-13.4287,-13.5128,-13.5789,-13.6276,-13.6834,-13.6796,-13.6603,-13.5988,-13.5218,-13.4487,-13.3987,-13.2487,-13.191,-13.2179,-13.2179,-13.2295,-13.2487,-13.2679,-13.2603,-13.2487,-13.2295,-13.1987,0.0,0.0,0.0,0.0,0.0,0.0,0.0,0.0,0.0,0.0,0.0,0.0,0.0,0.0,0.0,0.0,0.0,0.0,0.0,0.0,0.0,0.0,0.0,0.0,0.0,0.0,0.0,0.0,0.0,0.0,0.0,0.0,0.0,0.0,0.0,0.0,-12.4045,-12.172,-12.0957,0.0,-12.1927,-12.2669,-12.4172,-12.4106,-12.3628,-12.3038,-12.38,-12.4602,-12.5402,-12.6344,-12.5883,-12.4658,-12.6274,-12.6381,-12.5684,-12.5684,-12.4647,-12.3648,-12.5206,-12.4684,-12.3685,-12.517,-12.6197,-12.6785,-12.6895,-12.7409,-12.818,-12.8987,-12.9207,-12.9501,-13.0199,-13.1006,-13.1373,-13.0712,-13.1079,-13.1483,-13.0712,-13.1079,-13.1483,-13.0676,-13.0602,-13.0786,-13.1483,-13.1593,-13.1814,-13.2584,-13.2107,-13.2043,-13.2962,-13.2497,-13.2944,-13.4973,-13.5204,-13.5589,-13.6704,-13.6796,-13.6796,-13.6796,-13.5988,-13.5488,-13.5603,-13.3218,-13.2295,-13.3103,-13.3103,-13.2795,-13.1987,-13.3603,-13.3487,-13.1987,-13.2679,-13.2487,0.0,0.0,0.0,0.0,0.0,0.0,0.0,0.0,0.0,0.0,0.0,0.0,0.0,0.0,0.0,0.0,0.0,0.0,0.0,0.0,0.0,0.0,0.0,0.0,0.0,0.0,0.0,0.0,0.0,0.0,0.0,0.0,0.0,0.0,0.0,-12.3726,-12.4152,-12.2461,-12.1968,0.0,-12.3342,-12.3881,-12.4263,-12.4834,-12.4775,-12.3894,-12.4769,-12.5266,-12.5562,-12.7204,-12.7151,-12.6414,-12.6831,-12.6381,-12.5684,-12.5684,-12.5446,-12.517,-12.5583,-12.5483,-12.517,-12.5583,-12.5794,-12.6087,-12.6711,-12.7005,-12.7299,-12.8106,-12.8804,-12.9318,-12.9501,-13.0199,-13.0712,-13.0492,-13.1079,-13.1483,-13.0712,-13.1079,-13.1483,-13.0676,-13.1006,-13.13,-13.0786,-13.0786,-13.0786,-13.1006,-13.141,-13.1771,-13.2006,-13.2046,-13.2788,-13.4782,-13.5062,-13.5589,-13.6704,-13.6796,-13.6796,-13.6796,-13.5988,-13.5795,-13.6488,-13.4718,-13.3795,-13.3987,-13.3987,-13.4218,-13.4718,-13.4411,-13.4103,-13.3718,-13.318,-13.2487,0.0,0.0,0.0,0.0,0.0,0.0,0.0,0.0,0.0,0.0,0.0,0.0,0.0,0.0,0.0,0.0,0.0,0.0,0.0,0.0,0.0,0.0,0.0,0.0,0.0,0.0,0.0,0.0,0.0,0.0,0.0,0.0,0.0,0.0,-12.6702,-12.5275,-12.4925,-12.3269,-12.2662,-12.3091,-12.3876,-12.4924,-12.6125,-12.5594,-12.5713,-12.5981,-12.5679,-12.575,-12.6221,-12.67,-12.6675,-12.6308,-12.6308,-12.6087,-12.5684,-12.5684,-12.5684,-12.5684,-12.5684,-12.5684,-12.5684,-12.5684,-12.5684,-12.5794,-12.6197,-12.6308,-12.6491,-12.7299,-12.7813,-12.8326,-12.9097,-12.9905,-13.0492,-13.0492,-13.1079,-13.1483,-13.0712,-13.1079,-13.1483,-13.0676,-13.1116,-13.1593,-13.1116,-13.141,-13.1814,-13.2181,-13.2291,-13.2401,-13.2805,-13.2283,-13.2459,-13.4021,-13.4291,-13.4927,-13.5871,-13.6465,-13.6796,-13.6796,-13.6796,-13.6911,-13.7411,-13.6988,-13.6103,-13.4911,-13.4911,-13.4911,-13.4911,-13.5295,-13.5103,-13.4295,-13.4218,-13.3487,0.0,0.0,0.0,0.0,0.0,0.0,0.0,0.0,0.0,0.0,0.0,0.0,0.0,0.0,0.0,0.0,0.0,0.0,0.0,0.0,0.0,0.0,0.0,0.0,0.0,0.0,0.0,0.0,0.0,0.0,0.0,0.0,0.0,-13.1043,-12.9097,-12.7407,-12.5821,-12.4445,-12.3648,-12.3648,-12.4335,-12.5859,-12.7849,-12.6369,-12.6478,-12.7813,-12.6308,-12.6087,-12.6601,-12.5977,-12.5684,-12.5684,-12.5684,-12.5684,-12.5684,-12.5684,-12.5684,-12.5684,-12.5684,-12.5684,-12.5684,-12.5684,-12.5684,-12.5684,-12.5684,-12.5684,-12.5794,-12.6491,-12.6785,-12.7225,-12.8694,-12.9721,-13.0309,-13.0492,-13.1006,-13.13,-13.0602,-13.1079,-13.1483,-13.0676,-13.1006,-13.1483,-13.1483,-13.2181,-13.2915,-13.3392,-13.3025,-13.2915,-13.3612,-13.2401,-13.1988,-13.3441,-13.3683,-13.4178,-13.54,-13.6315,-13.6796,-13.6796,-13.7603,-13.8104,-13.8104,-13.8911,-13.8296,-13.6219,-13.6219,-13.5795,-13.4988,-13.6296,-13.618,-13.4487,-13.5218,-13.468,0.0,0.0,0.0,0.0,0.0,0.0,0.0,0.0,0.0,0.0,0.0,0.0,0.0,0.0,0.0,0.0,0.0,0.0,0.0,0.0,0.0,0.0,0.0,0.0,0.0,0.0,0.0,0.0,0.0,0.0,0.0,0.0,-13.0467,-12.8583,-12.829,-12.7674,-12.6663,-12.5748,-12.5446,-12.5446,-12.615,-12.6692,-12.7115,-12.6802,-12.6765,-12.7005,-12.6087,-12.5794,-12.5867,-12.5684,-12.5684,-12.5684,-12.5684,-12.5684,-12.5684,-12.5684,-12.5684,-12.5684,-12.5684,-12.5684,-12.5684,-12.5684,-12.5684,-12.5684,-12.5684,-12.5684,-12.5684,-12.5794,-12.6381,-12.7115,-12.7996,-12.8914,-12.9611,-13.0309,-13.0602,-13.0602,-13.0492,-13.1079,-13.1483,-13.0676,-13.0602,-13.0676,-13.0676,-13.13,-13.1703,-13.1079,-13.1483,-13.1887,-13.1997,-13.119,-13.1756,-13.4367,-13.4132,-13.447,-13.6371,-13.6704,-13.6796,-13.6796,-13.7603,-13.8104,-13.8104,-13.8911,-13.9104,-13.8796,-13.8796,-13.8411,-13.7603,-13.7796,-13.6988,-13.5295,-13.5411,-13.4988,0.0,0.0,0.0,0.0,0.0,0.0,0.0,0.0,0.0,0.0,0.0,0.0,0.0,0.0,0.0,0.0,0.0,0.0,0.0,0.0,0.0,0.0,0.0,0.0,0.0,0.0,0.0,0.0,0.0,0.0,0.0,-12.9461,-12.9685,-12.8106,-12.7702,-12.7299,-12.6895,-12.6087,-12.5684,-12.5684,-12.6087,-12.6197,-12.6197,-12.6197,-12.6197,-12.6197,-12.5867,-12.5684,-12.5684,-12.5684,-12.5684,-12.5684,-12.5684,-12.5684,-12.5684,-12.5684,-12.5684,-12.5684,-12.5684,-12.5684,-12.5684,-12.5684,-12.5684,-12.5684,-12.5684,-12.5684,-12.5684,-12.5684,-12.5977,-12.6491,-12.7776,-12.84,-12.8914,-13.0199,-13.0492,-13.0492,-13.0492,-13.0786,-13.1079,-13.119,-13.119,-13.119,-13.119,-13.1483,-13.1593,-13.119,-13.1483,-13.1887,-13.2291,-13.1703,-13.1739,-13.2999,-13.2874,-13.3445,-13.4889,-13.5627,-13.6392,-13.7527,-13.8296,-13.8988,-13.9488,-14.0296,-14.0796,-14.0796,-13.9796,-13.9104,-13.8796,-13.8296,-13.768,-13.6911,-13.6488,-13.5795,0.0,0.0,0.0,0.0,0.0,0.0,0.0,0.0,0.0,0.0,0.0,0.0,0.0,0.0,0.0,0.0,0.0,0.0,0.0,0.0,0.0,0.0,0.0,0.0,0.0,0.0,0.0,0.0,0.0,0.0,-12.785,-12.8581,-12.851,-12.7482,-12.7115,-12.6785,-12.6601,-12.5977,-12.5684,-12.5684,-12.5684,-12.5684,-12.5684,-12.5684,-12.5684,-12.5684,-12.5684,-12.5684,-12.5684,-12.5684,-12.5684,-12.5684,-12.5684,-12.5684,-12.5684,-12.5684,-12.5684,-12.5684,-12.5684,-12.5684,-12.5684,-12.5684,-12.5684,-12.5684,-12.5684,-12.5684,-12.5684,-12.5684,-12.5794,-12.6308,-12.7702,-12.829,-12.8804,-13.0199,-13.0492,-13.0492,-13.0492,-13.0492,-13.0712,-13.1483,-13.1703,-13.1777,-13.1997,-13.1997,-13.1997,-13.1997,-13.1777,-13.1887,-13.2511,-13.1887,-13.1477,-13.1813,-13.2201,-13.2869,-13.399,-13.4995,-13.6177,-13.7719,-13.8719,-13.9604,-14.0219,-14.1296,-14.1912,-14.1912,-14.0604,-13.9912,-13.9604,-13.8796,-13.8296,-13.8104,-13.7411,-13.668,0.0,0.0,0.0,0.0,0.0,0.0,0.0,0.0,0.0,0.0,0.0,0.0,0.0,0.0,0.0,0.0,0.0,0.0,0.0,0.0,0.0,0.0,0.0,0.0,0.0,0.0,0.0,0.0,0.0,0.0,-12.7975,-12.8143,-12.7409,-12.5867,-12.6491,-12.6491,-12.5794,-12.5684,-12.5684,-12.5684,-12.5684,-12.5684,-12.5684,-12.5684,-12.5684,-12.5684,-12.5684,-12.5684,-12.5684,-12.5684,-12.5684,-12.5684,-12.5684,-12.5684,-12.5684,-12.5684,-12.5684,-12.5684,-12.5684,-12.5684,-12.5684,-12.5684,-12.5684,-12.5684,-12.5684,-12.5684,-12.5684,-12.5684,-12.6197,-12.7005,-12.7886,-12.8694,-12.9501,-13.0309,-13.0492,-13.0492,-13.0492,-13.0492,-13.0712,-13.1483,-13.1703,-13.1887,-13.2695,-13.2805,-13.2805,-13.2805,-13.2181,-13.1703,-13.1777,-13.1079,-13.1002,-13.194,-13.2991,-13.3952,-13.5024,-13.6066,-13.6781,-13.6911,-13.8411,-13.9296,-13.9412,-14.0989,-14.1912,-14.1912,-14.1797,-14.1412,-14.0489,-13.9719,-13.8796,-13.8104,-13.8104,-13.7603,0.0,0.0,0.0,0.0,0.0,0.0,0.0,0.0,0.0,0.0,0.0,0.0,0.0,0.0,0.0,0.0,0.0,0.0,0.0,0.0,0.0,0.0,0.0,0.0,0.0,0.0,0.0,0.0,0.0,0.0,-12.5716,-12.6676,-12.6785,-12.5684,-12.5977,-12.5977,-12.5684,-12.5684,-12.5684,-12.5684,-12.517,-12.517,-12.5684,-12.517,-12.4876,-12.4986,-12.55,-12.5684,-12.5684,-12.5684,-12.5684,-12.5684,-12.5684,-12.5684,-12.5684,-12.5684,-12.5684,-12.5684,-12.5684,-12.5684,-12.5684,-12.5684,-12.5684,-12.5684,-12.5684,-12.5684,-12.5794,-12.6308,-12.6711,-12.7189,-12.851,-12.9097,-12.9501,-13.0309,-13.0492,-13.0492,-13.0492,-13.0492,-13.0712,-13.1483,-13.2107,-13.2584,-13.2915,-13.3319,-13.3502,-13.3025,-13.2181,-13.2162,-13.3395,-13.2417,-13.2107,-13.3713,-13.3784,-13.4065,-13.5128,-13.6062,-13.7101,-13.8281,-13.9488,-14.0412,-14.0912,-14.1604,-14.1912,-14.1912,-14.1912,-14.1681,-14.1412,-14.0604,-13.9989,-13.9681,-13.9104,-13.8719,-8.8564,0.0,0.0,0.0,0.0,0.0,0.0,0.0,0.0,0.0,0.0,0.0,0.0,0.0,0.0,0.0,0.0,0.0,0.0,0.0,0.0,0.0,0.0,0.0,0.0,0.0,0.0,0.0,0.0,0.0,-12.4399,-12.5737,-12.6271,-12.5684,-12.5684,-12.5684,-12.5684,-12.5684,-12.5684,-12.5684,-12.517,-12.4986,-12.528,-12.4693,-12.4399,-12.4105,-12.4913,-12.528,-12.528,-12.5573,-12.5684,-12.5684,-12.5684,-12.5684,-12.5684,-12.5684,-12.5684,-12.5684,-12.5684,-12.5684,-12.5684,-12.5684,-12.5684,-12.5684,-12.5684,-12.5684,-12.5867,-12.6711,-12.7115,-12.7592,-12.8987,-12.9501,-12.9795,-13.0382,-13.0492,-13.0602,-13.0786,-13.0896,-13.1116,-13.1887,-13.2805,-13.3392,-13.3722,-13.42,-13.431,-13.3392,-13.2927,-13.3088,-13.4396,-13.3696,-13.3582,-13.5229,-13.5162,-13.5339,-13.5967,-13.6902,-13.802,-13.9165,-14.0104,-14.0912,-14.1412,-14.1989,-14.2297,-14.2297,-14.2604,-14.272,-14.272,-14.1296,-14.0796,-14.0989,-14.0104,-13.9719,0.0,0.0,0.0,0.0,0.0,0.0,0.0,0.0,0.0,0.0,0.0,0.0,0.0,0.0,0.0,0.0,0.0,0.0,0.0,0.0,0.0,0.0,0.0,0.0,0.0,0.0,0.0,0.0,0.0,-12.4363,-12.4363,-12.5226,-12.5684,-12.5684,-12.5684,-12.5684,-12.5684,-12.5684,-12.5684,-12.5684,-12.5684,-12.528,-12.4509,-12.4509,-12.4105,-12.3408,-12.4179,-12.4509,-12.4509,-12.539,-12.5684,-12.5684,-12.5684,-12.5684,-12.5684,-12.5684,-12.5684,-12.5684,-12.5684,-12.5684,-12.5684,-12.5684,-12.5684,-12.5684,-12.5684,-12.5684,-12.5904,-12.6711,-12.7482,-12.829,-12.9097,-12.9905,-13.0492,-13.0492,-13.0492,-13.0712,-13.1483,-13.1703,-13.1997,-13.2805,-13.3612,-13.4383,-13.5227,-13.5411,-13.5081,-13.4343,-13.4371,-13.46,-13.4655,-13.4886,-13.527,-13.6217,-13.7191,-13.7815,-13.7815,-13.8828,-13.9296,-13.9296,-14.0219,-14.0604,-14.0681,-14.2181,-14.3105,-14.3105,-14.3989,-14.4412,-14.4412,-14.1912,-14.1104,-14.1912,-14.0989,-14.0604,-8.7685,0.0,0.0,0.0,0.0,0.0,0.0,0.0,0.0,0.0,0.0,0.0,0.0,0.0,0.0,0.0,0.0,0.0,0.0,0.0,0.0,0.0,0.0,0.0,0.0,0.0,0.0,0.0,-11.9956,-12.1841,-12.1841,-12.4334,-12.5684,-12.5684,-12.5684,-12.5684,-12.5684,-12.5684,-12.5684,-12.5684,-12.5096,-12.4986,-12.528,-12.4179,-12.3812,-12.4179,-12.4399,-12.4179,-12.3701,-12.5096,-12.5684,-12.5684,-12.5684,-12.5684,-12.5684,-12.5684,-12.5684,-12.5684,-12.5684,-12.5684,-12.5684,-12.5684,-12.5684,-12.5684,-12.5684,-12.6087,-12.6601,-12.6822,-12.7923,-12.9207,-13.0015,-13.0309,-13.0492,-13.0492,-13.0492,-13.0712,-13.1483,-13.2181,-13.2805,-13.3612,-13.3906,-13.4383,-13.5227,-13.5411,-13.5399,-13.5345,-13.5361,-13.6019,-13.7547,-13.7271,-13.7606,-13.918,-13.9076,-13.8943,-13.8943,-13.9726,-14.0219,-14.0219,-14.1104,-14.1797,-14.2412,-14.2912,-14.3412,-14.3989,-14.4297,-14.472,-14.5297,-14.3412,-14.2489,-14.2681,-14.1912,-14.1181,-8.8463,-8.8226,-8.8361,0.0,0.0,0.0,0.0,0.0,0.0,0.0,0.0,0.0,0.0,0.0,0.0,0.0,0.0,0.0,0.0,0.0,0.0,0.0,0.0,0.0,0.0,0.0,0.0,0.0,-11.9313,-12.1401,-12.2758,-12.472,-12.5684,-12.5684,-12.5684,-12.5684,-12.5684,-12.5684,-12.5684,-12.5684,-12.5206,-12.5096,-12.517,-12.4215,-12.3885,-12.3995,-12.4399,-12.4215,-12.3885,-12.517,-12.55,-12.5206,-12.5573,-12.5684,-12.5684,-12.5684,-12.5684,-12.5684,-12.5684,-12.5684,-12.5684,-12.5684,-12.5684,-12.5684,-12.5684,-12.5977,-12.6491,-12.6785,-12.8106,-12.9428,-12.9905,-13.0199,-13.0602,-13.0896,-13.1006,-13.13,-13.2474,-13.3098,-13.375,-13.4561,-13.5068,-13.5566,-13.664,-13.6736,-13.6481,-13.6019,-13.6313,-13.7086,-13.83,-13.8494,-13.9306,-14.1396,-14.1181,-14.0989,-14.1412,-14.1604,-14.1604,-14.1604,-14.2104,-14.2604,-14.3105,-14.3797,-14.4412,-14.4913,-14.5297,-14.5297,-14.522,-14.4105,-14.3489,-14.3105,-14.2297,-14.1604,-8.9072,-8.8666,-8.9038,-9.2286,0.0,0.0,-9.1169,-9.0459,0.0,0.0,0.0,0.0,0.0,0.0,0.0,0.0,0.0,0.0,0.0,0.0,0.0,0.0,0.0,0.0,0.0,0.0,-11.695,-11.8191,-12.0011,-12.2342,-12.551,-12.5684,-12.5684,-12.5684,-12.5573,-12.5573,-12.5684,-12.5573,-12.5573,-12.5684,-12.5684,-12.528,-12.4582,-12.4509,-12.4179,-12.3591,-12.4215,-12.4399,-12.4399,-12.528,-12.528,-12.4693,-12.539,-12.5684,-12.5684,-12.5684,-12.5684,-12.5684,-12.5684,-12.5684,-12.5684,-12.5684,-12.5684,-12.5684,-12.5684,-12.5794,-12.5977,-12.6895,-12.8106,-12.9207,-12.9428,-13.0015,-13.0712,-13.1483,-13.1703,-13.2107,-13.3796,-13.4089,-13.4437,-13.5773,-13.6594,-13.7282,-13.8424,-13.8587,-13.814,-13.6595,-13.7271,-13.7978,-13.8072,-13.902,-14.0489,-14.2681,-14.2989,-14.3297,-14.422,-14.3489,-14.2989,-14.3181,-14.3181,-14.3181,-14.3412,-14.4913,-14.572,-14.5797,-14.6413,-14.599,-14.4489,-14.4412,-14.3797,-14.2912,-14.2181,-14.1912,-8.9072,-8.941,0.0,0.0,0.0,0.0,-8.8497,-8.9038,0.0,0.0,0.0,0.0,0.0,0.0,0.0,0.0,0.0,0.0,0.0,0.0,0.0,0.0,0.0,0.0,0.0,0.0,-11.9442,-11.846,-12.116,-12.3575,-12.5583,-12.5684,-12.5684,-12.5684,-12.5096,-12.4986,-12.5684,-12.5096,-12.5096,-12.5684,-12.5684,-12.5573,-12.539,-12.4803,-12.4803,-12.517,-12.4693,-12.4105,-12.3628,-12.5096,-12.5573,-12.55,-12.5573,-12.5684,-12.5684,-12.5684,-12.5684,-12.5684,-12.5684,-12.5684,-12.5684,-12.5684,-12.5684,-12.5684,-12.5684,-12.6197,-12.7005,-12.84,-12.8583,-12.8583,-12.9905,-13.0382,-13.0712,-13.1483,-13.1703,-13.2107,-13.3796,-13.4089,-13.4893,-13.7456,-13.7441,-13.7282,-13.8424,-13.8587,-13.8641,-13.8478,-13.9176,-13.9806,-14.0018,-14.0764,-14.1604,-14.2104,-14.2104,-14.2489,-14.3297,-14.2604,-14.2681,-14.4105,-14.3489,-14.3682,-14.5105,-14.549,-14.599,-14.6682,-14.6182,-14.5797,-14.5413,-14.3989,-14.2912,-14.2104,-14.1989,-14.1912,0.0,0.0,0.0,-9.1237,0.0,0.0,0.0,-8.826,0.0,0.0,0.0,0.0,0.0,0.0,0.0,0.0,0.0,0.0,0.0,0.0,0.0,0.0,0.0,0.0,0.0,0.0,-11.9625,-11.9554,-12.1759,-12.3802,-12.5023,-12.4693,-12.4693,-12.5096,-12.4289,-12.4105,-12.4509,-12.4509,-12.4693,-12.5096,-12.55,-12.5684,-12.5684,-12.528,-12.528,-12.5684,-12.528,-12.4876,-12.4582,-12.539,-12.5463,-12.5096,-12.55,-12.5684,-12.5684,-12.5684,-12.5684,-12.5684,-12.5684,-12.5684,-12.5684,-12.5684,-12.5684,-12.5684,-12.5684,-12.5977,-12.6491,-12.7299,-12.7482,-12.7813,-12.8987,-12.9611,-13.0199,-13.1373,-13.1703,-13.2107,-13.3796,-13.4172,-13.5005,-13.7505,-13.7606,-13.7809,-13.9329,-13.9618,-13.9484,-13.9203,-13.9915,-14.038,-14.0588,-14.0989,-14.172,-14.2989,-14.3105,-14.3605,-14.4913,-14.4297,-14.4182,-14.499,-14.4605,-14.4797,-14.5682,-14.6105,-14.649,-14.6913,-14.572,-14.5105,-14.499,-14.3297,-14.2489,-14.2489,-14.2104,-14.1912,0.0,0.0,0.0,0.0,0.0,-9.1643,0.0,0.0,0.0,-8.7516,0.0,0.0,0.0,0.0,0.0,0.0,0.0,0.0,0.0,0.0,0.0,0.0,0.0,0.0,0.0,0.0,-11.8733,-12.0934,-12.2006,-12.3114,-12.4215,-12.3701,-12.3591,-12.4215,-12.3518,-12.3114,-12.3298,-12.3812,-12.4105,-12.4289,-12.4876,-12.528,-12.5463,-12.5463,-12.5573,-12.5684,-12.55,-12.539,-12.5206,-12.5206,-12.4803,-12.4105,-12.528,-12.5573,-12.55,-12.5573,-12.5684,-12.5684,-12.5684,-12.5684,-12.5684,-12.5684,-12.5684,-12.5684,-12.5684,-12.5684,-12.5684,-12.5904,-12.6491,-12.7299,-12.8106,-12.8914,-12.9905,-13.1373,-13.1703,-13.2107,-13.3576,-13.396,-13.4842,-13.6722,-13.7168,-13.8006,-13.9978,-14.0489,-14.0412,-13.9719,-14.0296,-14.0912,-14.0912,-14.0912,-14.1604,-14.372,-14.4105,-14.472,-14.6105,-14.572,-14.549,-14.572,-14.549,-14.549,-14.572,-14.6297,-14.6682,-14.6913,-14.5297,-14.4412,-14.4412,-14.2681,-14.2181,-14.2912,-14.2181,-14.1912,0.0,0.0,0.0,0.0,-9.5838,0.0,0.0,0.0,-9.215,-9.0222,0.0,0.0,0.0,0.0,0.0,0.0,0.0,0.0,0.0,0.0,0.0,0.0,0.0,0.0,0.0,0.0,0.0,-12.172,-12.0779,-12.0985,-12.3298,-12.3298,-12.3298,-12.3408,-12.2674,-12.26,-12.3298,-12.271,-12.271,-12.3408,-12.3518,-12.3922,-12.4582,-12.4582,-12.4986,-12.5684,-12.4913,-12.4215,-12.3591,-12.3591,-12.3114,-12.26,-12.4803,-12.528,-12.4693,-12.539,-12.5684,-12.5684,-12.5684,-12.5684,-12.5684,-12.5684,-12.5684,-12.5684,-12.5684,-12.5684,-12.5794,-12.6601,-12.7299,-12.8106,-12.8987,-12.9795,-13.0602,-13.1483,-13.1703,-13.1887,-13.2805,-13.3094,-13.3754,-13.5804,-13.629,-13.6974,-13.9115,-14.0104,-14.0604,-14.0489,-14.1181,-14.1797,-14.1797,-14.1797,-14.1912,-14.2181,-14.2797,-14.3297,-14.3489,-14.4182,-14.4913,-14.5682,-14.499,-14.4913,-14.572,-14.5797,-14.6182,-14.6913,-14.5297,-14.4412,-14.4412,-14.2681,-14.1912,-14.1989,-14.1912,-14.1912,0.0,0.0,0.0,0.0,0.0,0.0,-9.4518,0.0,-9.1981,0.0,0.0,0.0,0.0,0.0,0.0,0.0,0.0,0.0,0.0,0.0,0.0,0.0,0.0,0.0,0.0,0.0,0.0,0.0,0.0,-11.6984,-11.9003,-11.9517,-12.0398,-12.1903,-12.1095,-12.1095,-12.1903,-12.2013,-12.227,-12.26,-12.3591,-12.4179,-12.4509,-12.4509,-12.4693,-12.4986,-12.4179,-12.3591,-12.3298,-12.3298,-12.2784,-12.227,-12.4179,-12.4803,-12.4509,-12.4876,-12.528,-12.5684,-12.5684,-12.5684,-12.5684,-12.5684,-12.5684,-12.5684,-12.5684,-12.5684,-12.5794,-12.6087,-12.6785,-12.7592,-12.84,-12.9207,-13.0015,-13.0786,-13.1006,-13.119,-13.1997,-13.3172,-13.4522,-13.5824,-13.7081,-13.8237,-13.9111,-13.9989,-14.0604,-14.0604,-14.1296,-14.1912,-14.1912,-14.1912,-14.2104,-14.2489,-14.3412,-14.4105,-14.4605,-14.4913,-14.5297,-14.572,-14.5413,-14.5297,-14.572,-14.6105,-14.6297,-14.6182,-14.499,-14.422,-14.3605,-14.2489,-14.1912,-14.1912,-14.1912,-14.1912,-9.7834,0.0,0.0,0.0,0.0,0.0,0.0,0.0,0.0,0.0,0.0,0.0,0.0,0.0,-9.4552,-9.4687,0.0,0.0,0.0,0.0,0.0,0.0,0.0,0.0,0.0,0.0,0.0,0.0,-11.1772,-11.2396,-11.4892,-11.5589,-11.7094,-11.9811,-11.948,-11.97,-12.0508,-12.1095,-12.1499,-12.1793,-12.3004,-12.3591,-12.3812,-12.3812,-12.3995,-12.4105,-12.3298,-12.282,-12.26,-12.2417,-12.1903,-12.1499,-12.271,-12.3591,-12.4215,-12.4693,-12.517,-12.5684,-12.5684,-12.5684,-12.5684,-12.5684,-12.5684,-12.5684,-12.5684,-12.5684,-12.5684,-12.5684,-12.6381,-12.7409,-12.7886,-12.8877,-12.9795,-13.0382,-13.0492,-13.0676,-13.119,-13.2777,-13.4494,-13.5565,-13.753,-13.9115,-13.9588,-14.0219,-14.0604,-14.0604,-14.1296,-14.1912,-14.1912,-14.1912,-14.2104,-14.2681,-14.3489,-14.422,-14.4605,-14.5105,-14.522,-14.499,-14.499,-14.499,-14.499,-14.549,-14.5797,-14.572,-14.4605,-14.3797,-14.3489,-14.2412,-14.1912,-14.1912,-14.1912,-14.1912,0.0,0.0,0.0,-9.9796,0.0,0.0,0.0,0.0,-9.7597,0.0,0.0,0.0,0.0,-9.6751,-9.6311,-9.4924,-9.533,0.0,0.0,0.0,0.0,0.0,0.0,0.0,0.0,0.0,0.0,-10.9973,-10.7183,-10.7514,-11.2286,-11.2506,-11.4011,-11.7204,-11.8012,-11.8783,-11.959,-11.97,-12.0104,-12.0912,-12.0985,-12.1389,-12.2196,-12.2196,-12.26,-12.3298,-12.249,-12.1683,-12.0912,-12.0104,-11.97,-11.97,-11.97,-12.1205,-12.3518,-12.5096,-12.5684,-12.5684,-12.5684,-12.5684,-12.5684,-12.5684,-12.5684,-12.5684,-12.5684,-12.5684,-12.5684,-12.5684,-12.6785,-12.8106,-12.8106,-12.9281,-13.0492,-13.0492,-13.0492,-13.0492,-13.0492,-13.1409,-13.265,-13.4618,-13.6511,-13.838,-14.0225,-14.0604,-14.0604,-14.0604,-14.1296,-14.1912,-14.1912,-14.1912,-14.1912,-14.1912,-14.2681,-14.2797,-14.2104,-14.3489,-14.4105,-14.3181,-14.3181,-14.3181,-14.3181,-14.3181,-14.3989,-14.5682,-14.3989,-14.3489,-14.4412,-14.2681,-14.1912,-14.1912,-14.1912,-14.1912,0.0,0.0,-10.5817,-10.2806,0.0,0.0,0.0,0.0,0.0,0.0,0.0,0.0,0.0,-9.8341,-9.7867,-9.6379,-9.6345,-9.5841,0.0,-9.3732,0.0,0.0,0.0,0.0,0.0,0.0,0.0,-10.4284,-10.1898,-10.2008,0.0,-10.7991,-11.0707,-11.3901,-11.581,-11.7498,-11.8783,-11.8783,-11.9003,-11.9297,-12.0398,-12.0985,-12.1279,-12.1866,-12.1976,-12.1683,-12.0802,-11.9994,-11.9297,-11.948,-11.959,-11.97,-12.0802,-12.2086,-12.3408,-12.3885,-12.4803,-12.5684,-12.5684,-12.5684,-12.5684,-12.5684,-12.5684,-12.5684,-12.5684,-12.5684,-12.5684,-12.5684,-12.6895,-12.7996,-12.7409,-12.8914,-13.0382,-12.9795,-13.0088,-13.0492,-13.0492,-13.2331,-13.4111,-13.4814,-13.7462,-13.9903,-14.0473,-14.1104,-14.1489,-14.1489,-14.1181,-14.1181,-14.1797,-14.1412,-14.1296,-14.1797,-14.2604,-14.2989,-14.2681,-14.3181,-14.3181,-14.2412,-14.2797,-14.3105,-14.3105,-14.3682,-14.3989,-14.3989,-14.3412,-14.2989,-14.272,-14.2181,-14.1912,-14.1912,-14.1912,-14.1604,-10.6731,-10.7712,0.0,-10.5783,-10.5513,0.0,-10.0912,0.0,0.0,0.0,0.0,0.0,0.0,-10.0709,-9.9187,-9.824,-9.7191,-9.5466,0.0,-9.2952,-9.4099,0.0,0.0,0.0,0.0,0.0,-9.9988,-9.9035,-9.7493,-9.764,0.0,0.0,-10.7294,-11.0597,-11.3901,-11.6213,-11.7498,-11.7792,-11.8122,-11.8416,-11.948,-12.0178,-12.0398,-12.0691,-12.0691,-12.0398,-11.948,-11.8893,-11.8416,-11.9003,-11.948,-12.0178,-12.1279,-12.249,-12.3701,-12.3701,-12.4582,-12.5684,-12.5684,-12.5684,-12.5684,-12.5684,-12.5684,-12.5684,-12.5684,-12.5684,-12.5977,-12.7372,-12.7776,-12.7886,-12.8804,-12.9611,-12.9905,-12.9428,-12.9905,-13.0492,-13.0492,-13.2568,-13.4588,-13.5154,-13.7919,-14.0296,-14.0989,-14.1489,-14.1797,-14.1489,-14.1181,-14.1181,-14.1412,-14.1181,-14.1296,-14.1797,-14.2412,-14.2489,-14.2181,-14.2489,-14.2297,-14.1489,-14.2181,-14.2681,-14.2681,-14.3181,-14.4105,-14.5413,-14.3297,-14.2797,-14.4105,-14.1989,-14.1104,-14.1412,-14.1104,-14.0681]}]]